[[{"header":{"parameterUnit":"m.s-1","parameterCategory":1,"la1":30.6,"la2":28.766,"lo1":-90.7593,"lo2":-88.6598,"dy":0.0162,"dx":0.0183,"nx":116,"ny":114,"refTime":"2023-05-10T12:00:00:Z","depth":0,"parameterNumber":2,"parameterNumberName":"U-component_of_WINDS"},"data":[0.0,0.0,0.0,0.0,0.0,0.0,0.0,0.0,0.0,0.0,0.0,0.0,0.0,0.0,0.0,0.0,0.0,0.0,0.0,0.0,0.0,0.0,0.0,0.0,0.0,0.0,0.0,0.0,0.0,0.0,0.0,0.0,0.0,0.0,0.0,0.0,0.0,0.0,0.0,0.0,0.0,0.0,0.0,0.0,0.0,0.0,0.0,0.0,0.0,0.0,0.0,0.0,0.0,0.0,0.0,0.0,0.0,0.0,0.0,0.0,0.0,0.0,0.0,0.0,0.0,0.0,0.0,0.0,0.0,0.0,0.0,0.0,0.0,0.0,0.0,0.0,0.0,0.0,0.0,0.0,0.0,0.0,0.0,0.0,0.0,0.0,0.0,0.0,0.0,0.0,0.0,0.0,0.0,0.0,0.0,0.0,0.0,0.0,0.0,0.0,0.0,0.0,0.0,0.0,0.0,0.0,0.0,0.0,0.0,0.0,0.0,0.0,0.0,0.0,0.0,0.0,0.0,0.0,0.0,0.0,0.0,0.0,0.0,0.0,0.0,0.0,0.0,0.0,0.0,0.0,0.0,0.0,0.0,0.0,0.0,0.0,0.0,0.0,0.0,0.0,0.0,0.0,0.0,0.0,0.0,0.0,0.0,0.0,0.0,0.0,0.0,0.0,0.0,0.0,0.0,0.0,0.0,0.0,0.0,0.0,0.0,0.0,0.0,0.0,0.0,0.0,0.0,0.0,0.0,0.0,0.0,0.0,0.0,0.0,0.0,0.0,0.0,0.0,0.0,0.0,0.0,0.0,0.0,0.0,0.0,0.0,0.0,0.0,0.0,0.0,0.0,0.0,0.0,0.0,0.0,0.0,0.0,0.0,0.0,0.0,0.0,0.0,0.0,0.0,0.0,0.0,0.0,0.0,0.0,0.0,0.0,0.0,0.0,0.0,0.0,0.0,0.0,0.0,0.0,0.0,0.0,0.0,0.0,0.0,0.0,0.0,0.0,0.0,0.0,0.0,0.0,0.0,0.0,0.0,0.0,0.0,0.0,0.0,0.0,0.0,0.0,0.0,0.0,0.0,0.0,0.0,0.0,0.0,0.0,0.0,0.0,0.0,0.0,0.0,0.0,0.0,0.0,0.0,0.0,0.0,0.0,0.0,0.0,0.0,0.0,0.0,0.0,0.0,0.0,0.0,0.0,0.0,0.0,0.0,0.0,0.0,0.0,0.0,0.0,0.0,0.0,0.0,0.0,0.0,0.0,0.0,0.0,0.0,0.0,0.0,0.0,0.0,0.0,0.0,0.0,0.0,0.0,0.0,0.0,0.0,0.0,0.0,0.0,0.0,0.0,0.0,0.0,0.0,0.0,0.0,0.0,0.0,0.0,0.0,0.0,0.0,0.0,0.0,0.0,0.0,0.0,0.0,0.0,0.0,0.0,0.0,0.0,0.0,0.0,0.0,0.0,0.0,0.0,0.0,0.0,0.0,0.0,0.0,0.0,0.0,0.0,0.0,0.0,0.0,0.0,0.0,0.0,0.0,0.0,0.0,0.0,0.0,0.0,0.0,0.0,0.0,0.0,0.0,0.0,0.0,0.0,0.0,0.0,0.0,0.0,0.0,0.0,0.0,0.0,0.0,0.0,0.0,0.0,0.0,0.0,0.0,0.0,0.0,0.0,0.0,0.0,0.0,0.0,0.0,0.0,0.0,0.0,0.0,0.0,0.0,0.0,0.0,0.0,0.0,0.0,0.0,0.0,0.0,0.0,0.0,0.0,0.0,0.0,0.0,0.0,0.0,0.0,0.0,0.0,0.0,0.0,0.0,0.0,0.0,0.0,0.0,0.0,0.0,0.0,0.0,0.0,0.0,0.0,0.0,0.0,0.0,0.0,0.0,0.0,0.0,0.0,0.0,0.0,0.0,0.0,0.0,0.0,0.0,0.0,0.0,0.0,0.0,0.0,0.0,0.0,0.0,0.0,0.0,0.0,0.0,0.0,0.0,0.0,0.0,0.0,0.0,0.0,0.0,0.0,0.0,0.0,0.0,0.0,0.0,0.0,0.0,0.0,0.0,0.0,0.0,0.0,0.0,0.0,0.0,0.0,0.0,0.0,0.0,0.0,0.0,0.0,0.0,0.0,0.0,0.0,0.0,0.0,0.0,0.0,0.0,0.0,0.0,0.0,0.0,0.0,0.0,0.0,0.0,0.0,0.0,0.0,0.0,0.0,0.0,0.0,0.0,0.0,0.0,0.0,0.0,0.0,0.0,0.0,0.0,0.0,0.0,0.0,0.0,0.0,0.0,0.0,0.0,0.0,0.0,0.0,0.0,0.0,0.0,0.0,0.0,0.0,0.0,0.0,0.0,0.0,0.0,0.0,0.0,0.0,0.0,0.0,0.0,0.0,0.0,0.0,0.0,0.0,0.0,0.0,0.0,0.0,0.0,0.0,0.0,0.0,0.0,0.0,0.0,0.0,0.0,0.0,0.0,0.0,0.0,0.0,0.0,0.0,0.0,0.0,0.0,0.0,0.0,0.0,0.0,0.0,0.0,0.0,0.0,0.0,0.0,0.0,0.0,0.0,0.0,0.0,0.0,0.0,0.0,0.0,0.0,0.0,0.0,0.0,0.0,0.0,0.0,0.0,0.0,0.0,0.0,0.0,0.0,0.0,0.0,0.0,0.0,0.0,0.0,0.0,0.0,0.0,0.0,0.0,0.0,0.0,0.0,0.0,0.0,0.0,0.0,0.0,0.0,0.0,0.0,0.0,0.0,0.0,0.0,0.0,0.0,0.0,0.0,0.0,0.0,0.0,0.0,0.0,0.0,0.0,0.0,0.0,0.0,0.0,0.0,0.0,0.0,0.0,0.0,0.0,0.0,0.0,0.0,0.0,0.0,0.0,0.0,0.0,0.0,0.0,0.0,0.0,0.0,0.0,0.0,0.0,0.0,0.0,0.0,0.0,0.0,0.0,0.0,0.0,0.0,0.0,0.0,0.0,0.0,0.0,0.0,0.0,0.0,0.0,0.0,0.0,0.0,0.0,0.0,0.0,0.0,0.0,0.0,0.0,0.0,0.0,0.0,0.0,0.0,0.0,0.0,0.0,0.0,0.0,0.0,0.0,0.0,0.0,0.0,0.0,0.0,0.0,0.0,0.0,0.0,0.0,0.0,0.0,0.0,0.0,0.0,0.0,0.0,0.0,0.0,0.0,0.0,0.0,0.0,0.0,0.0,0.0,0.0,0.0,0.0,0.0,0.0,0.0,0.0,0.0,0.0,0.0,0.0,0.0,0.0,0.0,0.0,0.0,0.0,0.0,0.0,0.0,0.0,0.0,0.0,0.0,0.0,0.0,0.0,0.0,0.0,0.0,0.0,0.0,0.0,0.0,0.0,0.0,0.0,0.0,0.0,0.0,0.0,0.0,0.0,0.0,0.0,0.0,0.0,0.0,0.0,0.0,0.0,0.0,0.0,0.0,0.0,0.0,0.0,0.0,0.0,0.0,0.0,0.0,0.0,0.0,0.0,0.0,0.0,0.0,0.0,0.0,0.0,0.0,0.0,0.0,0.0,0.0,0.0,0.0,0.0,0.0,0.0,0.0,0.0,0.0,0.0,0.0,0.0,0.0,0.0,0.0,0.0,0.0,0.0,0.0,0.0,0.0,0.0,0.0,0.0,0.0,0.0,0.0,0.0,0.0,0.0,0.0,0.0,0.0,0.0,0.0,0.0,0.0,0.0,0.0,0.0,0.0,0.0,0.0,0.0,0.0,0.0,0.0,0.0,0.0,0.0,0.0,0.0,0.0,0.0,0.0,0.0,0.0,0.0,0.0,0.0,0.0,0.0,0.0,0.0,0.0,0.0,0.0,0.0,0.0,0.0,0.0,0.0,0.0,0.0,0.0,0.0,0.0,0.0,0.0,0.0,0.0,0.0,0.0,0.0,0.0,0.0,0.0,0.0,0.0,0.0,0.0,0.0,0.0,0.0,0.0,0.0,0.0,0.0,0.0,0.0,0.0,0.0,0.0,0.0,0.0,0.0,0.0,0.0,0.0,0.0,0.0,0.0,0.0,0.0,0.0,0.0,0.0,0.0,0.0,0.0,0.0,0.0,0.0,0.0,0.0,0.0,0.0,0.0,0.0,0.0,0.0,0.0,0.0,0.0,0.0,0.0,0.0,0.0,0.0,0.0,0.0,0.0,0.0,0.0,0.0,0.0,0.0,0.0,0.0,0.0,0.0,0.0,0.0,0.0,0.0,0.0,0.0,0.0,0.0,0.0,0.0,0.0,0.0,0.0,0.0,0.0,0.0,0.0,0.0,0.0,0.0,0.0,0.0,0.0,0.0,0.0,0.0,0.0,0.0,0.0,0.0,0.0,0.0,0.0,0.0,0.0,0.0,0.0,0.0,0.0,0.0,0.0,0.0,0.0,0.0,0.0,0.0,0.0,0.0,0.0,0.0,0.0,0.0,0.0,0.0,0.0,0.0,0.0,0.0,0.0,0.0,0.0,0.0,0.0,0.0,0.0,0.0,0.0,0.0,0.0,0.0,0.0,0.0,0.0,0.0,0.0,0.0,0.0,0.0,0.0,0.0,0.0,0.0,0.0,0.0,0.0,0.0,0.0,0.0,0.0,0.0,0.0,0.0,0.0,0.0,0.0,0.0,0.0,0.0,0.0,0.0,0.0,0.0,0.0,0.0,0.0,0.0,0.0,0.0,0.0,0.0,0.0,0.0,0.0,0.0,0.0,0.0,0.0,0.0,0.0,0.0,0.0,0.0,0.0,0.0,0.0,0.0,0.0,0.0,0.0,0.0,0.0,0.0,0.0,0.0,0.0,0.0,0.0,0.0,0.0,0.0,0.0,0.0,0.0,0.0,0.0,0.0,0.0,0.0,0.0,0.0,0.0,0.0,0.0,0.0,0.0,0.0,0.0,0.0,0.0,0.0,0.0,0.0,0.0,0.0,0.0,0.0,0.0,0.0,0.0,0.0,0.0,0.0,0.0,0.0,0.0,0.0,0.0,0.0,0.0,0.0,0.0,0.0,0.0,0.0,0.0,0.0,0.0,0.0,0.0,0.0,0.0,0.0,0.0,0.0,0.0,0.0,0.0,0.0,0.0,0.0,0.0,0.0,0.0,0.0,0.0,0.0,0.0,0.0,0.0,0.0,0.0,0.0,0.0,0.0,0.0,0.0,0.0,0.0,0.0,0.0,0.0,0.0,0.0,0.0,0.0,0.0,0.0,0.0,0.0,0.0,0.0,0.0,0.0,0.0,0.0,0.0,0.0,0.0,0.0,0.0,0.0,0.0,0.0,0.0,0.0,0.0,0.0,0.0,0.0,0.0,0.0,0.0,0.0,0.0,0.0,0.0,0.0,0.0,0.0,0.0,0.0,0.0,0.0,0.0,0.0,0.0,0.0,0.0,0.0,0.0,0.0,0.0,0.0,0.0,0.0,0.0,0.0,0.0,0.0,0.0,0.0,0.0,0.0,0.0,0.0,0.0,0.0,0.0,0.0,0.0,0.0,0.0,0.0,0.0,0.0,0.0,0.0,0.0,0.0,0.0,0.0,0.0,0.0,0.0,0.0,0.0,0.0,0.0,0.0,0.0,0.0,0.0,0.0,0.0,0.0,0.0,0.0,0.0,0.0,0.0,0.0,0.0,0.0,0.0,0.0,0.0,0.0,0.0,0.0,0.0,0.0,0.0,0.0,0.0,0.0,0.0,0.0,0.0,0.0,0.0,0.0,0.0,0.0,0.0,0.0,0.0,0.0,0.0,0.0,0.0,0.0,0.0,0.0,0.0,0.0,0.0,0.0,0.0,0.0,0.0,0.0,0.0,0.0,0.0,0.0,0.0,0.0,0.0,0.0,0.0,0.0,0.0,0.0,0.0,0.0,0.0,0.0,0.0,0.0,0.0,0.0,0.0,0.0,0.0,0.0,0.0,0.0,0.0,0.0,0.0,0.0,0.0,0.0,0.0,0.0,0.0,0.0,0.0,0.0,0.0,0.0,0.0,0.0,0.0,0.0,0.0,0.0,0.0,0.0,0.0,0.0,0.0,0.0,0.0,0.0,0.0,0.0,0.0,0.0,0.0,0.0,0.0,0.0,0.7007,0.0,0.0,0.0,0.0,0.0,0.0,0.0,0.0,0.0,0.0,0.0,0.0,0.0,0.0,0.0,0.0,0.0,0.0,0.0,0.0,0.0,0.0,0.0,0.0,0.0,0.0,0.0,0.0,0.0,0.0,0.0,0.0,0.0,0.0,0.0,0.0,0.0,0.0,0.2465,0.2546,0.2516,0.2365,0.2522,0.2536,0.2404,0.0,0.0,0.0,0.0,0.0,0.0,0.0,0.0,0.0,0.0,0.0,0.0,0.0,0.0,0.0,0.0,0.0,0.0,0.0,0.0,0.0,0.0,0.0,0.0,0.0,0.0,0.0,0.0,0.0,0.0,0.0,0.0,0.0,0.0,0.0,0.0,0.0,0.0,0.0,0.0,0.0,0.0,0.0,0.0,0.0,0.0,0.0,0.0,0.0,0.0,0.0,0.0,0.0,0.0,0.0,0.0,0.0,0.0,0.0,0.0,0.0,0.0,0.0,0.0,0.0,0.0,0.0,0.0,0.0,0.0,0.0,0.7223,0.0,0.0,0.0,0.0,0.0,0.0,0.0,0.0,0.0,0.0,0.0,0.0,0.0,0.0,0.0,0.0,0.0,0.0,0.0,0.0,0.0,0.0,0.0,0.1722,0.1743,0.1793,0.1797,0.1797,0.0,0.0,0.0,0.0,0.0,0.0,0.1797,0.2018,0.2128,0.2128,0.2424,0.2423,0.2152,0.233,0.2355,0.2245,0.2231,0.0,0.0,0.0,0.0,0.0,0.0,0.0,0.0,0.0,0.0,0.0,0.0,0.0,0.0,0.0,0.0,0.0,0.0,0.0,0.0,0.0,0.0,0.0,0.0,0.0,0.0,0.0,0.0,0.0,0.0,0.0,0.0,0.0,0.0,0.0,0.0,0.0,0.0,0.0,0.0,0.0,0.0,0.0,0.0,0.0,0.0,0.0,0.0,0.0,0.0,0.0,0.0,0.0,0.0,0.0,0.0,0.0,0.0,0.0,0.0,0.0,0.0,0.0,0.6603,0.6716,0.6791,0.6791,0.6791,0.6847,0.7681,0.7542,0.6777,0.751,0.0,0.0,0.0,0.0,0.0,0.0,0.0,0.0,0.0,0.0,0.0,0.0,0.0,0.0,0.0,0.0,0.0,0.0,0.0,0.0,0.0,0.1785,0.1788,0.1797,0.1797,0.1797,0.1797,0.0,0.0,0.0,0.0,0.0,0.1797,0.1839,0.1853,0.1853,0.1961,0.1982,0.1945,0.2031,0.2052,0.205,0.2214,0.2312,0.2355,0.0,0.0,0.0,0.0,0.0,0.0,0.0,0.0,0.0,0.0,0.0,0.0,0.0,0.0,0.0,0.0,0.0,0.0,0.0,0.0,0.0,0.0,0.0,0.0,0.0,0.0,0.0,0.0,0.0,0.0,0.0,0.0,0.0,0.0,0.0,0.0,0.0,0.0,0.0,0.0,0.0,0.4119,0.4119,0.0,0.0,0.0,0.0,0.0,0.0,0.0,0.0,0.0,0.0,0.0,0.0,0.0,0.49,0.49,0.5276,0.5693,0.6158,0.6184,0.6411,0.6791,0.6791,0.6791,0.6802,0.6938,0.0,0.6782,0.6735,0.0,0.0,0.0,0.0,0.0,0.0,0.0,0.0,0.0,0.0,0.0,0.0,0.0,0.0,0.0,0.0,0.0,0.0,0.0,0.0,0.0,0.0559,0.063,0.0771,0.0785,0.0856,0.101,0.101,0.0,0.0,0.0,0.1403,0.1403,0.1403,0.1275,0.1009,0.1041,0.1208,0.1509,0.153,0.1709,0.1998,0.2093,0.2178,0.2239,0.2258,0.0,0.0,0.0,0.0,0.0,0.0,0.0,0.0,0.0,0.0,0.0,0.0,0.0,0.0,0.0,0.0,0.0,0.0,0.0,0.0,0.0,0.0,0.0,0.0,0.0,0.0,0.0,0.0,0.0,0.0,0.0,0.0,0.0,0.0,0.0,0.0,0.0,0.0,0.0,0.3652,0.3535,0.3346,0.3456,0.3556,0.0,0.0,0.0,0.0,0.0,0.0,0.0,0.0,0.0,0.4813,0.4968,0.5052,0.5101,0.5383,0.5685,0.5989,0.6098,0.6261,0.646,0.646,0.646,0.646,0.646,0.646,0.6473,0.6607,0.6665,0.6661,0.0,0.0,0.0,0.0,0.6539,0.6539,0.0,0.0,0.0,0.0,0.0,0.0,0.0,0.0,0.0,0.0,0.0,0.0,-0.0377,-0.0405,-0.0321,-0.0126,-0.0098,0.0014,0.028,0.0294,0.0491,0.0898,0.0926,0.0915,0.0923,0.0917,0.0757,0.0402,0.0403,0.0599,0.0992,0.0992,0.1305,0.1837,0.181,0.1921,0.2144,0.2073,0.214,0.2274,0.0,0.0,0.0,0.0,0.0,0.0,0.0,0.0,0.0,0.0,0.0,0.0,0.0,0.0,0.0,0.0,0.0,0.0,0.0,0.0,0.0,0.0,0.0,0.0,0.0,0.0,0.0,0.0,0.0,0.0,0.0,0.0,0.0,0.0,0.0,0.0,0.0,0.295,0.2875,0.2622,0.266,0.2714,0.0,0.0,0.0,0.0,0.0,0.0,0.3703,0.4023,0.4289,0.453,0.4629,0.4704,0.4766,0.4988,0.5231,0.5462,0.5618,0.5757,0.59,0.59,0.59,0.59,0.59,0.59,0.593,0.6387,0.6544,0.6507,0.6459,0.6425,0.6416,0.6416,0.6416,0.6416,0.0,0.0,0.0,0.0,0.0,0.0,0.0,0.0,0.0,0.0,0.0,-0.0391,-0.0405,-0.0405,-0.0391,-0.0377,-0.0377,-0.0266,0.0,0.0014,0.014,0.0421,0.0435,0.0441,0.044,0.0439,0.043,0.04,0.0407,0.0418,0.0436,0.0441,0.0795,0.1426,0.1303,0.1524,0.2016,0.2134,0.22,0.2215,0.2278,0.0,0.0,0.0,0.0,0.0,0.0,0.0,0.0,0.0,0.0,0.0,0.0,0.0,0.0,0.0,0.0,0.0,0.0,0.0,0.0,0.0,0.0,0.0,0.0,0.0,0.0,0.0,0.0,0.0,0.0,0.0,0.0,0.0,0.0,0.0,0.0,0.0,0.0,0.2044,0.226,0.0,0.0,0.0,0.0,0.2906,0.3156,0.3124,0.2699,0.2926,0.2881,0.2456,0.282,0.3018,0.3022,0.3347,0.3783,0.4293,0.4298,0.4568,0.5063,0.5063,0.5063,0.5063,0.5063,0.5063,0.5108,0.57,0.5869,0.5729,0.5536,0.5434,0.537,0.537,0.537,0.537,0.0,0.0,0.0,0.0,0.0,0.0,0.0,0.0,-0.1552,-0.1552,-0.1552,-0.1635,-0.186,-0.1925,-0.1878,-0.1705,-0.1723,-0.1638,-0.1371,-0.1357,-0.1178,-0.0775,-0.076,-0.0659,-0.0439,-0.0525,-0.0571,-0.0571,-0.0604,-0.0461,-0.0106,-0.0108,0.02,0.0765,0.1162,0.1438,0.1627,0.1945,0.2071,0.2064,0.2046,0.201,0.0,0.0,0.0,0.0,0.0,0.0,0.0,0.0,0.0,0.0,0.0,0.0,0.0,0.0,0.0,0.0,0.0,0.0,0.0,0.0,0.0,0.0,0.0,0.0,0.0,0.0,0.0,0.0,0.0,0.0,0.0,0.0,0.0,0.0,0.0,0.0,0.0,0.2058,0.2194,0.0,0.2278,0.2421,0.2514,0.2514,0.284,0.2967,0.2794,0.3095,0.3175,0.3018,0.3147,0.3262,0.3356,0.3465,0.3664,0.395,0.395,0.4042,0.423,0.423,0.423,0.423,0.423,0.423,0.4246,0.4458,0.4822,0.5292,0.5745,0.5747,0.5532,0.5786,0.587,0.587,0.0,0.0,0.0,0.0,0.0,0.0,0.0,0.0,-0.2366,-0.2366,-0.2366,-0.2461,-0.2705,-0.2776,-0.2749,-0.2612,-0.2648,-0.2543,-0.225,-0.2234,-0.205,-0.1647,-0.1523,-0.1317,-0.0968,-0.1075,-0.1141,-0.1141,-0.1175,-0.1015,-0.0665,-0.0689,-0.0393,0.0187,0.0612,0.0904,0.1121,0.1593,0.1908,0.2059,0.1975,0.1904,0.1865,0.0,0.0,0.0,0.0,0.0,0.0,0.0,0.0,0.0,0.0,0.0,0.0,0.0,0.0,0.0,0.0,0.0,0.0,0.0,0.0,0.0,0.0,0.0,0.0,0.0,0.0,0.0,0.0,0.0,0.0,0.0,0.0,0.0,0.0,0.0,0.2087,0.2164,0.2208,0.223,0.2236,0.2276,0.2299,0.2299,0.2552,0.2706,0.2728,0.2948,0.3069,0.3096,0.3097,0.3141,0.3232,0.3232,0.3279,0.3352,0.3352,0.3352,0.3352,0.3352,0.3352,0.3352,0.3352,0.3352,0.3372,0.3509,0.3802,0.4235,0.5009,0.5131,0.4895,0.5165,0.5251,0.5251,0.0,0.0,0.0,0.0,0.0,0.0,-0.2705,-0.2705,-0.2705,-0.2705,-0.2705,-0.2725,-0.2788,-0.28,-0.2864,-0.2996,-0.3006,-0.2872,-0.2535,-0.2521,-0.2413,-0.2151,-0.1815,-0.1482,-0.1163,-0.1208,-0.1241,-0.1241,-0.1236,-0.1232,-0.1214,-0.1282,-0.0962,-0.0333,-0.0383,-0.0076,0.0511,0.1125,0.1667,0.2134,0.2043,0.2008,0.1999,0.0,0.0,0.0,0.0,0.0,0.0,0.0,0.0,0.0,0.0,0.0,0.0,0.0,0.0,0.0,0.0,0.0,0.0,0.0,0.0,0.0,0.0,0.0,0.0,0.0,0.0,0.0,0.0,0.0,0.0,0.0,0.0,0.0,0.2174,0.2193,0.2233,0.2292,0.23,0.2301,0.2301,0.2303,0.2304,0.2304,0.2304,0.2328,0.2401,0.2405,0.2433,0.2491,0.2495,0.2497,0.2497,0.2497,0.2497,0.2497,0.2497,0.2497,0.2497,0.2497,0.2497,0.2497,0.2497,0.2497,0.2536,0.293,0.2852,0.2588,0.3324,0.3521,0.3388,0.3406,0.3406,0.3406,0.0,0.0,0.0,0.0,0.0,0.0,-0.2705,-0.2705,-0.2705,-0.2705,-0.2705,-0.2725,-0.2788,-0.2883,-0.2985,-0.3062,-0.3113,-0.3103,-0.3021,-0.3005,-0.3018,-0.3046,-0.2679,-0.2464,-0.2476,-0.2264,-0.2152,-0.2152,-0.215,-0.2,-0.1709,-0.172,-0.1471,-0.1001,-0.0527,-0.0233,-0.0039,0.0511,0.0836,0.1039,0.1831,0.211,0.2063,0.0,0.0,0.0,0.0,0.0,0.0,0.0,0.0,0.0,0.0,0.0,0.0,0.0,0.0,0.0,0.0,0.0,0.0,0.0,0.0,0.0,0.0,0.0,0.0,0.0,0.0,0.0,0.0,0.0,0.0,0.0,0.0,0.1056,0.1546,0.1996,0.228,0.2297,0.2334,0.2378,0.2378,0.2417,0.2443,0.2443,0.2443,0.2449,0.2466,0.2527,0.2559,0.2576,0.262,0.2643,0.2643,0.2643,0.2643,0.2643,0.2643,0.2643,0.2643,0.2643,0.2643,0.2643,0.2643,0.2643,0.2664,0.2767,0.2746,0.2714,0.3453,0.3519,0.3229,0.3572,0.3689,0.3689,0.0,0.0,0.0,0.0,0.0,0.0,-0.2705,-0.2705,-0.2705,-0.2705,-0.2705,-0.2725,-0.2788,-0.2918,-0.3022,-0.3099,-0.3158,-0.3192,-0.3192,-0.3245,-0.3239,-0.3149,-0.2986,-0.2861,-0.2792,-0.2598,-0.2496,-0.2496,-0.2493,-0.2373,-0.2156,-0.2156,-0.1942,-0.1531,-0.1138,-0.0883,-0.0687,-0.0077,0.0153,0.0207,0.1118,0.1592,0.1732,0.1439,0.1618,0.2007,0.1748,0.1781,0.1948,0.1948,0.0,0.0,0.0,0.0,0.0,0.0,0.0,0.0,0.0,0.0,0.0,0.0,0.0,0.0,0.0,0.0,0.0,0.0,0.0,0.0,0.0,0.0,0.0,0.0,0.0164,0.0497,0.0671,0.1174,0.1563,0.158,0.1614,0.1636,0.1636,0.1653,0.1656,0.1656,0.1656,0.1656,0.1656,0.1697,0.173,0.173,0.2067,0.225,0.225,0.2545,0.2692,0.2692,0.2692,0.2692,0.2692,0.2692,0.2692,0.2692,0.2692,0.2692,0.2692,0.2692,0.2523,0.0,0.0,0.0,0.0,0.0,0.3333,0.3333,0.0,0.0,0.0,0.0,0.0,0.0,-0.2705,-0.2705,-0.2705,-0.2705,-0.2705,-0.2725,-0.2788,-0.2918,-0.3022,-0.3099,-0.3158,-0.3213,-0.3225,-0.3335,-0.3248,-0.2912,-0.3009,-0.2934,-0.2657,-0.2637,-0.2648,-0.2648,-0.2648,-0.2627,-0.257,-0.2531,-0.2314,-0.196,-0.1921,-0.1706,-0.1335,-0.0726,-0.0485,-0.0456,0.0076,0.0664,0.1141,0.0599,0.1033,0.1848,0.131,0.1417,0.1828,0.1828,0.0,0.0,0.0,0.0,0.0,0.0,0.0,0.0,0.0,0.0,0.0,0.0,0.0,0.0,0.0,0.0,0.0,0.0,0.0,0.0,0.0,0.0,0.0,0.0,-0.0393,0.0134,-0.0344,0.0,0.0367,0.0571,0.0603,0.0591,0.0591,0.054,0.0504,0.0504,0.0504,0.0504,0.0504,0.0,0.0,0.0,0.0,0.1503,0.1503,0.2139,0.2479,0.2479,0.2479,0.2479,0.2479,0.2479,0.2479,0.2479,0.2479,0.2479,0.2479,0.2479,0.2097,0.1566,0.2297,0.2629,0.2692,0.2692,0.2692,0.2692,0.0,0.0,0.0,0.0,0.0,0.0,-0.2705,-0.2705,-0.2705,-0.2705,-0.2705,-0.2725,-0.2788,-0.2918,-0.3022,-0.3099,-0.3158,-0.3241,-0.3349,-0.3389,-0.3408,-0.3439,-0.3476,-0.3509,-0.354,-0.3558,-0.3548,-0.3548,-0.3548,-0.3354,-0.2982,-0.2648,-0.2451,-0.2373,-0.2038,-0.1862,-0.1784,-0.1647,-0.1409,-0.1112,-0.0995,-0.0341,0.056,0.045,0.0565,0.0792,0.0686,0.0664,0.0702,0.0702,0.0707,0.0709,0.0689,0.0688,0.0,0.0,0.0,0.0,0.0,0.0,0.0,0.0,0.0,0.0,0.0,0.0,0.0,0.0,0.0,0.0,0.0,0.0,0.0,-0.1674,-0.1269,-0.0984,-0.1084,-0.102,-0.0575,0.0485,0.0556,0.0522,0.0522,0.0503,0.0504,0.0504,0.0504,0.0504,0.0504,0.0556,0.0582,0.0582,0.0768,0.0864,0.0864,0.1019,0.1085,0.1085,0.0,0.0,0.1085,0.1085,0.1085,0.1085,0.1085,0.1085,0.1085,0.1085,0.0997,0.0927,0.1577,0.2186,0.2692,0.2692,0.2692,0.2692,0.0,0.0,0.0,0.0,0.0,0.0,-0.2705,-0.2705,-0.2705,-0.2705,-0.2705,-0.2709,-0.274,-0.2906,-0.3019,-0.3049,-0.3148,-0.325,-0.3393,-0.3425,-0.3489,-0.3601,-0.3671,-0.3735,-0.3802,-0.3802,-0.3802,-0.3802,-0.3802,-0.3686,-0.3452,-0.3255,-0.302,-0.2787,-0.2373,-0.2196,-0.2195,-0.198,-0.1902,-0.1903,-0.1903,-0.1566,-0.1001,-0.056,-0.0055,0.0428,0.0176,0.0258,0.0453,0.0446,0.0456,0.045,0.0412,0.0394,0.0394,0.0,0.0,0.0,0.0,0.0,0.0,0.0,0.0,0.0,0.0,0.0,0.0,0.0,0.0,-0.1803,0.0,0.0,-0.1631,-0.1865,-0.1779,-0.1779,-0.2027,-0.1856,-0.1358,-0.0456,-0.04,-0.0449,-0.0449,-0.0453,-0.0456,-0.0456,-0.0456,-0.0456,-0.0456,-0.0417,-0.0397,-0.0397,-0.0045,0.0157,0.0157,0.0515,0.0695,0.0695,0.0695,0.0695,0.0695,0.0695,0.0695,0.0695,0.0695,0.0695,0.0673,0.0291,0.0359,0.0693,0.0635,0.1042,0.1695,0.1695,0.1695,0.1695,0.0,0.0,0.0,0.0,0.0,0.0,0.0,-0.2705,-0.2705,-0.2705,-0.2705,-0.2705,-0.2705,-0.2878,-0.3015,-0.3036,-0.3142,-0.325,-0.3393,-0.3468,-0.3538,-0.3603,-0.3733,-0.3802,-0.3802,-0.3802,-0.3802,-0.3802,-0.3802,-0.3802,-0.3802,-0.3704,-0.3511,-0.3217,-0.2805,-0.2609,-0.2589,-0.2275,-0.2275,-0.2491,-0.2491,-0.2491,-0.2427,-0.1728,-0.0863,-0.0091,-0.0534,-0.0369,0.007,0.0,0.0034,0.0067,-0.0065,-0.0049,0.0,-0.0081,-0.0097,0.0,0.0,0.0,0.0,0.0,0.0,0.0,0.0,0.0,-0.2419,-0.2419,-0.2237,-0.2093,-0.2093,-0.1891,-0.1822,-0.2208,-0.225,-0.2369,-0.2751,-0.2479,-0.2085,-0.1666,-0.158,-0.1552,-0.1552,-0.1643,-0.1681,-0.1681,-0.1681,-0.1681,-0.1681,-0.171,-0.1714,-0.1714,-0.12,-0.093,-0.093,-0.034,-0.0045,-0.0045,0.0068,0.0113,0.0113,0.0227,0.0272,0.0272,0.0271,0.0271,0.0226,-0.0359,-0.0247,0.0224,-0.0359,-0.0224,0.0336,0.0605,0.0695,0.0695,0.0,0.0,0.0,0.0,0.0,0.0,0.0,0.0,-0.2705,-0.2705,-0.2705,-0.2705,-0.2705,-0.2878,-0.3051,-0.3164,-0.3199,-0.325,-0.3393,-0.3468,-0.3538,-0.3603,-0.3733,-0.3802,-0.3802,-0.3802,-0.3802,-0.3802,-0.3802,-0.3802,-0.3782,-0.3374,-0.3374,-0.3704,-0.3237,-0.3043,-0.3023,-0.2982,-0.2787,-0.2491,-0.2491,-0.2491,-0.249,-0.2386,-0.2021,-0.1598,-0.1957,-0.1803,-0.1501,-0.1799,-0.1664,-0.1428,-0.1793,-0.1657,-0.1439,-0.1808,-0.1908,-0.1927,-0.2017,-0.2091,-0.2178,-0.2341,-0.2393,-0.2394,0.0,0.0,-0.2484,-0.2484,-0.2831,-0.3142,-0.3142,-0.3147,-0.318,-0.3242,-0.2942,-0.2746,-0.2789,-0.2797,-0.2787,-0.2738,-0.2365,-0.2101,-0.2101,-0.2485,-0.2732,-0.2732,-0.2732,-0.2732,-0.2732,-0.2782,-0.281,-0.281,-0.2813,-0.2792,-0.2792,-0.272,-0.2673,-0.2673,-0.2199,-0.1962,-0.1939,-0.1467,-0.1255,-0.1254,-0.1255,-0.1245,-0.1266,-0.1288,-0.1233,-0.1166,-0.1256,-0.1233,-0.1009,0.0247,0.0695,0.0695,0.0,0.0,0.0,0.0,0.0,0.0,0.0,0.0,0.0,-0.2705,-0.2705,-0.2705,-0.2705,-0.2878,-0.3059,-0.3195,-0.3192,-0.325,-0.3393,-0.3468,-0.3538,-0.3603,-0.3733,-0.3802,-0.3802,-0.3802,-0.3802,-0.3802,-0.3802,-0.3802,-0.3802,-0.3608,-0.3608,-0.3782,-0.3315,-0.3258,-0.3491,-0.3217,-0.3159,-0.3255,-0.3255,-0.3255,-0.3249,-0.3165,-0.2881,-0.249,-0.2352,-0.2166,0.0,-0.2157,-0.2087,-0.1985,-0.2154,-0.2087,-0.1985,-0.2154,-0.2229,-0.2318,-0.2599,-0.2827,-0.3013,-0.3088,-0.316,-0.3225,-0.3272,-0.3326,-0.3383,-0.3383,-0.3372,-0.3354,-0.3354,-0.3185,-0.3146,0.0,-0.3359,-0.3361,-0.3646,-0.3453,-0.3317,-0.3317,-0.3138,-0.2915,-0.2645,-0.2778,-0.2889,-0.2889,-0.2946,-0.2965,-0.2965,-0.3025,-0.3058,-0.3058,-0.3083,-0.3097,-0.3097,-0.3097,-0.3097,-0.3097,-0.2881,-0.2762,-0.2762,-0.2526,-0.2263,-0.1953,-0.1631,-0.1507,-0.1506,-0.147,-0.1465,-0.1465,-0.1465,-0.1454,-0.1391,-0.0743,-0.0515,-0.0515,0.0,0.0,0.0,0.0,0.0,0.0,0.0,0.0,0.0,0.0,-0.2705,-0.2723,-0.2772,-0.2906,-0.3059,-0.3195,-0.3192,-0.3237,-0.3339,-0.3429,-0.3489,-0.3552,-0.3665,-0.3745,-0.3745,-0.3789,-0.3802,-0.3802,-0.3802,-0.3802,-0.3802,-0.3802,-0.3802,-0.3782,-0.3452,-0.3491,-0.3782,-0.3432,-0.3491,-0.3802,-0.3802,-0.3787,-0.3737,-0.3631,-0.3392,-0.3069,-0.272,-0.2491,-0.2356,-0.2446,-0.2421,-0.2354,-0.2455,-0.2404,-0.2359,-0.2495,-0.2586,-0.2709,-0.307,-0.3368,-0.3593,-0.366,-0.3771,-0.3874,-0.3922,-0.3969,-0.3994,-0.3994,-0.38,-0.3625,-0.3625,-0.3388,-0.3327,-0.3656,-0.3772,-0.3929,-0.4287,-0.4046,-0.3829,-0.3873,-0.3877,-0.3739,-0.3396,-0.3332,-0.3329,-0.337,-0.3419,-0.3449,-0.3449,-0.3515,-0.3531,-0.3531,-0.3548,-0.358,-0.358,-0.358,-0.358,-0.3556,-0.3412,-0.334,-0.334,-0.3196,-0.2905,-0.2516,-0.1974,-0.1754,-0.1729,-0.1577,-0.1502,-0.1502,-0.1502,-0.1489,-0.1491,-0.1445,-0.1427,-0.1391,0.0,0.0,0.0,0.0,0.0,0.0,0.0,0.0,0.0,0.0,0.0,0.0,0.0,-0.2996,-0.3059,-0.3195,-0.3192,-0.3194,-0.3213,-0.3335,-0.3404,-0.3406,-0.3538,-0.3611,-0.3611,-0.3737,-0.3802,-0.3802,-0.3802,-0.3802,-0.3802,-0.3802,-0.3802,-0.3802,-0.3782,-0.3782,-0.3802,-0.3782,-0.3782,-0.3802,-0.3802,-0.3729,-0.3611,-0.3609,-0.352,-0.339,-0.3369,-0.3066,-0.2736,-0.3053,-0.2956,-0.2736,-0.3075,-0.2939,-0.2769,-0.3228,-0.3406,-0.3477,-0.3562,-0.3687,-0.3816,-0.3869,-0.394,-0.3986,-0.3988,-0.3992,-0.3994,-0.3994,-0.4084,-0.4169,-0.4169,-0.4216,-0.4249,-0.4271,-0.4275,-0.4308,-0.4395,-0.4384,-0.4419,-0.4553,-0.4563,-0.4563,0.0,-0.4437,-0.4397,-0.4533,-0.4543,-0.4543,-0.4543,-0.4606,-0.4655,-0.4655,-0.4709,-0.4751,-0.4751,-0.4751,-0.4751,-0.4751,-0.4227,-0.3976,-0.3951,-0.3425,-0.32,-0.3145,-0.2618,-0.2375,-0.2324,-0.173,-0.1502,-0.1502,-0.1502,-0.1502,-0.1501,-0.15,-0.1463,-0.1391,0.0,0.0,0.0,0.0,0.0,0.0,0.0,0.0,0.0,0.0,0.0,0.0,0.0,0.0,0.0,0.0,-0.3192,-0.3192,-0.3192,-0.3331,-0.3399,-0.3399,-0.3479,-0.3542,-0.3542,-0.3573,-0.3616,-0.3673,-0.3673,-0.3723,-0.3802,-0.3802,-0.3802,-0.3802,-0.3802,-0.3802,-0.3802,-0.3802,-0.3747,-0.3673,-0.3673,-0.362,-0.3536,-0.3493,-0.3433,-0.3389,0.0,-0.3171,-0.3044,-0.3169,-0.336,-0.3575,-0.3694,-0.3992,-0.4358,-0.47,-0.4533,-0.4253,-0.4365,-0.4143,-0.3875,-0.3946,-0.4059,-0.4126,-0.4126,-0.4171,-0.4188,-0.4188,-0.4632,-0.4987,-0.4987,-0.5014,-0.5035,-0.5035,-0.4667,-0.4377,-0.4407,-0.4927,-0.5357,-0.5393,-0.5398,0.0,0.0,0.0,0.0,-0.4595,-0.4652,-0.4663,-0.4663,-0.472,-0.4767,-0.4767,-0.4795,-0.4809,-0.4809,-0.4809,-0.4809,-0.4809,-0.4609,-0.4533,-0.4508,-0.3607,-0.3205,-0.3153,-0.2257,-0.1875,-0.185,-0.164,-0.1561,-0.1561,-0.1561,-0.1574,-0.1556,-0.1556,-0.153,-0.1472,0.0,0.0,0.0,0.0,0.0,0.0,0.0,0.0,0.0,0.0,0.0,0.0,0.0,0.0,0.0,0.0,0.0,-0.313,-0.313,-0.3201,-0.3251,-0.3251,-0.3336,-0.3384,-0.3384,-0.3467,-0.3526,-0.3562,-0.3562,-0.3612,-0.3688,-0.3688,-0.3688,-0.3688,-0.3688,-0.3688,-0.3688,-0.3688,-0.3634,-0.3562,-0.3562,-0.3528,-0.3462,-0.342,-0.3379,0.0,-0.3231,-0.3326,-0.3493,-0.3493,-0.3711,-0.4052,-0.431,-0.4778,-0.5269,-0.5442,-0.5301,-0.5087,-0.516,-0.4981,-0.4774,-0.4802,-0.4901,-0.4981,-0.4981,-0.5029,-0.5053,-0.5053,-0.5433,-0.5747,-0.5747,-0.5747,-0.5747,-0.5747,-0.5463,-0.5228,-0.5264,-0.5596,-0.5851,-0.5866,-0.563,-0.546,0.0,0.0,0.0,-0.4665,-0.472,-0.4728,-0.4728,-0.4781,-0.4809,-0.4809,-0.4809,-0.4809,-0.4809,-0.4809,-0.4809,-0.4809,-0.4809,-0.4809,-0.4784,-0.4083,-0.3783,-0.3706,-0.2649,-0.2171,-0.2147,-0.1768,-0.1592,-0.1592,-0.1592,-0.1605,-0.1612,-0.1612,-0.1575,-0.1531,0.0,0.0,0.0,0.0,0.0,0.0,0.0,0.0,0.0,0.0,0.0,0.0,0.0,0.0,0.0,0.0,0.0,0.0,-0.3,-0.3,-0.3015,-0.3031,-0.3142,-0.3203,-0.3236,-0.3395,-0.3489,-0.3493,-0.3493,-0.3495,-0.3499,-0.3499,-0.3499,-0.3499,-0.3499,-0.3499,-0.3499,-0.3499,-0.3497,-0.3493,-0.3493,-0.3456,-0.3391,-0.3391,-0.3303,-0.3192,-0.3192,-0.3544,-0.3995,-0.3995,-0.4047,-0.4224,-0.4958,-0.5371,-0.5591,-0.5604,-0.578,-0.5953,-0.5969,-0.6138,-0.6291,-0.63,-0.6356,-0.6406,-0.6406,-0.6406,-0.6406,-0.6397,-0.6419,-0.6441,0.0,0.0,-0.6444,-0.6451,-0.6593,-0.6728,-0.6784,-0.6349,-0.6037,0.0,0.0,0.0,0.0,0.0,0.0,-0.4935,0.0,-0.4809,-0.4809,-0.4809,-0.4809,-0.4809,-0.4809,-0.4809,-0.4809,-0.4809,-0.4809,-0.4809,-0.4809,-0.4809,-0.4809,-0.4784,-0.4759,-0.4709,-0.3657,-0.318,-0.3079,-0.207,-0.1617,-0.1592,-0.1592,-0.1592,-0.1592,-0.1592,-0.1592,-0.1584,0.0,0.0,0.0,0.0,0.0,0.0,0.0,0.0,0.0,0.0,0.0,0.0,0.0,0.0,0.0,0.0,0.0,0.0,-0.3,-0.3,-0.3138,-0.3442,-0.3237,-0.3286,-0.3642,-0.3406,-0.333,-0.3434,-0.3434,-0.3452,-0.3499,-0.3499,-0.3499,-0.3499,-0.3499,-0.3499,-0.3499,-0.3499,-0.3478,-0.3434,-0.3434,-0.3361,-0.3243,-0.3243,-0.3229,-0.3192,-0.3192,-0.3544,-0.3995,-0.3995,-0.4622,-0.5549,-0.6278,-0.6636,-0.6824,-0.713,-0.6905,-0.6616,-0.6808,-0.6582,-0.6316,-0.6352,-0.6382,-0.6406,-0.6406,-0.6406,-0.6379,-0.6275,-0.6646,-0.6998,-0.6998,0.0,0.0,-0.7207,-0.6882,0.0,-0.6784,-0.7279,0.0,-0.7766,0.0,-0.7481,-0.7481,-0.6936,0.0,0.0,-0.5486,-0.4809,-0.4809,-0.4809,-0.4809,-0.4809,-0.4809,-0.4809,-0.4809,-0.4809,-0.4809,-0.4809,-0.4809,-0.4809,-0.4784,-0.4383,-0.4209,-0.4158,-0.3481,-0.2977,-0.2573,-0.2321,-0.1969,-0.1592,-0.1592,-0.1592,-0.1592,-0.1592,-0.1592,-0.159,0.0,0.0,0.0,0.0,0.0,0.0,0.0,0.0,0.0,0.0,0.0,0.0,0.0,0.0,0.0,0.0,0.0,0.0,0.0,-0.2867,-0.297,-0.3191,-0.3244,-0.3332,-0.3454,-0.3685,-0.3644,-0.3303,-0.3778,-0.3912,-0.3712,-0.3684,-0.3681,-0.3662,-0.3398,-0.3277,-0.3277,-0.3277,-0.3271,0.0,0.0,-0.3238,-0.3192,-0.3192,-0.3192,-0.3228,-0.346,-0.3892,-0.4422,-0.4891,-0.5481,-0.6095,-0.6525,-0.6962,-0.7395,-0.7714,-0.7568,-0.7373,-0.7616,-0.7508,-0.732,-0.7364,-0.7363,-0.7363,-0.7363,-0.7286,-0.7212,-0.7147,-0.7349,-0.7558,-0.7558,-0.7618,-0.7722,0.0,0.0,0.0,-0.7797,-0.8046,-0.825,0.0,-0.8084,0.0,-0.7885,-0.7462,-0.7213,0.0,-0.6359,-0.5862,-0.5862,-0.5862,-0.5862,-0.5862,-0.5862,-0.5862,-0.5862,-0.5862,-0.5862,-0.5862,-0.5862,-0.5862,-0.5837,-0.5536,-0.5211,-0.4836,0.0,-0.3704,-0.3077,-0.2598,-0.222,-0.1919,-0.1693,-0.1592,-0.1592,-0.1592,-0.1592,-0.1592,0.0,0.0,0.0,0.0,0.0,0.0,0.0,0.0,0.0,0.0,-0.2705,0.0,0.0,0.0,0.0,0.0,0.0,0.0,0.0,0.0,-0.2733,-0.2789,-0.3252,-0.3369,-0.309,-0.4003,-0.4075,-0.3192,-0.4203,-0.4456,-0.3992,-0.4007,-0.4025,-0.4003,-0.3448,-0.3219,-0.3204,-0.3142,-0.3143,-0.3187,-0.3135,-0.3156,-0.3192,0.0,-0.3242,-0.3393,-0.3995,-0.4472,-0.4948,-0.5951,-0.6258,-0.6208,-0.628,-0.6875,-0.7576,-0.776,-0.7935,-0.8089,-0.8276,-0.8464,-0.859,-0.859,-0.859,-0.8582,-0.8558,-0.8427,-0.8276,-0.8248,-0.8093,-0.7979,-0.7979,-0.8109,-0.8256,-0.8301,0.0,-0.881,-0.9064,-0.8653,-0.8374,-0.8534,-0.7935,-0.7512,-0.7512,-0.7512,-0.7512,-0.7512,-0.7512,-0.7437,-0.7213,-0.7213,-0.7213,-0.7213,-0.7213,-0.7213,-0.7213,-0.7213,-0.7213,-0.7213,-0.7213,-0.7213,-0.7213,-0.7213,-0.6814,-0.6139,-0.5657,-0.4981,-0.4083,-0.3075,-0.2572,-0.2346,-0.1818,-0.1592,-0.1592,-0.1592,-0.1592,-0.1592,0.0,0.0,0.0,0.0,0.0,0.0,0.0,0.0,0.0,0.0,-0.2705,-0.2705,0.0,0.0,0.0,0.0,0.0,0.0,0.0,0.0,0.0,-0.326,-0.3424,-0.3503,-0.3501,-0.3783,-0.3702,-0.3192,-0.3825,-0.4095,-0.4011,-0.4447,-0.465,-0.4627,-0.4423,-0.432,-0.4286,-0.3842,-0.3664,-0.3657,-0.3321,-0.3197,-0.3192,-0.3192,0.0,0.0,-0.4971,-0.51,-0.4898,-0.553,-0.5943,-0.628,-0.6716,-0.7264,-0.7784,-0.7918,-0.8097,-0.828,-0.8492,-0.8566,-0.859,-0.859,-0.859,-0.8549,-0.8395,-0.8334,0.0,-0.7955,-0.7865,-0.7845,-0.7845,-0.7869,-0.7967,-0.8265,-0.8341,-0.8548,-0.9031,-0.9003,-0.9045,0.0,-0.9278,-0.9179,-0.9179,-0.9179,0.0,0.0,-0.9179,-0.8606,-0.7263,-0.7213,-0.7213,-0.7213,-0.7213,-0.7213,-0.7213,-0.7213,-0.7213,-0.7213,-0.7213,-0.7213,-0.7213,-0.7213,-0.7113,-0.6989,-0.6886,0.0,-0.4956,-0.4304,-0.3401,-0.2346,-0.1818,-0.1592,-0.1592,-0.1592,-0.1592,-0.1592,0.0,0.0,0.0,0.0,0.0,0.0,0.0,-0.2705,-0.2705,-0.2705,-0.2705,-0.2705,-0.2705,-0.2705,-0.2705,0.0,0.0,0.0,0.0,0.0,0.0,0.0,-0.3298,-0.3401,-0.3284,-0.3833,-0.382,-0.3192,0.0,-0.4273,-0.4011,-0.4506,-0.4601,-0.4319,-0.423,-0.4033,-0.3752,-0.3487,-0.3409,-0.3414,-0.3219,-0.3168,-0.3192,0.0,0.0,0.0,-0.5319,-0.5431,-0.5299,-0.5831,-0.6101,-0.6244,-0.6498,-0.707,-0.7686,-0.7935,-0.8077,-0.8207,-0.8513,-0.859,-0.859,-0.859,-0.859,-0.8541,-0.8354,0.0,0.0,-0.7853,-0.7722,-0.7633,-0.7633,-0.7735,0.0,-0.8101,-0.8227,-0.8446,-0.8889,-0.9035,-0.9194,-0.9453,-0.9567,-0.9603,-0.9603,-0.9603,-0.9603,-0.9603,-0.9603,-0.9253,-0.8482,-0.8457,-0.8457,-0.8457,-0.8457,-0.8457,-0.8457,-0.8457,-0.8457,-0.8457,-0.8457,-0.8457,-0.8457,-0.8457,-0.8233,-0.7836,-0.7836,-0.7232,-0.6182,-0.5504,-0.4528,-0.3376,-0.2698,-0.2095,-0.1592,-0.1592,-0.1592,-0.1592,0.0,0.0,0.0,0.0,0.0,0.0,-0.2705,-0.2705,-0.2705,-0.2705,-0.2705,-0.2705,-0.2705,-0.2705,-0.2705,0.0,0.0,0.0,0.0,0.0,0.0,0.0,0.0,0.0,-0.3011,0.0,0.0,-0.3192,-0.4156,0.0,0.0,0.0,0.0,0.0,-0.401,-0.374,-0.3338,-0.3215,-0.3196,0.0,0.0,-0.3146,0.0,0.0,0.0,0.0,0.0,-0.5765,-0.5831,-0.6251,-0.6355,-0.631,-0.6362,-0.6919,-0.7625,-0.7918,-0.804,-0.8146,-0.8501,-0.859,-0.859,-0.859,-0.8558,-0.848,-0.8272,-0.8089,-0.791,-0.7756,-0.7605,-0.7503,-0.7503,-0.7621,-0.7788,0.0,-0.8134,-0.8369,-0.8741,-0.8978,-0.9185,0.0,-0.9514,0.0,-0.9603,-0.9603,0.0,-0.9603,-0.9603,-0.9603,-0.9603,-0.9603,-0.9603,-0.9603,-0.9603,-0.9603,-0.9603,-0.9603,-0.9603,-0.9603,-0.9603,-0.9603,-0.9603,-0.9603,-0.9253,-0.8655,-0.8655,-0.8209,-0.7409,-0.6653,-0.5577,-0.4329,-0.3574,-0.2597,-0.1592,-0.1592,-0.1592,-0.1592,0.0,0.0,0.0,0.0,0.0,0.0,-0.2705,-0.2705,-0.2705,-0.2705,-0.2705,-0.2705,-0.2705,-0.2705,-0.2705,0.0,0.0,0.0,0.0,0.0,0.0,0.0,0.0,0.0,0.0,0.0,0.0,-0.3192,-0.3794,0.0,0.0,0.0,0.0,0.0,0.0,-0.4493,-0.4414,-0.3937,0.0,0.0,0.0,0.0,0.0,0.0,0.0,0.0,0.0,-0.6317,-0.6334,-0.6383,-0.6516,-0.6693,-0.6868,-0.7313,-0.7812,-0.7959,-0.8134,0.0,-0.8533,-0.859,-0.859,-0.859,-0.846,-0.8268,-0.8081,0.0,-0.7771,-0.7564,-0.7515,-0.7503,-0.7503,-0.7515,-0.7638,-0.7959,-0.8008,-0.8202,-0.8724,-0.8978,-0.9185,-0.938,0.0,0.0,-0.9603,-0.9603,-0.9603,-0.9603,-0.9603,-0.9603,-0.9603,-0.9603,-0.9603,-0.9603,-0.9603,-0.9603,-0.9603,-0.9603,-0.9603,-0.9603,-0.9603,-0.9603,-0.9603,-0.9603,-0.9554,-0.948,-0.948,-0.9031,0.0,-0.7695,-0.6246,-0.4354,-0.3773,-0.2771,-0.1592,-0.1592,-0.1592,-0.1592,0.0,0.0,0.0,0.0,0.0,0.0,-0.2705,-0.2705,-0.2705,-0.2705,-0.2705,-0.2705,-0.2705,-0.2705,-0.2705,-0.2705,0.0,0.0,0.0,0.0,0.0,0.0,0.0,0.0,0.0,0.0,-0.3231,-0.3192,-0.341,0.0,0.0,0.0,0.0,0.0,0.0,-0.406,-0.3746,-0.3532,0.0,0.0,0.0,0.0,0.0,0.0,0.0,0.0,0.0,0.0,-0.6404,-0.6404,-0.6542,-0.6742,-0.6935,-0.7194,-0.7496,-0.7796,-0.7935,-0.8053,-0.8342,-0.8423,-0.8423,-0.8423,-0.8366,-0.8236,-0.7947,0.0,-0.7747,-0.754,-0.7503,-0.7503,-0.7503,-0.7503,-0.7585,-0.7837,-0.7947,-0.8109,-0.8455,-0.8844,-0.9125,-0.9217,-0.9453,0.0,0.0,0.0,-0.9603,-0.9603,-0.9603,-0.9603,-0.9603,-0.9603,-0.9603,-0.9603,-0.9603,-0.9603,-0.9603,-0.9603,-0.9603,-0.9603,-0.9603,-0.9603,-0.9603,-0.9603,-0.9603,-0.9603,-0.9603,-0.9426,0.0,-0.8726,-0.7574,-0.5974,-0.4949,-0.375,-0.2496,-0.1843,-0.1592,-0.1592,0.0,0.0,0.0,0.0,0.0,-0.2705,-0.2705,-0.2705,-0.2705,-0.2705,-0.2705,-0.2705,-0.2705,-0.2705,-0.2705,-0.2705,-0.2705,0.0,0.0,0.0,0.0,0.0,0.0,0.0,0.0,0.0,-0.306,-0.3192,-0.3192,-0.3192,0.0,0.0,-0.356,-0.3209,0.0,0.0,0.0,0.0,0.0,0.0,0.0,0.0,0.0,0.0,0.0,0.0,0.0,0.0,0.0,0.0,0.0,-0.6643,-0.684,-0.7019,-0.7228,-0.7677,-0.78,-0.7865,-0.8126,-0.8211,-0.8211,-0.8211,-0.817,-0.8089,-0.7857,0.0,-0.7682,-0.7532,-0.7503,-0.7503,-0.7503,-0.7503,-0.7564,-0.7771,-0.7902,-0.8077,-0.8264,-0.8755,-0.9096,-0.9096,0.0,-0.9603,0.0,-0.9603,-0.9603,-0.9603,-0.9603,-0.9603,-0.9603,-0.9603,-0.9603,-0.9603,-0.9603,-0.9603,-0.9603,-0.9603,-0.9603,-0.9603,-0.9603,-0.9603,-0.9603,-0.9603,-0.9603,-0.9603,-0.9603,-0.9603,0.0,-0.9406,-0.8478,-0.7095,-0.6151,-0.4726,-0.3098,-0.2346,-0.1869,-0.1592,0.0,0.0,0.0,0.0,0.0,0.0,-0.2705,-0.2705,-0.2705,-0.2705,-0.2705,-0.2705,-0.2705,-0.2705,-0.2705,-0.2705,-0.2705,0.0,0.0,0.0,0.0,0.0,0.0,0.0,0.0,0.0,-0.306,-0.3192,-0.3192,-0.3192,-0.3192,-0.3209,-0.3209,-0.3192,0.0,0.0,0.0,0.0,0.0,0.0,0.0,0.0,0.0,0.0,0.0,0.0,0.0,0.0,0.0,0.0,0.0,0.0,0.0,-0.6836,-0.7116,-0.7641,-0.78,-0.7837,-0.7967,-0.7995,-0.7995,-0.7995,-0.791,-0.7804,-0.78,-0.7638,-0.7503,-0.7503,-0.7503,-0.7503,-0.7503,-0.7503,-0.7564,-0.7771,-0.7902,-0.8077,-0.8264,-0.8755,-0.9096,0.0,0.0,-0.9603,-0.9603,-0.9603,-0.9603,-0.9603,-0.9603,0.0,-0.9603,-0.9603,-0.9603,-0.9603,-0.9603,-0.9603,-0.9603,-0.9603,-0.9603,-0.9603,-0.9603,-0.9603,-0.9603,-0.9603,-0.9603,-0.9603,-0.9603,-0.9603,0.0,-0.9603,-0.8648,-0.7198,-0.7198,-0.555,-0.3198,-0.3198,-0.2521,-0.1592,0.0,0.0,0.0,0.0,0.0,0.0,-0.2705,-0.2705,-0.2705,-0.2705,-0.2705,-0.2705,-0.2705,-0.2705,-0.2705,-0.2705,-0.2705,0.0,0.0,0.0,0.0,0.0,0.0,0.0,0.0,-0.3,-0.306,-0.3192,-0.3192,-0.3192,-0.3192,-0.3192,-0.3192,-0.3192,-0.3192,-0.3192,0.0,0.0,0.0,0.0,0.0,0.0,0.0,0.0,0.0,0.0,0.0,0.0,0.0,0.0,0.0,0.0,0.0,0.0,0.0,-0.7486,-0.7589,-0.7629,-0.7813,-0.7861,-0.7861,-0.7861,-0.7841,-0.7767,-0.7621,-0.7544,-0.7503,-0.7503,-0.7503,-0.7503,-0.7503,-0.7503,-0.7519,-0.7581,-0.7821,-0.8012,0.0,0.0,0.0,-0.9096,-0.9389,-0.9603,0.0,0.0,-0.9603,-0.9603,-0.9603,-0.9603,-0.9603,-0.9603,-0.9603,-0.9603,-0.9603,-0.9603,-0.9603,-0.9603,-0.9603,-0.9603,-0.9603,-0.9603,-0.9603,-0.9603,-0.9603,-0.9603,-0.9603,-0.9603,-0.9603,-0.9603,-0.9076,-0.8223,-0.7496,-0.6451,-0.5206,-0.3751,-0.2973,-0.2597,0.0,0.0,0.0,0.0,0.0,0.0,-0.2705,-0.2705,-0.2705,-0.2705,-0.2705,-0.2705,-0.2705,-0.2705,-0.2705,-0.2705,-0.2705,0.0,0.0,0.0,0.0,0.0,0.0,0.0,-0.2996,-0.3018,-0.3093,-0.3192,-0.3192,-0.3192,-0.3192,-0.3192,-0.3192,-0.3192,-0.3192,-0.3192,0.0,0.0,0.0,0.0,0.0,0.0,-0.5617,0.0,0.0,0.0,0.0,0.0,0.0,0.0,0.0,0.0,0.0,0.0,0.0,0.0,-0.745,-0.7528,-0.7661,-0.7694,-0.7694,-0.7694,-0.7694,0.0,-0.7528,-0.7503,-0.7503,-0.7503,-0.7503,-0.7503,-0.7503,-0.7503,-0.7524,-0.7597,-0.7825,-0.8036,0.0,0.0,0.0,-0.9283,0.0,0.0,0.0,-0.9603,-0.9603,-0.9603,-0.9603,-0.9603,-0.9603,-0.9603,-0.9603,-0.9603,-0.9603,-0.9603,-0.9603,-0.9603,-0.9603,-0.9603,-0.9603,-0.9603,-0.9603,-0.9603,-0.9603,-0.9603,-0.9603,-0.9603,0.0,-0.9603,-0.9352,-0.8886,-0.8189,-0.7406,-0.6507,-0.5095,-0.406,-0.3216,0.0,0.0,0.0,0.0,0.0,0.0,0.0,-0.2691,-0.2705,-0.2705,-0.2705,-0.2705,-0.2705,-0.2677,-0.2663,-0.2663,-0.2663,0.0,0.0,0.0,0.0,0.0,0.0,0.0,-0.2998,-0.306,-0.3136,-0.3192,-0.3192,-0.3192,-0.3192,-0.3192,-0.3192,-0.3192,-0.3192,-0.3192,-0.3209,0.0,0.0,0.0,0.0,0.0,0.0,0.0,0.0,0.0,0.0,0.0,0.0,0.0,0.0,0.0,0.0,0.0,0.0,0.0,0.0,0.0,0.0,-0.7503,-0.7503,-0.7503,-0.7503,-0.7503,-0.7503,-0.7503,0.0,-0.7503,-0.7503,-0.7503,-0.7503,-0.7511,-0.7581,-0.7771,-0.7935,-0.8097,0.0,-0.8775,0.0,0.0,-0.9603,0.0,-0.9603,-0.9603,-0.9603,-0.9603,-0.9603,-0.9603,-0.9603,-0.9603,-0.9603,-0.9603,-0.9603,-0.9603,-0.9603,-0.9603,-0.9603,-0.9603,-0.9616,-0.9624,-0.9624,-0.9636,-0.964,0.0,-0.964,-0.964,-0.964,-0.964,-0.9495,-0.9237,-0.9139,-0.8349,-0.7207,-0.6985,-0.5494,-0.3592,0.0,0.0,0.0,0.0,0.0,0.0,0.0,0.0,0.0,0.0,-0.2705,-0.2705,-0.2705,-0.2465,-0.2324,0.0,0.0,0.0,0.0,0.0,0.0,0.0,0.0,0.0,-0.2998,-0.306,-0.3136,-0.3192,-0.3192,-0.3192,-0.3192,-0.3192,-0.3192,-0.3192,-0.3192,-0.3192,-0.3226,-0.3644,0.0,0.0,0.0,0.0,0.0,0.0,0.0,0.0,-0.6404,-0.6404,0.0,0.0,0.0,0.0,0.0,0.0,0.0,0.0,-0.7471,-0.7503,-0.7503,0.0,-0.7503,-0.7503,-0.7503,-0.7503,0.0,-0.7503,-0.7503,0.0,0.0,0.0,-0.7503,-0.7617,-0.7747,-0.7792,-0.8041,-0.8292,-0.8497,0.0,0.0,-0.9575,-0.9603,-0.9603,-0.9603,-0.9603,-0.9603,-0.9603,-0.9603,-0.9603,-0.9603,-0.9603,-0.9603,-0.9603,-0.9603,-0.9603,-0.9603,-0.9603,-0.9603,-0.9603,-0.9762,-0.9823,-0.9827,-0.9999,-1.006,-1.006,-1.006,-1.006,-1.006,-1.006,-0.9909,-0.963,-0.9357,-0.8926,-0.835,-0.7279,-0.597,-0.4595,0.0,0.0,0.0,0.0,0.0,0.0,0.0,0.0,0.0,0.0,-0.2605,-0.2635,-0.2493,-0.231,-0.2155,0.0,0.0,0.0,0.0,0.0,0.0,0.0,0.0,-0.2941,-0.3047,-0.3105,-0.316,-0.3192,-0.3192,-0.3192,-0.3192,-0.3192,-0.3192,-0.3192,-0.3192,-0.3343,-0.3594,-0.3878,-0.4456,-0.5196,-0.5481,0.0,0.0,0.0,0.0,0.0,-0.6404,-0.6404,0.0,-0.6404,-0.6404,-0.6464,0.0,0.0,0.0,0.0,-0.7503,-0.7503,-0.7503,-0.7503,-0.7503,-0.7503,-0.7503,-0.7503,-0.7503,-0.7503,-0.7503,0.0,0.0,0.0,0.0,-0.7731,-0.7853,-0.7996,-0.8256,0.0,0.0,0.0,-0.9445,-0.9583,-0.9603,-0.9636,0.0,-0.9746,-0.9782,-0.9868,-0.9795,-0.9746,-0.9746,-0.9644,-0.9603,-0.9603,-0.9603,-0.9603,-0.9603,-0.968,-0.9746,-0.9746,-0.9954,-1.004,-1.004,-1.0141,-1.0186,-1.0186,-1.0186,-1.0186,-1.0186,-1.0186,-1.0112,-0.9937,-0.9538,-0.93,-0.9065,-0.8149,-0.7064,-0.5872,0.0,0.0,0.0,0.0,0.0,0.0,0.0,0.0,0.0,0.0,0.0,0.0,0.0,0.0,0.0,0.0,0.0,0.0,0.0,0.0,0.0,0.0,-0.2946,-0.3028,-0.3105,-0.3162,-0.3192,-0.3192,-0.3192,-0.3192,-0.3192,-0.3192,-0.3242,-0.3326,-0.3326,-0.3627,-0.4125,-0.4209,-0.4775,-0.56,-0.5683,0.0,0.0,0.0,0.0,0.0,0.0,0.0,0.0,-0.6404,-0.642,-0.6518,-0.6882,0.0,0.0,0.0,0.0,0.0,-0.7503,-0.7503,-0.7503,-0.7503,-0.7503,-0.7503,-0.7503,-0.7503,-0.7503,-0.7503,0.0,0.0,0.0,-0.7845,0.0,0.0,0.0,0.0,-0.9335,-0.9424,-0.9478,-0.9583,-0.9628,0.0,-0.9893,-0.9934,-1.0015,-1.02,-1.0044,-0.9954,-0.9954,-0.9762,-0.964,-0.964,-0.9616,-0.9616,-0.964,-0.9811,-0.9926,-0.9954,-1.0141,-1.0231,-1.0231,-1.0259,-1.0268,-1.0268,0.0,0.0,-1.0268,-1.0268,-1.0268,-1.0231,-0.9789,-0.96,-0.9511,-0.9109,-0.8183,-0.6899,0.0,0.0,0.0,0.0,0.0,0.0,0.0,0.0,0.0,0.0,0.0,0.0,0.0,0.0,0.0,0.0,0.0,0.0,0.0,0.0,0.0,-0.2962,-0.2992,-0.3028,-0.3105,-0.3162,-0.3192,-0.3192,-0.3192,-0.3192,-0.3192,-0.3192,-0.3443,-0.3878,-0.3878,-0.4175,-0.4702,-0.5166,-0.5451,-0.5633,-0.6099,0.0,0.0,0.0,0.0,0.0,0.0,0.0,0.0,-0.6404,-0.6505,-0.6688,-0.6922,0.0,0.0,0.0,0.0,0.0,-0.7503,-0.7503,-0.7503,-0.7503,-0.7503,-0.7503,-0.7503,-0.7503,-0.7503,-0.7503,0.0,0.0,0.0,-0.8028,-0.8248,0.0,0.0,-0.9119,0.0,0.0,-0.9571,-0.9599,0.0,-0.9855,-0.9909,-1.0052,-1.0158,-1.0212,-1.0162,-1.0145,-1.0145,-0.997,-0.9847,-0.9847,-0.968,-0.9672,-0.9843,-0.9897,-0.9991,-1.0149,-1.0306,-1.0365,-1.0369,-1.0546,-1.0611,-1.0611,0.0,-1.0611,-1.0611,-1.0611,-1.0611,-1.0588,-1.0288,-0.9995,-0.9728,-0.9423,-0.8377,-0.6791,0.0,0.0,0.0,0.0,0.0,0.0,0.0,0.0,0.0,0.0,0.0,0.0,0.0,0.0,0.0,0.0,0.0,0.0,0.0,0.0,-0.2872,-0.3053,-0.3059,-0.3086,-0.3146,-0.3189,-0.3192,-0.3192,-0.3192,-0.3192,-0.3209,-0.3493,-0.3925,-0.4436,-0.4436,-0.4735,-0.5246,-0.5497,-0.5765,-0.605,0.0,0.0,0.0,0.0,0.0,0.0,0.0,0.0,0.0,0.0,-0.6538,-0.6734,-0.6931,0.0,0.0,0.0,0.0,0.0,-0.7503,-0.7503,-0.7503,-0.7503,-0.7503,-0.7503,-0.7503,-0.7503,-0.7532,-0.7633,-0.7739,0.0,0.0,0.0,-0.8385,-0.8678,0.0,-0.9323,-0.9478,-0.9551,-0.9636,0.0,0.0,-0.9961,-1.016,-1.0262,-1.0347,-1.0467,-1.0363,-1.031,-1.031,-1.0162,-1.006,-1.006,-0.9983,-1.0002,-1.018,-1.018,-1.0225,-1.031,-1.0489,-1.0547,-1.0578,-1.0655,-1.0692,-1.0692,0.0,-1.0692,-1.0692,-1.0692,-1.0692,-1.0665,-1.039,-1.0202,-1.0009,-0.9572,-0.8432,-0.6846,0.0,0.0,0.0,0.0,0.0,0.0,0.0,0.0,0.0,0.0,0.0,0.0,0.0,0.0,0.0,0.0,0.0,0.0,0.0,-0.2731,-0.2935,-0.3101,-0.3111,-0.3154,-0.3192,-0.3192,-0.3192,-0.3192,-0.3192,-0.3259,-0.3393,-0.3942,-0.4472,-0.4981,-0.4981,-0.5282,-0.5782,-0.5782,-0.6017,-0.6404,0.0,0.0,0.0,0.0,0.0,0.0,0.0,0.0,0.0,0.0,0.0,0.0,0.0,0.0,0.0,-0.7462,-0.7503,-0.7542,-0.7729,-0.7787,-0.7787,-0.7787,-0.7638,-0.7511,-0.7556,-0.7564,-0.7621,-0.78,-0.7894,0.0,0.0,-0.8357,0.0,-0.9076,-0.9295,-0.9441,-0.9579,-0.9636,-0.9738,-0.9868,-0.9961,-1.0123,-1.0381,-1.0446,-1.0523,-1.068,-1.057,-1.0466,-1.0466,-1.0322,-1.0251,-1.0251,-1.0211,-1.0249,-1.0405,-1.0409,-1.0426,-1.047,-1.0631,-1.0692,-1.0692,-1.0692,-1.0692,-1.0692,-1.0692,-1.0692,-1.0692,-1.0692,-1.0692,-1.0692,-1.0476,-1.0312,-1.0119,-0.9599,-0.8432,-0.6985,0.0,0.0,0.0,0.0,0.0,0.0,0.0,0.0,0.0,0.0,0.0,0.0,0.0,0.0,0.0,0.0,0.0,0.0,0.0,-0.2965,-0.3093,-0.3105,-0.3154,-0.3186,-0.3192,-0.3192,-0.3192,-0.3192,-0.3192,-0.346,-0.3961,-0.4486,-0.5034,-0.555,-0.555,-0.5831,-0.6334,-0.6334,-0.6367,-0.6404,-0.6404,0.0,0.0,0.0,0.0,0.0,0.0,0.0,0.0,0.0,0.0,0.0,0.0,0.0,-0.7487,-0.7499,-0.7503,-0.7653,-0.8418,-0.8604,-0.8604,-0.8604,-0.8055,-0.7548,-0.7739,-0.778,-0.7809,-0.7959,-0.8134,-0.826,0.0,-0.856,-0.8905,-0.9299,-0.9396,-0.9441,-0.9579,0.0,-0.9872,-0.9909,-1.0162,-1.0377,-1.0405,-1.0582,-1.068,-1.0692,-1.068,-1.0672,-1.0672,-1.0482,-1.0389,-1.0389,-1.0249,-1.0249,-1.0405,-1.0409,-1.0486,-1.0672,-1.0684,-1.0692,-1.0692,-1.0692,-1.0692,-1.0692,-1.0692,-1.0692,-1.0692,-1.0692,-1.0692,-1.0692,-1.0692,-1.0335,-0.9789,-0.9517,-0.8432,-0.7096,0.0,0.0,0.0,0.0,0.0,0.0,0.0,0.0,0.0,0.0,0.0,0.0,0.0,0.0,0.0,0.0,0.0,0.0,0.0,-0.3054,-0.3115,-0.3156,-0.3191,-0.3192,-0.3192,-0.3192,-0.3192,-0.3192,-0.3527,-0.4142,-0.5004,-0.52,-0.558,-0.6099,-0.6099,-0.6218,-0.6404,-0.6404,-0.6404,-0.6404,-0.6404,-0.6404,0.0,0.0,0.0,0.0,0.0,0.0,0.0,0.0,-0.6893,-0.7135,-0.7185,-0.7342,-0.7503,-0.7503,-0.7844,-0.8322,-0.8627,-0.8703,-0.8732,-0.8855,-0.8273,-0.771,-0.7784,-0.8319,-0.8672,-0.8271,-0.8773,-0.9196,0.0,0.0,-0.9221,-0.938,-0.9474,-0.9547,-0.9591,-0.9774,-0.9954,-1.0068,-1.0282,-1.045,-1.0559,-1.0655,-1.0692,-1.0692,-1.0692,-1.0692,-1.0692,-1.0631,-1.0595,-1.0595,-1.053,-1.0553,-1.0595,-1.0595,-1.0627,-1.0692,-1.0692,-1.0692,-1.0692,-1.0692,-1.0692,-1.0692,-1.0692,-1.0692,-1.0692,-1.0692,-1.0692,-1.0692,-1.0692,-1.0445,-1.0064,-0.9761,-0.9178,-0.8405,0.0,0.0,0.0,0.0,0.0,0.0,0.0,0.0,0.0,0.0,0.0,0.0,0.0,0.0,0.0,0.0,0.0,0.0,-0.3103,-0.3117,-0.3146,-0.319,-0.3192,-0.3192,-0.3192,-0.336,-0.346,-0.346,-0.4159,-0.4913,-0.5691,-0.5875,-0.6174,-0.6587,-0.6587,-0.6587,-0.6587,-0.6587,-0.6587,-0.6587,-0.6587,-0.6587,0.0,0.0,0.0,0.0,0.0,0.0,0.0,0.0,-0.7017,-0.7218,-0.727,-0.7387,-0.7542,-0.7806,-0.8093,-0.8432,-0.8941,-0.9074,-0.9128,-0.9355,-0.9231,-0.9009,-0.8853,-0.917,-0.9467,-0.9408,-1.0059,-1.0428,-0.9794,0.0,0.0,0.0,-0.9547,-0.9624,-0.9676,-0.986,-1.0064,-1.0251,-1.0408,-1.0562,-1.068,-1.0692,-1.0692,-1.0692,-1.0692,-1.0692,-1.0692,-1.0692,-1.0692,-1.0692,-1.0692,-1.0692,-1.0692,-1.0692,-1.0692,-1.0692,-1.0692,-1.0692,-1.0692,-1.0692,-1.0692,-1.0692,-1.0692,-1.0692,-1.0692,-1.0692,-1.0692,-1.0692,-1.0692,-1.0527,-1.0257,-0.9926,-0.9623,-0.9241,0.0,0.0,0.0,0.0,0.0,0.0,0.0,0.0,0.0,0.0,0.0,0.0,0.0,0.0,0.0,0.0,0.0,0.0,-0.3107,-0.316,-0.3192,-0.3192,-0.3192,-0.3209,-0.3211,-0.3746,-0.4014,-0.4014,-0.509,-0.5702,-0.5931,-0.6457,-0.6812,-0.7006,-0.7006,-0.7006,-0.7006,-0.7006,-0.7006,-0.7006,-0.7006,-0.7006,-0.7006,0.0,0.0,0.0,0.0,0.0,0.0,0.0,-0.721,-0.7238,-0.7431,-0.7503,-0.7653,-0.8475,-0.815,-0.7878,-0.948,-0.9914,-0.9973,-1.0244,-1.1053,-1.1658,-1.1141,-1.0344,-1.0136,-1.1525,-1.2029,-1.1941,-1.1071,-1.0901,0.0,-0.9743,-0.9603,-0.9664,-0.986,-1.0072,-1.0255,-1.0385,-1.0586,-1.0692,-1.0692,-1.0692,-1.0692,-1.0692,-1.0692,-1.0692,-1.0692,-1.0692,-1.0692,-1.0692,-1.0692,-1.0692,-1.0692,-1.0692,-1.0692,-1.0692,-1.0692,-1.0692,-1.0692,-1.0692,-1.0692,-1.0692,-1.0692,-1.0692,-1.0692,-1.0692,-1.0692,-1.0692,-1.0692,-1.0527,-1.0257,-0.9926,-0.9623,-0.9351,0.0,0.0,0.0,0.0,0.0,0.0,0.0,0.0,0.0,0.0,0.0,0.0,0.0,0.0,0.0,0.0,0.0,0.0,-0.3168,-0.3195,-0.3192,-0.3192,-0.3192,-0.344,-0.3966,-0.5001,-0.5477,-0.5344,-0.5804,-0.6253,-0.6677,-0.6836,-0.6935,-0.7006,-0.7006,-0.7006,-0.7006,-0.7006,-0.7006,-0.7006,-0.7006,-0.7006,-0.7006,0.0,0.0,0.0,0.0,0.0,0.0,0.0,0.0,0.0,-0.7483,-0.7503,-0.7653,-0.8475,-0.8941,-0.9405,-1.0464,-1.0879,-1.1078,-1.1301,-1.1295,-1.144,-1.2297,-1.2272,-1.23,-1.3054,-1.2777,-1.2151,-1.126,-1.1104,0.0,-0.9764,-0.9603,-0.9664,-0.986,-1.0072,-1.0255,-1.0385,-1.0586,-1.0692,-1.0692,-1.0692,-1.0692,-1.0692,-1.0692,-1.0692,-1.0692,-1.0692,-1.0692,-1.0692,-1.0692,-1.0692,-1.0692,-1.0692,-1.0692,-1.0692,-1.0692,-1.0692,-1.0692,-1.0692,-1.0692,-1.0692,-1.0692,-1.0692,-1.0692,-1.0692,-1.0692,-1.0692,-1.05,-1.05,-1.0527,-0.9981,-0.9761,-0.9651,0.0,0.0,0.0,0.0,0.0,0.0,0.0,0.0,0.0,0.0,-0.2698,-0.2877,0.0,0.0,0.0,0.0,0.0,0.0,-0.3192,-0.3393,-0.351,-0.351,-0.3799,-0.4297,-0.5044,-0.586,-0.6317,-0.6421,-0.6483,-0.6715,-0.708,-0.708,-0.7116,-0.72,-0.72,-0.72,-0.72,-0.72,-0.72,-0.72,-0.72,-0.72,-0.72,0.0,0.0,0.0,0.0,0.0,0.0,0.0,0.0,0.0,-0.7503,-0.7714,-0.8074,-0.8551,-0.9036,-0.9599,-1.0408,-1.0817,-1.1169,-1.1742,-1.1965,-1.2359,-1.3577,-1.3948,0.0,0.0,-1.4101,-1.3536,-1.2608,-1.2441,0.0,-1.1008,-1.0498,-1.0471,-1.1192,-1.0651,-1.0464,-1.1116,-1.0895,-1.0692,-1.0692,-1.0692,-1.0692,-1.0692,-1.0692,-1.0692,-1.0692,-1.0692,-1.0692,-1.0692,-1.0692,-1.0692,-1.0692,-1.0692,-1.0692,-1.0692,-1.0692,-1.0692,-1.0692,-1.0692,-1.0692,-1.0692,-1.0692,-1.0692,-1.0692,-1.0692,-1.0692,-1.0692,-1.0527,-1.05,-1.05,-1.0119,-0.9844,-0.9627,0.0,0.0,0.0,0.0,0.0,0.0,0.0,0.0,0.0,0.0,-0.3006,-0.3192,0.0,0.0,0.0,0.0,0.0,0.0,0.0,-0.3778,-0.4083,-0.4093,-0.4812,-0.5537,-0.6208,-0.6408,-0.6738,-0.723,-0.71,-0.7104,-0.723,-0.723,-0.7334,-0.7503,-0.7503,-0.7503,-0.7503,-0.7503,-0.7503,-0.7503,-0.7503,-0.7503,-0.7503,-0.7503,0.0,0.0,0.0,0.0,0.0,0.0,0.0,0.0,-0.758,-0.8112,-0.8718,-0.887,-0.887,-0.8998,-0.9876,-1.0289,-1.0723,-1.1842,-1.2927,-1.3954,-1.4805,-1.5233,-1.5438,-1.5438,0.0,-1.5493,-1.449,-1.4298,-1.3956,-1.2877,-1.1926,-1.1811,-1.32,-1.1726,-1.0971,-1.2257,-1.15,-1.0802,-1.0719,-1.0692,-1.0692,-1.0692,-1.0692,-1.0692,-1.0692,-1.0692,-1.0692,-1.0692,-1.0692,-1.0692,-1.0692,-1.0692,-1.0692,-1.0692,-1.0692,-1.0692,-1.0692,-1.0692,-1.0692,-1.0692,-1.0692,-1.0692,-1.0692,-1.0692,-1.0692,-1.0692,-1.0665,-1.05,-1.0312,-1.0312,-0.9926,-0.9434,0.0,0.0,0.0,0.0,0.0,0.0,0.0,0.0,0.0,0.0,0.0,0.0,0.0,0.0,0.0,0.0,0.0,0.0,0.0,-0.4323,-0.4699,-0.4854,-0.5679,-0.6199,-0.6345,-0.6953,-0.7313,-0.7427,-0.7405,-0.741,-0.7427,-0.7427,-0.7467,-0.7503,-0.7503,-0.7503,-0.7503,-0.7503,-0.7503,-0.7503,-0.7503,-0.7503,-0.7503,-0.7503,-0.7503,0.0,0.0,0.0,0.0,0.0,0.0,0.0,-0.8246,-0.8566,-0.8946,-1.0207,-1.0145,-0.9951,-1.1397,-1.1718,-1.1849,-1.2724,-1.3822,-1.4752,-1.4939,-1.5364,-1.5708,-1.5708,-1.5761,-1.5493,-1.449,-1.4298,-1.3956,-1.2877,-1.2509,-1.2624,-1.3302,-1.3007,-1.2633,-1.2419,-1.2173,-1.1687,-1.0798,-1.0692,-1.0692,-1.0692,-1.0692,-1.0692,-1.0692,-1.0692,-1.0692,-1.0692,-1.0692,-1.0692,-1.0692,-1.0692,-1.0692,-1.0692,-1.0692,-1.0692,-1.0692,-1.0692,-1.0692,-1.0692,-1.0692,-1.0692,-1.0692,-1.0692,-1.0692,-1.0692,-1.0476,-1.0339,-1.0312,-1.0312,-1.0064,-0.9706,0.0,0.0,0.0,0.0,0.0,0.0,0.0,0.0,0.0,0.0,0.0,0.0,0.0,0.0,0.0,0.0,0.0,0.0,0.0,0.0,-0.5665,-0.609,-0.6551,-0.6828,-0.6927,-0.7302,-0.7503,-0.7503,-0.7503,-0.7503,-0.7503,-0.7503,-0.7503,-0.7503,-0.7503,-0.7503,-0.7503,-0.7503,-0.7503,-0.7503,-0.7503,-0.7503,-0.7503,-0.7503,-0.7503,-0.7503,-0.7503,0.0,0.0,0.0,0.0,0.0,0.0,0.0,-0.9358,-0.9811,-1.0207,-1.0651,-1.1502,-1.1864,-1.2269,-1.3351,0.0,-1.5008,-1.5008,-1.5411,-1.5808,-1.5808,-1.5808,-1.5635,-1.5112,-1.5016,-1.4843,-1.428,-1.3776,-1.381,-1.4847,-1.4081,-1.3563,-1.403,-1.3085,-1.2173,-1.1582,-1.1017,-1.0692,-1.0692,-1.0692,-1.0692,-1.0692,-1.0692,-1.0692,-1.0692,-1.0692,-1.0692,-1.0692,-1.0692,-1.0692,-1.0692,-1.0692,-1.0692,-1.0692,-1.0692,-1.0692,-1.0692,-1.0692,-1.0692,-1.0692,-1.0692,-1.0692,-1.0692,-1.0555,-1.0308,-1.0091,-1.0229,-1.0009,-0.9596,0.0,0.0,0.0,0.0,0.0,0.0,0.0,0.0,0.0,0.0,0.0,0.0,0.0,0.0,0.0,0.0,0.0,0.0,0.0,0.0,0.0,-0.7183,-0.7234,-0.7338,-0.7499,-0.7503,-0.7503,-0.7503,-0.7503,-0.7503,-0.7503,-0.7503,-0.7503,-0.7503,-0.7503,-0.7503,-0.7503,-0.7503,-0.7503,-0.7503,-0.7503,-0.7503,-0.7503,-0.7503,-0.7503,-0.7503,-0.7503,-0.7503,-0.7503,-0.7503,0.0,0.0,0.0,0.0,-0.9618,-0.9226,-0.9962,-1.0919,-1.1055,-1.1639,-1.2498,-1.3788,-1.4551,0.0,-1.5008,-1.5411,-1.5808,-1.5808,-1.5808,-1.5808,-1.5808,-1.5808,-1.5808,-1.5808,-1.5112,-1.5049,-1.6429,-1.5097,-1.443,-1.5682,-1.4142,-1.2928,-1.2711,-1.1664,-1.0989,-1.0989,-1.0802,-1.0692,-1.0692,-1.0692,-1.0692,-1.0692,-1.0692,-1.0692,-1.0692,-1.0692,-1.0692,-1.0692,-1.0692,-1.0692,-1.0692,-1.0692,-1.0692,-1.0692,-1.0692,-1.0692,-1.0692,-1.0692,-1.0692,-1.0692,-1.0692,-1.0363,-0.9926,-1.0202,-0.9954,-0.9461,0.0,0.0,0.0,0.0,0.0,0.0,0.0,0.0,0.0,0.0,-0.3064,-0.3211,0.0,0.0,0.0,0.0,0.0,0.0,0.0,0.0,0.0,-0.7187,-0.737,-0.7479,-0.7503,-0.7503,-0.7503,-0.7503,-0.7503,-0.7503,-0.7503,-0.7503,-0.7503,-0.7503,-0.7503,-0.7503,-0.7503,-0.7503,-0.7503,-0.7503,-0.7503,-0.7503,-0.7503,-0.7503,-0.7503,-0.7503,-0.7503,-0.7503,-0.7503,-0.7503,-0.7503,0.0,0.0,0.0,-0.9112,-1.0395,-1.0445,-1.0214,-1.09,-1.2049,-1.3207,-1.3914,-1.4551,-1.5008,0.0,0.0,-1.5808,0.0,-1.5808,-1.5808,-1.5808,-1.5808,-1.5808,-1.5808,-1.5689,-1.5778,-1.6286,-1.6298,-1.6056,-1.5533,-1.5452,-1.5022,-1.3976,-1.2847,-1.2173,-1.2173,-1.1259,-1.0692,-1.0692,-1.0692,-1.0692,-1.0692,-1.0692,-1.0692,-1.0692,-1.0692,-1.0692,-1.0692,-1.0692,-1.0692,-1.0692,-1.0692,-1.0692,-1.0692,-1.0692,-1.0692,-1.0692,-1.0692,-1.0692,-1.0692,-1.0692,-1.05,-1.0229,-1.0284,-1.0064,-0.9761,0.0,0.0,0.0,0.0,0.0,0.0,0.0,0.0,0.0,0.0,0.0,-0.4018,0.0,0.0,0.0,0.0,0.0,0.0,0.0,0.0,0.0,-0.737,-0.7462,-0.7503,-0.7503,-0.7503,-0.7503,-0.7503,-0.7503,-0.7503,-0.7503,-0.7503,-0.7503,-0.7503,-0.7503,-0.7503,-0.7503,-0.7503,-0.7503,-0.7503,-0.7503,-0.7503,-0.7503,-0.7503,-0.7503,-0.7503,-0.7503,-0.7503,-0.7503,-0.7503,-0.7503,-0.7633,-0.8332,0.0,0.0,0.0,-0.9825,-1.0143,-1.1294,-1.2387,-1.3333,0.0,-1.4551,-1.5008,-1.5008,-1.5411,-1.5808,-1.5808,-1.5808,-1.5808,-1.5808,-1.5808,-1.5808,-1.5808,-1.5808,-1.5908,-1.6257,-1.6404,-1.6452,-1.6407,-1.5937,-1.5481,-1.5144,-1.3464,-1.239,-1.239,-1.1341,-1.0692,-1.0692,-1.0692,-1.0692,-1.0692,-1.0692,-1.0692,-1.0692,-1.0692,-1.0692,-1.0692,-1.0692,-1.0692,-1.0692,-1.0692,-1.0692,-1.0692,-1.0692,-1.0692,-1.0692,-1.0692,-1.0692,-1.0692,-1.0692,-1.0527,-1.0284,-1.0091,-0.9926,-0.9761,0.0,0.0,0.0,0.0,0.0,0.0,0.0,0.0,0.0,0.0,0.0,0.0,0.0,0.0,0.0,0.0,0.0,0.0,0.0,0.0,0.0,-0.7503,-0.7503,-0.7503,-0.7503,-0.7503,-0.7503,-0.7503,-0.7503,-0.7503,-0.7503,-0.7503,-0.7503,-0.7503,-0.7503,-0.7503,-0.7503,-0.7503,-0.7503,-0.7503,-0.7503,-0.7503,-0.7503,-0.7503,-0.7503,-0.7503,-0.7503,-0.7503,-0.7503,-0.7503,-0.7503,-0.7542,-0.7748,-0.8074,0.0,0.0,0.0,-1.0206,-1.1619,-1.2592,-1.3333,-1.3941,-1.4497,-1.4892,0.0,0.0,-1.5715,0.0,-1.5808,-1.5808,-1.5808,-1.5808,-1.5808,-1.5808,-1.5808,-1.5881,-1.6126,-1.625,-1.6464,-1.6924,-1.6234,-1.5833,-1.609,-1.4013,-1.2683,-1.2732,-1.1431,-1.0643,-1.0688,-1.0692,-1.0692,-1.0692,-1.0692,-1.0692,-1.0692,-1.0692,-1.0692,-1.0692,-1.0692,-1.0692,-1.0692,-1.0692,-1.0692,-1.0692,-1.0692,-1.0692,-1.0692,-1.0692,-1.0692,-1.0692,-1.0692,-1.0582,-1.0335,-0.9954,-0.9789,-0.9734,0.0,0.0,0.0,0.0,0.0,0.0,0.0,0.0,0.0,0.0,0.0,0.0,-0.6425,-0.6538,-0.6785,-0.7379,-0.7445,0.0,0.0,0.0,0.0,-0.7503,-0.7503,0.0,-0.7503,-0.7503,-0.7503,-0.7503,-0.7503,-0.7503,-0.7503,-0.7503,-0.7503,-0.7503,-0.7503,-0.7503,-0.7503,-0.7503,-0.7503,-0.7503,-0.7503,-0.7503,-0.7503,-0.7503,-0.7503,-0.7503,-0.7503,-0.7503,-0.7503,-0.7503,-0.7503,-0.7638,-0.8399,-0.815,-0.771,0.0,0.0,0.0,-1.1619,-1.2592,0.0,-1.3941,-1.4315,-1.4616,0.0,0.0,-1.5498,-1.5748,-1.5808,-1.5808,-1.5808,-1.5808,-1.5808,-1.5808,-1.5808,-1.5808,-1.5828,-1.6092,-1.631,-1.6337,-1.651,-1.6633,-1.6647,-1.4655,-1.3443,-1.363,-1.1629,-1.0494,-1.0684,-1.0692,-1.0692,-1.0692,-1.0692,-1.0692,-1.0692,-1.0692,-1.0692,-1.0692,-1.0692,-1.0692,-1.0692,-1.0692,-1.0692,-1.0692,-1.0692,-1.0692,-1.0692,-1.0692,-1.0692,-1.0692,-1.0692,-1.0692,-1.061,-1.0005,-0.9789,-0.9761,0.0,0.0,0.0,0.0,0.0,0.0,0.0,0.0,0.0,0.0,0.0,0.0,0.0,-0.7176,-0.7273,-0.748,-0.7503,0.0,0.0,0.0,0.0,-0.7503,-0.7503,-0.7503,-0.7503,-0.7503,-0.7503,-0.7503,-0.7503,-0.7503,-0.7503,-0.7503,-0.7503,-0.7503,-0.7503,-0.7503,-0.7503,-0.7503,-0.7503,-0.7503,-0.7503,-0.7503,-0.7503,-0.7503,-0.7503,-0.7503,0.0,0.0,0.0,0.0,0.0,0.0,-0.7844,-0.7729,-0.7561,-0.7844,-0.886,-1.006,-1.0737,0.0,0.0,-1.368,-1.3687,-1.3786,-1.4518,-1.4585,-1.4693,-1.5391,-1.5675,-1.5808,-1.5808,-1.5808,-1.5808,-1.5808,-1.5808,-1.5808,-1.5808,-1.5895,-1.6059,-1.6277,-1.6384,-1.65,-1.6687,-1.5323,-1.4166,-1.3561,-1.2099,-1.0993,-1.04,-1.0377,-1.0377,-1.0377,-1.0465,-1.0582,-1.0688,-1.0692,-1.0692,-1.0692,-1.0692,-1.0692,-1.0692,-1.0692,-1.0692,-1.0692,-1.0692,-1.0692,-1.0692,-1.0692,-1.0692,-1.0692,-1.0692,-1.0692,-1.0637,-1.0253,-0.9981,-0.9761,0.0,0.0,0.0,0.0,0.0,0.0,0.0,0.0,0.0,-0.6849,0.0,0.0,0.0,0.0,-0.7503,-0.7503,-0.7503,-0.7503,-0.7503,-0.7503,-0.7503,-0.7503,-0.7503,-0.7503,-0.7503,-0.7503,-0.7503,-0.7503,-0.7503,-0.7503,-0.7503,-0.7503,-0.7503,-0.7503,-0.7503,-0.7503,-0.7503,-0.7503,-0.7503,-0.7503,-0.7503,-0.754,-0.7597,-0.7597,-0.7629,0.0,0.0,0.0,0.0,0.0,0.0,0.0,-0.7597,-0.7552,-0.7503,-0.7503,-0.8447,-0.9642,-1.0297,0.0,0.0,0.0,-1.361,-1.3538,-1.3939,-1.3868,-1.3929,-1.4768,-1.5071,-1.5328,-1.5741,-1.5808,-1.5808,-1.5808,-1.5808,-1.5808,-1.5808,-1.5808,-1.5881,-1.6099,-1.6126,-1.6199,-1.6393,-1.5413,-1.4498,-1.385,-1.2771,0.0,-1.126,-1.0906,-1.0551,-1.0216,-1.0339,-1.0462,-1.0603,-1.0664,-1.0692,-1.0692,-1.0692,-1.0692,-1.0692,-1.0692,-1.0692,-1.0692,-1.0692,-1.0692,-1.0692,-1.0692,-1.0692,-1.0692,-1.0692,-1.0692,-1.0665,-1.0394,-1.0091,-0.9761,0.0,0.0,0.0,0.0,0.0,0.0,0.0,0.0,-0.7503,-0.7503,0.0,0.0,0.0,0.0,0.0,-0.7503,-0.7503,-0.7503,-0.7503,-0.7503,-0.7503,-0.7503,0.0,0.0,-0.7503,-0.7503,-0.7503,-0.7503,-0.7503,-0.7503,-0.7503,-0.7503,-0.7503,-0.7511,-0.7511,-0.7511,-0.7515,-0.7507,-0.7503,-0.7511,-0.7511,-0.7621,-0.7808,-0.7808,0.0,0.0,-0.7991,-0.7991,0.0,-0.7991,0.0,0.0,-0.7808,-0.7662,-0.7515,-0.7511,-0.8087,-0.9014,0.0,0.0,0.0,0.0,0.0,0.0,-1.3221,0.0,-1.3191,-1.3801,-1.3969,-1.4364,-1.5522,-1.5778,-1.5808,-1.5808,-1.5808,-1.5808,-1.5808,-1.5808,-1.5808,-1.5808,-1.5808,-1.5808,-1.5808,-1.4921,-1.4401,-1.4525,-1.3579,-1.3059,-1.3175,-1.2196,-1.1178,-1.023,-1.0327,-1.0397,-1.0409,-1.0599,-1.0688,-1.0692,-1.0692,-1.0692,-1.0692,-1.0692,-1.0692,-1.0692,-1.0692,-1.0692,-1.0692,-1.0692,-1.0692,-1.0692,-1.0692,-1.0692,-1.0665,-1.0417,-1.0091,-0.9789,0.0,0.0,0.0,0.0,0.0,-0.7311,-0.7484,-0.7503,-0.7503,0.0,0.0,0.0,-0.7503,-0.7503,-0.7503,-0.7503,-0.7503,-0.7503,-0.7503,-0.7503,-0.7503,-0.7503,-0.7503,-0.7503,-0.7503,-0.7503,-0.7503,-0.7503,-0.7503,-0.7503,-0.7503,-0.7503,-0.7576,-0.7722,-0.7722,-0.7772,-0.7849,-0.7609,-0.7581,-0.7722,-0.7722,-0.7809,0.0,0.0,0.0,0.0,0.0,-0.7991,-0.7991,0.0,-0.7979,-0.7943,0.0,-0.7906,-0.7841,-0.7739,-0.8365,0.0,-0.9414,0.0,0.0,0.0,0.0,0.0,0.0,0.0,-1.138,-1.2226,-1.325,-1.4098,-1.4429,-1.5207,-1.5808,-1.5808,-1.5808,-1.5808,-1.5808,-1.5808,-1.5808,-1.5808,-1.5808,-1.5808,-1.5808,-1.554,-1.4772,0.0,-1.2951,-1.215,-1.0712,-1.0342,-1.0134,-0.9983,-1.001,-1.0138,-1.0405,-1.0454,-1.0566,-1.0692,-1.0692,-1.0692,-1.0692,-1.0692,-1.0692,-1.0692,-1.0692,-1.0692,-1.0692,-1.0692,-1.0692,-1.0692,-1.0692,-1.0692,-1.0692,-1.061,-1.0417,-1.0119,0.0,0.0,0.0,0.0,0.0,-0.7503,-0.7503,-0.7503,-0.7503,0.0,0.0,0.0,-0.7503,-0.7503,-0.7503,-0.7503,-0.7503,-0.7503,-0.7503,-0.7503,-0.7503,-0.7503,-0.7503,-0.7503,-0.7503,-0.7503,-0.754,-0.7617,-0.7617,-0.7654,-0.7703,-0.7703,-0.778,-0.7886,-0.7886,-0.7918,-0.7979,-0.7793,-0.7768,-0.7886,-0.7886,0.0,0.0,-0.813,-0.8178,0.0,0.0,0.0,-0.8243,-0.8243,-0.8191,0.0,0.0,0.0,0.0,-0.7914,0.0,0.0,0.0,0.0,0.0,0.0,0.0,0.0,-1.137,-1.0846,-1.0393,0.0,-1.1898,-1.2676,-1.3275,-1.3955,-1.4432,-1.4501,-1.4519,-1.4813,-1.5683,-1.5808,-1.5808,-1.5808,-1.5421,-1.535,-1.5754,-1.5421,-1.4669,-1.3463,-1.3366,-1.2465,-1.0375,-1.0281,-1.0111,-0.9774,-0.9847,-1.0026,-1.0318,-1.0369,-1.0494,-1.0692,-1.0692,-1.0692,-1.0692,-1.0692,-1.0692,-1.0692,-1.0692,-1.0692,-1.0692,-1.0692,-1.0692,-1.0692,-1.0692,-1.0692,-1.0692,-1.0692,-1.0445,-1.0064,0.0,0.0,-0.7503,-0.7503,-0.7503,-0.7503,-0.7503,-0.7503,-0.7503,0.0,-0.7503,-0.7511,-0.7532,-0.7532,-0.754,-0.756,-0.756,-0.756,-0.756,-0.756,-0.756,-0.756,-0.756,-0.756,-0.756,-0.756,-0.7642,-0.7829,-0.7829,-0.7886,-0.7991,-0.7991,-0.8003,-0.8044,-0.8044,-0.8057,-0.8077,-0.8176,-0.8156,-0.8073,-0.8052,-0.8154,0.0,0.0,-0.8472,-0.8623,-0.8639,-0.8647,-0.8647,-0.8647,-0.8525,0.0,0.0,0.0,0.0,0.0,-0.8057,0.0,0.0,0.0,0.0,0.0,0.0,0.0,-1.0072,-0.9816,-0.985,0.0,-1.0311,-1.0769,-1.2035,-1.2388,-1.2503,-1.2651,-1.2689,-1.3327,-1.5194,-1.5564,-1.5588,-1.5469,-1.4777,-1.4604,-1.5374,-1.4651,-1.4076,-1.3956,-1.3859,-1.298,-1.1126,-1.1028,-1.0592,-0.9628,-0.9774,-0.997,-1.0158,-1.0314,-1.0493,-1.0664,-1.0684,-1.0692,-1.0692,-1.0692,-1.0692,-1.0692,-1.0692,-1.0692,-1.0692,-1.0692,-1.0692,-1.0692,-1.0692,-1.0692,-1.0692,-1.0692,-1.0363,-0.9899,0.0,-0.7503,-0.7503,-0.7503,-0.7503,-0.7503,-0.7503,-0.7503,-0.7503,-0.7503,-0.7503,-0.756,-0.7731,-0.7747,-0.778,-0.7898,-0.791,-0.791,-0.791,-0.791,-0.791,-0.791,-0.791,-0.791,-0.791,-0.791,-0.7927,-0.7963,-0.7963,-0.7979,-0.7991,-0.7991,-0.8093,-0.8235,-0.8235,-0.8342,-0.8524,-0.9225,-0.9121,-0.8468,-0.8296,-0.837,-0.8549,-0.8666,-0.8716,-0.8792,-0.8942,-0.8995,-0.8995,-0.8995,-0.8869,-0.8688,0.0,0.0,0.0,-0.828,0.0,0.0,0.0,0.0,0.0,0.0,0.0,0.0,-0.9772,-0.9367,-0.888,0.0,-0.9722,-1.0484,-1.0765,-1.1603,-1.2311,-1.2522,-1.2536,-1.272,-1.323,-1.4046,-1.4262,-1.3409,-1.3902,-1.4052,-1.336,-1.3143,-1.2684,-1.1877,-1.1008,-1.0335,-0.9941,-0.9916,-0.9821,-0.9603,-0.9636,-0.9762,-0.9962,-1.0149,-1.0306,-1.0458,-1.0627,-1.0692,-1.0692,-1.0692,-1.0692,-1.0692,-1.0692,-1.0692,-1.0692,-1.0692,-1.0692,-1.0692,-1.0692,-1.0692,-1.0692,-1.0692,-1.0637,-1.0445,-0.7503,-0.7503,-0.7503,-0.7503,-0.7503,-0.7503,-0.7503,-0.7581,-0.7642,-0.7642,-0.7715,-0.778,-0.7894,-0.7906,-0.7918,-0.7983,-0.7991,-0.7991,-0.7991,-0.7991,-0.7991,-0.7991,-0.7991,-0.7991,-0.7991,-0.7991,-0.8057,-0.815,-0.815,-0.8199,-0.8292,-0.8292,-0.8362,-0.8452,-0.8452,-0.8501,-0.8634,-0.9065,-0.9028,-0.8722,-0.8992,0.0,-0.8702,-0.8765,-0.8854,-0.897,-0.9064,-0.9096,-0.9096,-0.9096,-0.9035,0.0,0.0,-0.8836,-0.8674,0.0,-0.8582,-0.857,0.0,0.0,0.0,-0.9148,0.0,0.0,0.0,-0.8911,-0.859,-0.859,-0.9076,-0.9518,-0.9588,-1.0112,-1.0562,-1.0772,-1.0805,-1.082,-1.0906,-1.2395,-1.3294,-1.2751,-1.2732,-1.2732,-1.2702,-1.2242,-1.1731,-1.1243,-1.0207,-0.9603,-0.9603,-0.9603,-0.9603,-0.9603,-0.9603,-0.9684,-0.9909,-1.0092,-1.028,-1.0409,-1.0611,-1.0692,-1.0692,-1.0692,-1.0692,-1.0692,-1.0692,-1.0692,-1.0692,-1.0692,-1.0692,-1.0692,-1.0692,-1.0692,-1.0692,-1.0692,-1.05,-1.0198,-0.7515,-0.7532,-0.7556,-0.7556,-0.7585,-0.7605,-0.7605,-0.7731,-0.7849,-0.7849,-0.7927,-0.8003,-0.8061,-0.8065,-0.8081,-0.8117,-0.8117,-0.8117,-0.8117,-0.8117,-0.8117,-0.8117,-0.8117,-0.8117,-0.8117,-0.8117,-0.8195,-0.8366,-0.8366,-0.8444,-0.859,-0.859,-0.859,-0.8612,-0.8784,-0.8762,-0.8634,-0.9015,0.0,-0.9169,0.0,-0.9544,-0.8877,-0.9115,-0.9315,-0.9454,-0.9487,-0.9363,-0.9198,-0.9198,-0.9177,-0.9145,-0.9145,-0.9019,0.0,0.0,0.0,0.0,0.0,0.0,0.0,0.0,0.0,-0.859,0.0,0.0,0.0,-0.859,-0.859,0.0,0.0,0.0,0.0,0.0,0.0,0.0,0.0,-1.0754,0.0,-1.2054,-1.156,-1.1439,-1.2052,-1.137,-1.0886,-1.0886,-1.0088,-0.9603,-0.9603,-0.9603,-0.9603,-0.9603,-0.9603,-0.9668,-0.9835,-1.008,-1.0263,-1.0357,-1.0595,-1.0692,-1.0692,-1.0692,-1.0692,-1.0692,-1.0692,-1.0692,-1.0692,-1.0692,-1.0692,-1.0692,-1.0692,-1.0692,-1.0692,-1.0692,-1.0363,-0.9899,-0.7564,-0.7633,-0.7767,-0.7767,-0.7874,-0.7935,-0.7935,-0.7971,-0.7983,-0.7983,-0.8,-0.8073,-0.8239,-0.826,-0.8346,-0.8513,-0.8525,-0.8525,-0.8525,-0.8525,-0.8525,-0.8525,-0.8525,-0.8525,-0.8525,-0.8525,-0.8537,-0.8558,-0.8558,-0.857,-0.859,-0.859,-0.859,-0.8634,-0.9406,-0.9323,-0.8708,-1.0512,-1.0872,0.0,-1.0364,-0.9896,0.0,-1.0241,-1.0674,-1.072,-1.0897,-1.0358,-0.9543,0.0,-0.9458,-0.9371,0.0,-0.9229,-0.9064,-0.9064,0.0,0.0,0.0,0.0,0.0,0.0,-0.8678,0.0,0.0,0.0,-0.859,-0.859,0.0,0.0,0.0,0.0,0.0,0.0,0.0,0.0,-0.883,-0.9235,-0.9564,-0.9744,-1.063,-1.0857,-1.0039,-0.9846,-0.9772,-0.9772,-0.9677,-0.9603,-0.9603,-0.9603,-0.9603,-0.9603,-0.9603,-0.9611,-0.9632,-1.0019,-1.0198,-1.0223,-1.0561,-1.0692,-1.0692,-1.0692,-1.0692,-1.0692,-1.0692,-1.0692,-1.0692,-1.0692,-1.0692,-1.0692,-1.0692,-1.0692,-1.0692,-1.0692,-1.05,-1.0202,-0.7917,-0.7854,-0.7906,-0.7906,-0.7967,-0.7991,-0.7991,-0.8105,-0.8215,-0.8342,-0.8358,-0.8402,-0.858,-0.9143,0.0,0.0,0.0,-0.9763,0.0,0.0,-0.8714,-0.8714,-0.8643,-0.859,-0.859,-0.859,-0.859,-0.859,-0.859,-0.859,-0.859,-0.859,-0.859,-0.8638,-0.9725,-0.9642,-0.8857,0.0,-1.1456,0.0,0.0,0.0,0.0,-1.0342,-1.0092,-1.0152,-1.0226,-0.999,-0.9603,0.0,-0.9551,0.0,0.0,0.0,0.0,0.0,0.0,0.0,0.0,0.0,0.0,0.0,0.0,0.0,-0.8739,0.0,-0.8686,0.0,0.0,0.0,0.0,0.0,0.0,0.0,-0.8647,0.0,0.0,0.0,-0.9003,0.0,0.0,0.0,-0.9506,-0.9563,-0.9603,-0.9603,-0.9603,-0.9603,-0.9603,-0.9603,-0.9603,-0.9603,-0.9603,-0.9603,-0.9603,-1.0007,-1.0186,-1.019,-1.0548,-1.0692,-1.0692,-1.0692,-1.0692,-1.0692,-1.0692,-1.0692,-1.0692,-1.0692,-1.0692,-1.0692,-1.0692,-1.0692,-1.0692,-1.0692,-1.0527,-1.0257,-0.8947,-0.8679,-0.8375,-0.8131,-0.813,-0.8246,-0.8493,-0.8653,-0.8923,-0.942,-0.9226,-0.9099,-0.9278,-0.9999,0.0,0.0,-1.0436,-1.0482,0.0,0.0,-0.8874,-0.8874,-0.8779,0.0,-0.8737,-0.8737,-0.8737,-0.8737,-0.8737,-0.8737,-0.8737,-0.8737,-0.8737,-0.8808,-1.0205,-1.0266,-0.9444,0.0,-1.229,-1.1797,-1.2352,-1.2624,-1.2517,-1.0913,-1.0184,-1.0039,-1.0039,-0.9846,-0.9603,-0.9603,-0.9603,0.0,-0.9603,0.0,0.0,0.0,0.0,0.0,-0.9242,0.0,0.0,0.0,0.0,0.0,0.0,0.0,0.0,0.0,0.0,0.0,0.0,0.0,0.0,0.0,0.0,-0.8574,0.0,-0.8641,0.0,0.0,0.0,0.0,0.0,-0.9445,-0.9551,-0.9551,-0.9575,-0.9603,-0.9603,-0.9603,-0.9603,-0.9603,-0.9603,-0.9603,-0.9603,-1.0007,-1.0186,-1.019,-1.0548,-1.0692,-1.0692,-1.0692,-1.0692,-1.0692,-1.0692,-1.0692,-1.0692,-1.0692,-1.0692,-1.0692,-1.0692,-1.0692,-1.0692,-1.0692,-1.0472,-1.0119,-1.0848,-1.0354,-0.9367,-0.845,-0.8452,-0.8872,-0.971,-0.9845,-1.0292,0.0,0.0,0.0,0.0,0.0,0.0,0.0,0.0,-1.019,-0.9213,0.0,-0.9088,-0.9088,-0.9084,-0.908,0.0,-0.908,-0.908,-0.908,-0.908,-0.908,-0.908,-0.908,-0.908,-0.9173,-1.1094,-1.1428,-1.0689,-1.2834,-1.3823,-1.3836,-1.3008,-1.2697,-1.2678,0.0,-1.1994,-1.115,-1.115,0.0,0.0,-0.9603,-0.9603,0.0,0.0,0.0,0.0,0.0,0.0,0.0,0.0,0.0,0.0,-0.9396,0.0,0.0,0.0,0.0,-0.9088,0.0,0.0,0.0,0.0,0.0,0.0,0.0,0.0,0.0,0.0,0.0,0.0,0.0,0.0,0.0,0.0,-0.9286,-0.9412,0.0,-0.9527,-0.9603,-0.9603,-0.9603,-0.9603,-0.9603,-0.9603,-0.9603,-0.9603,-1.0007,-1.0186,-1.019,-1.0548,-1.0692,-1.0692,-1.0692,-1.0692,-1.0692,-1.0692,-1.0692,-1.0692,-1.0692,-1.0692,-1.0692,-1.0692,-1.0692,-1.0692,-1.0692,-1.0308,-0.9816,-1.1902,-1.2104,-1.1855,-1.0527,-1.0348,-1.0556,0.0,-1.1162,0.0,0.0,0.0,0.0,0.0,-1.2463,-1.2768,0.0,0.0,-1.259,-1.1542,-1.1402,0.0,0.0,-1.0496,-1.0814,0.0,-1.0098,-1.0098,-1.0098,-0.9414,-0.9442,-1.0098,-1.0098,-1.0468,-1.1188,-1.1974,-1.2154,0.0,0.0,0.0,0.0,0.0,-1.4802,-1.4222,0.0,-1.2634,-1.242,-1.1627,-1.1607,0.0,-1.0292,-1.0186,-1.0522,-0.9821,-0.9603,-0.9603,-0.9603,-0.9603,0.0,0.0,0.0,-0.9535,-0.9535,0.0,0.0,0.0,0.0,0.0,0.0,0.0,0.0,0.0,0.0,0.0,0.0,0.0,0.0,0.0,0.0,0.0,0.0,0.0,0.0,0.0,0.0,0.0,0.0,-0.9527,-0.9603,-0.9603,-0.9603,-0.9603,-0.9603,-0.9603,-0.9603,-0.9603,-1.0007,-1.0186,-1.019,-1.0548,-1.0692,-1.0692,-1.0692,-1.0692,-1.0692,-1.0692,-1.0692,-1.0692,-1.0692,-1.061,-1.0449,-1.0449,-1.0449,-1.0445,-1.0637,-1.0582,-1.0335,-1.3172,-1.3399,-1.3184,0.0,0.0,0.0,0.0,0.0,0.0,0.0,-1.3113,0.0,-1.3249,0.0,-1.4334,0.0,-1.4404,-1.3981,-1.2515,-1.2613,0.0,-1.0194,-1.1576,0.0,0.0,-1.1004,-1.082,-1.082,-0.9774,-0.9612,-1.0239,-1.0239,-1.0613,-1.1301,-1.217,-1.2566,-1.2672,-1.419,-1.4905,0.0,0.0,-1.6168,0.0,0.0,-1.3796,-1.3236,0.0,-1.2677,-1.3111,-1.1697,-1.1329,-1.1322,-1.0631,-1.0138,-0.9807,-0.9738,-0.9697,-0.968,-0.962,-0.9603,0.0,-0.9603,-0.9603,0.0,-0.9502,0.0,0.0,0.0,0.0,0.0,0.0,0.0,0.0,0.0,0.0,0.0,0.0,-0.859,0.0,0.0,0.0,0.0,0.0,0.0,-0.9217,-0.9282,-0.9429,-0.9559,0.0,-0.9603,-0.9603,-0.9603,-0.9603,-0.9603,-0.9603,-1.0007,-1.0186,-1.019,-1.0548,-1.0692,-1.0692,-1.0692,-1.0692,-1.0692,-1.0692,-1.0692,-1.0692,-1.0692,-1.0527,-1.0312,-1.0312,-1.0229,-1.0174,-1.0445,-1.0472,-1.0308,-1.4682,-1.4314,0.0,0.0,-1.2363,0.0,0.0,0.0,-1.4137,0.0,-1.4842,-1.4528,-1.4777,-1.5088,-1.4849,-1.384,-1.4696,-1.4366,-1.2211,-1.29,0.0,0.0,-1.2392,-1.2861,-1.2813,0.0,0.0,0.0,-1.0212,-0.9677,-0.9677,-0.9677,-0.9698,-0.9846,-1.1809,-1.2737,-1.2942,-1.4903,-1.5984,-1.6364,-1.6613,-1.6734,-1.6747,-1.6672,-1.5468,-1.3797,-1.3709,-1.3735,-1.376,-1.3653,-1.291,-1.2031,-1.1927,-1.1161,-1.0231,-0.9974,-0.9921,-0.9864,-0.9672,-0.9624,-0.9616,-0.9616,-0.9607,0.0,0.0,0.0,-0.9603,0.0,0.0,0.0,0.0,0.0,0.0,0.0,0.0,0.0,0.0,0.0,0.0,0.0,0.0,0.0,0.0,0.0,-0.8874,-0.9084,-0.9282,-0.9457,0.0,-0.9603,-0.9603,-0.9603,-0.9603,-0.9603,-0.9603,-1.0007,-1.0186,-1.019,-1.0548,-1.0692,-1.0692,-1.0692,-1.0692,-1.0692,-1.0692,-1.0692,-1.0692,-1.0692,-1.0527,-1.0257,-1.0257,-1.0064,-0.9816,-1.0174,-1.0091,-0.9734,-1.5511,-1.5394,-1.5153,0.0,-1.455,-1.4437,0.0,0.0,0.0,0.0,-1.6079,-1.611,-1.6182,-1.6253,-1.6199,-1.5941,-1.6174,0.0,0.0,0.0,0.0,-1.3117,-1.4726,-1.532,-1.4577,-1.4061,0.0,-1.2694,0.0,-1.0788,-1.0788,-1.0788,-1.1199,-1.1931,-1.2465,-1.3243,-1.4208,-1.4759,-1.5754,-1.6978,-1.7033,-1.7193,-1.7277,0.0,-1.6292,-1.6423,-1.5323,-1.5515,-1.6016,-1.4383,-1.4058,-1.4061,-1.2417,-1.17,-1.1277,-1.0388,-1.0117,-1.0105,-1.006,-0.9925,-0.9819,-0.9819,-0.9721,-0.9603,0.0,0.0,0.0,0.0,0.0,0.0,0.0,0.0,0.0,0.0,0.0,0.0,0.0,0.0,0.0,-0.859,0.0,0.0,0.0,-0.8723,-0.8874,-0.9084,-0.9282,-0.9457,-0.9591,0.0,-0.9603,-0.9603,-0.9603,-0.9603,-0.9603,-1.0007,-1.0186,-1.019,-1.0548,-1.0692,-1.0692,-1.0692,-1.0692,-1.0692,-1.0692,-1.0692,-1.0692,-1.0472,-1.0229,-0.9899,-0.9706,-0.9572,-0.9572,-1.0091,-0.9954,-0.9517,-1.5808,0.0,0.0,-1.6019,0.0,0.0,-1.5795,-1.6025,0.0,-1.644,-1.672,0.0,-1.6926,-1.7014,-1.7088,-1.7088,-1.7088,0.0,-1.5582,0.0,0.0,-1.4464,-1.5872,-1.6431,-1.5872,-1.5238,0.0,-1.4073,0.0,-1.1366,-1.1361,-1.1242,-1.1487,-1.2101,-1.3108,-1.4001,-1.4752,-1.5488,-1.6335,-1.7213,-1.734,-1.7468,0.0,-1.6882,-1.7041,-1.7483,-1.667,-1.6801,-1.7179,-1.5933,-1.5521,-1.5291,-1.4031,-1.3299,-1.2628,-1.1422,-1.1063,-1.0941,-1.0363,-1.0113,-1.0031,-1.0031,-0.9933,-0.9839,-0.9758,-0.9738,-0.9717,0.0,-0.9603,-0.9603,0.0,0.0,0.0,0.0,0.0,0.0,0.0,0.0,0.0,0.0,-0.8678,0.0,0.0,-0.8676,-0.8816,-0.908,-0.9209,-0.9356,-0.9587,0.0,-0.9603,-0.9603,-0.9603,-0.9603,-0.9603,-1.0007,-1.0186,-1.019,-1.0548,-1.0692,-1.0692,-1.0692,-1.0692,-1.0692,-1.0692,-1.0692,-1.0692,-1.0417,-1.0091,-0.9761,-0.9351,-0.9185,-0.9241,-0.9737,-0.9682,-0.9434,-1.5921,0.0,0.0,0.0,0.0,0.0,0.0,-1.6625,0.0,-1.6767,0.0,-1.7259,-1.7259,-1.7454,-1.7608,-1.7608,0.0,-1.718,-1.6187,-1.684,-1.6782,-1.5725,-1.6406,-1.682,-1.682,-1.5923,-1.5391,0.0,0.0,-1.1992,-1.1861,-1.1613,-1.1521,-1.1604,-1.3787,0.0,0.0,-1.6611,-1.7259,-1.728,-1.7508,-1.7608,-1.7582,-1.7417,-1.7477,-1.7556,-1.7259,-1.7338,-1.7608,-1.7608,-1.6935,-1.6101,-1.5941,-1.5183,-1.4094,-1.2818,-1.2344,-1.1965,-1.0796,-1.037,-1.0223,-1.0223,-1.0206,-1.0145,-0.9983,-0.9946,-0.9872,-0.9672,-0.9636,-0.9628,0.0,0.0,0.0,0.0,0.0,0.0,0.0,0.0,0.0,0.0,0.0,0.0,0.0,-0.8635,-0.8761,-0.9072,-0.912,-0.9275,-0.9587,0.0,-0.9603,-0.9603,-0.9603,-0.9603,-0.9603,-1.0007,-1.0186,-1.019,-1.0548,-1.0692,-1.0692,-1.0692,-1.0692,-1.0692,-1.0692,-1.0692,-1.0692,-1.0363,-1.0009,-0.9623,-0.9103,-0.8912,-0.8937,-0.9241,-0.9323,-0.9351,-1.6553,0.0,0.0,0.0,0.0,-1.7105,-1.7052,-1.7092,-1.71,-1.71,-1.7354,-1.7535,-1.7535,-1.7582,-1.7608,-1.7608,-1.7608,0.0,0.0,0.0,0.0,-1.7206,-1.735,-1.7428,-1.7428,-1.704,-1.642,0.0,0.0,-1.412,-1.3245,-1.3203,-1.3181,-1.3232,-1.4533,0.0,-1.681,-1.7309,0.0,-1.7535,-1.7588,-1.7608,-1.7503,-1.6558,-1.6776,-1.7338,-1.5402,-1.5962,-1.7608,-1.7608,-1.7477,-1.7153,-1.6207,-1.5749,-1.5343,-1.4115,-1.3111,-1.2302,-1.208,-1.121,-1.0361,-1.0361,-1.0274,-1.0178,-1.0149,-1.0137,-1.0088,-0.988,-0.9839,-0.9799,-0.9628,0.0,0.0,0.0,0.0,0.0,0.0,0.0,0.0,0.0,0.0,-0.9039,0.0,0.0,-0.8865,-0.908,-0.9254,-0.9425,0.0,0.0,-0.9603,0.0,-0.9603,-0.9603,0.0,0.0,-1.0186,-1.019,-1.0548,-1.0692,-1.0692,-1.0692,-1.0692,-1.0692,-1.0692,-1.0692,-1.0665,-1.0115,-0.9568,-0.9047,-0.8937,-0.8912,-0.8912,-0.8968,-0.8992,-0.902,0.0,0.0,0.0,0.0,0.0,0.0,0.0,-1.7401,-1.7401,-1.7401,-1.7521,-1.7608,-1.7608,-1.7608,-1.7608,-1.7608,-1.7608,-1.7608,-1.7608,-1.7608,-1.7608,-1.7608,-1.7608,-1.7608,-1.7608,-1.7468,-1.716,-1.6631,0.0,0.0,-1.4633,-1.45,-1.4437,-1.4468,-1.5712,-1.6658,0.0,0.0,0.0,-1.7608,-1.7608,-1.7608,-1.7529,-1.6988,-1.712,-1.7444,-1.6313,-1.6638,-1.7417,-1.618,-1.5775,-1.5802,-1.5888,-1.5888,-1.5781,-1.5209,-1.4647,-1.3949,-1.2738,-1.1918,-1.1288,-1.0702,-1.0501,-1.0443,-1.0322,-1.0302,-1.0253,-1.0092,-0.9974,-0.9831,-0.9636,-0.9603,0.0,0.0,0.0,0.0,0.0,0.0,0.0,0.0,0.0,0.0,0.0,0.0,0.0,0.0,0.0,0.0,0.0,0.0,-0.9603,0.0,0.0,0.0,-0.9762,0.0,-1.0235,-1.0306,-1.057,-1.0692,-1.0692,-1.0692,-1.0692,-1.0692,-1.0692,-1.061,-1.0445,-0.9844,-0.9323,-0.8912,-0.8912,-0.8912,-0.8912,-0.8912,-0.8912,-0.8912,0.0,-1.7107,0.0,0.0,-1.7454,0.0,-1.7608,-1.7608,-1.7608,-1.7608,-1.7608,-1.7608,-1.7608,-1.7608,-1.7608,-1.7608,-1.7608,-1.7608,-1.7608,-1.7608,-1.7608,-1.7608,-1.7608,-1.7608,-1.7608,-1.7608,-1.7608,0.0,0.0,0.0,0.0,-1.5817,-1.5718,-1.575,0.0,0.0,0.0,0.0,-1.7608,-1.7608,-1.7608,-1.7608,-1.7608,-1.7608,-1.7608,-1.7582,-1.7338,-1.7232,-1.6909,-1.4808,-1.4266,-1.4647,-1.5589,-1.5722,-1.5562,-1.5835,-1.5722,-1.5162,-1.3572,-1.2792,-1.2173,-1.1286,-1.088,-1.0655,-1.0494,-1.0462,-1.0409,-1.0284,-1.0097,-0.9892,-0.9688,-0.966,0.0,0.0,0.0,0.0,0.0,0.0,0.0,0.0,0.0,0.0,-0.9222,0.0,0.0,0.0,0.0,0.0,-0.9595,0.0,0.0,0.0,0.0,-0.9684,-0.9909,0.0,-1.028,-1.0409,-1.0611,-1.0692,-1.0692,-1.0692,-1.0692,-1.0692,-1.0692,-1.05,-1.0147,-0.9627,-0.9213,-0.8912,-0.8912,-0.8912,-0.8912,-0.8912,-0.8912,-0.8912,0.0,0.0,0.0,0.0,0.0,0.0,-1.7608,-1.7608,-1.7608,-1.7608,-1.7608,-1.7608,-1.7608,-1.7608,-1.7608,-1.7608,-1.7608,-1.7608,-1.7608,-1.7608,-1.7608,-1.7608,-1.7608,-1.7608,-1.7608,-1.7608,-1.7608,0.0,0.0,-1.7404,0.0,-1.7384,-1.7371,0.0,0.0,0.0,0.0,-1.7608,-1.7608,-1.7608,-1.7608,-1.7608,-1.7608,-1.7608,-1.7608,-1.745,-1.6426,-1.6047,-1.5861,-1.454,-1.4835,-1.5749,-1.5861,-1.5156,-1.4481,-1.5589,-1.5135,-1.446,-1.5322,-1.403,-1.2363,-1.2282,-1.1446,-1.0688,-1.0672,-1.0668,-1.0619,-1.0417,-1.0262,-1.0105,-0.9921,-0.986,-0.9811,0.0,0.0,0.0,0.0,0.0,0.0,0.0,0.0,0.0,0.0,-0.9567,0.0,0.0,-0.9579,0.0,0.0,0.0,0.0,-0.9603,-0.9603,-0.9684,-0.9909,-1.0092,-1.028,-1.0409,-1.0611,-1.0692,-1.0692,-1.0692,-1.0692,-1.0692,-1.0692,-1.039,-0.9816,-0.9517,-0.9213,-0.8912,-0.8912,-0.8912,-0.8912,-0.8912,-0.8912,-0.8912,0.0,0.0,0.0,0.0,0.0,0.0,0.0,-1.7608,-1.7649,-1.7809,-1.7695,-1.7608,-1.7608,-1.7608,-1.7608,-1.7608,-1.7608,-1.7608,-1.7608,-1.7608,-1.7608,-1.7608,-1.7608,-1.7608,-1.7608,-1.7608,-1.7608,0.0,0.0,0.0,0.0,0.0,0.0,0.0,0.0,-1.7608,-1.7608,-1.7608,-1.7608,-1.7608,-1.7608,-1.7608,-1.7608,-1.7608,-1.7608,-1.7529,-1.7067,-1.6909,-1.6856,-1.6366,-1.5589,-1.4808,-1.4808,-1.4486,-1.4186,-1.4674,-1.4995,-1.5129,-1.4888,-1.4647,-1.4164,-1.2738,-1.2064,-1.1528,-1.0852,-1.0692,-1.0672,-1.0603,-1.0448,-1.027,-1.0109,-0.9987,-0.9885,-0.9791,0.0,0.0,0.0,0.0,0.0,0.0,0.0,0.0,0.0,0.0,0.0,0.0,0.0,0.0,0.0,0.0,0.0,-0.9603,0.0,-0.9868,-1.0076,-1.0233,-1.0416,-1.059,-1.066,-1.0692,-1.0692,-1.0692,-1.061,-1.0445,-1.0253,-0.9926,-0.9544,-0.9241,-0.9023,-0.8912,-0.8912,-0.8912,-0.8912,-0.8912,-0.8912,-0.8912,-1.7608,0.0,-1.7609,0.0,-1.7716,-1.7749,-1.7862,-1.7849,-1.7929,-1.8123,-1.7989,-1.7849,-1.7849,-1.7849,-1.7849,-1.7849,-1.7849,-1.7849,-1.7849,-1.7849,-1.7849,-1.7849,-1.7762,0.0,-1.7716,-1.7629,-1.7608,-1.7608,-1.7608,0.0,0.0,0.0,0.0,0.0,-1.7608,-1.7608,-1.7608,-1.7608,-1.7608,-1.7608,-1.7608,-1.7608,-1.7608,-1.7608,-1.7608,-1.7608,-1.7608,-1.7608,-1.7608,-1.7608,-1.6499,-1.5076,-1.4728,-1.4164,-1.3679,-1.3997,-1.446,-1.4835,-1.4674,-1.4995,-1.4969,-1.3302,-1.2657,-1.2091,-1.0962,-1.0692,-1.0692,-1.0692,-1.0595,-1.043,-1.03,-1.0136,-1.003,-0.9999,0.0,0.0,0.0,-0.9636,0.0,0.0,-0.9603,-0.9603,-0.9603,-0.9603,0.0,0.0,0.0,0.0,0.0,0.0,0.0,0.0,0.0,0.0,-1.0212,-1.0343,-1.0494,-1.0692,-1.0692,-1.0692,-1.0692,-1.0692,-1.061,-1.0394,-0.9981,-0.9678,-0.9489,-0.9075,-0.8912,-0.8912,-0.8912,-0.8912,-0.8912,-0.8912,-0.8912,-0.8912,-1.7608,-1.7608,-1.7675,-1.7962,-1.8016,-1.8116,-1.8437,-1.8477,-1.8477,-1.8484,-1.8484,-1.8477,-1.8477,-1.8477,-1.8477,-1.8477,-1.8477,-1.8477,-1.8477,-1.8477,-1.8477,0.0,0.0,-1.7996,-1.8016,-1.7742,-1.7608,-1.7608,0.0,0.0,-1.7608,0.0,-1.7608,-1.7608,-1.7608,-1.7608,-1.7608,-1.7608,-1.7608,-1.7608,-1.7608,-1.7608,-1.7608,-1.7608,-1.7608,-1.7608,-1.7608,-1.7608,-1.7608,-1.7608,-1.7582,-1.7364,-1.6234,-1.4298,-1.263,-1.376,-1.3302,-1.2955,-1.5242,-1.5022,-1.411,-1.4078,-1.3221,-1.2091,-1.0962,-1.0692,-1.0692,-1.0692,-1.0688,-1.0635,-1.0438,-1.0405,-1.0345,-1.0215,0.0,0.0,0.0,0.0,0.0,-0.9603,-0.9603,-0.9603,-0.9603,-0.9603,0.0,0.0,0.0,0.0,0.0,0.0,0.0,-0.9603,-0.9795,0.0,-1.0212,-1.0343,-1.0494,-1.0692,-1.0692,-1.0692,-1.0692,-1.0692,-1.0692,-1.0665,-1.006,-0.9789,-0.9761,-0.9158,-0.8912,-0.8912,-0.8912,-0.8912,-0.8912,-0.8912,-0.8912,-0.8912,-1.8196,-1.8196,-1.823,-1.833,-1.835,-1.8384,-1.8477,-1.849,-1.8564,-1.8764,-1.8756,-1.8865,-1.9093,-1.8759,-1.849,0.0,-1.849,-1.849,0.0,-1.849,-1.849,-1.849,-1.839,-1.8343,-1.835,-1.8257,-1.8103,-1.7876,0.0,0.0,0.0,-1.7608,-1.7608,-1.7608,-1.7608,-1.7608,-1.7608,-1.7608,-1.7608,-1.7608,-1.7608,-1.7608,-1.7608,-1.7608,-1.7608,-1.7608,-1.7608,-1.7608,-1.7608,-1.7608,-1.7608,-1.7529,-1.718,-1.6021,-1.454,-1.3302,-1.3221,-1.3545,-1.3518,-1.3814,-1.4105,-1.4105,-1.3248,-1.2309,-1.1928,-1.1259,-1.0692,-1.0692,-1.0692,-1.0676,-1.0623,-1.0486,-1.0389,-1.0332,-1.0219,0.0,-0.9926,0.0,-0.9758,-0.962,-0.9603,-0.9603,-0.9603,-0.9603,0.0,0.0,0.0,0.0,0.0,0.0,0.0,0.0,-1.0003,0.0,-1.032,-1.0521,-1.0639,-1.0692,-1.0692,-1.0692,-1.0692,-1.0692,-1.061,-1.039,-0.9981,-0.9706,-0.9489,-0.9075,-0.8912,-0.8912,-0.8912,-0.8912,-0.8912,-0.8912,-0.8912,-0.8912,-1.849,-1.849,-1.8524,-1.8637,-1.8651,-1.8691,-1.8833,-1.8846,-1.8913,-1.9065,-1.9092,-1.9158,-1.9381,-1.9067,0.0,-1.8846,-1.8846,-1.8846,-1.8846,-1.8846,-1.8846,-1.8846,-1.8711,-1.8651,-1.8651,-1.8544,0.0,-1.8189,-1.8189,-1.8029,-1.7756,-1.7756,-1.7695,-1.7608,-1.7608,-1.7608,-1.7608,-1.7608,-1.7608,-1.7608,-1.7608,-1.7608,-1.7608,-1.7608,-1.7608,-1.7608,-1.7608,-1.7608,-1.7608,-1.7608,-1.7608,-1.7608,-1.7608,-1.712,-1.6074,-1.3733,-1.3248,-1.3302,-1.2603,-1.2928,-1.3464,-1.3464,-1.3248,-1.2928,-1.2494,-1.1851,-1.1232,-1.0798,-1.0692,-1.0692,-1.0692,-1.0603,-1.0503,-1.0503,-1.0379,-1.0225,-1.0107,0.0,-0.9974,0.0,0.0,0.0,0.0,-0.9827,-0.9827,0.0,0.0,0.0,0.0,0.0,-0.9807,-1.0007,-1.0168,-1.0318,-1.0405,-1.0607,-1.0692,-1.0692,-1.0692,-1.0692,-1.0692,-1.0692,-1.0555,-1.0284,-1.0091,-0.9761,-0.9379,-0.9185,-0.9023,-0.8912,-0.8912,-0.8912,-0.8912,-0.8912,-0.8912,-0.8912,-1.8551,-1.8551,-1.8637,0.0,-1.8923,0.0,-1.9354,-1.9395,-1.9395,-1.9395,-1.9395,-1.9395,-1.9395,-1.9395,-1.9395,-1.9395,0.0,0.0,-1.9395,-1.9395,-1.9395,-1.9395,-1.9098,-1.8923,-1.8923,-1.8691,-1.8544,-1.8517,-1.8504,-1.835,-1.8022,-1.8022,-1.7896,-1.7668,-1.7668,-1.7668,-1.7668,-1.7668,-1.7668,-1.7668,-1.7668,-1.7662,-1.7642,-1.7642,-1.7628,-1.7608,-1.7608,-1.7608,-1.7608,-1.7608,-1.7608,-1.7608,-1.7608,-1.7608,-1.7153,-1.4888,-1.341,-1.2494,-1.2413,-1.2336,-1.2309,-1.239,-1.3193,-1.3674,-1.2548,-1.2282,-1.1982,-1.0907,-1.0692,-1.0692,-1.0692,-1.0692,-1.0692,-1.0692,-1.0531,-1.0422,-1.0409,-1.0286,-1.0202,0.0,0.0,0.0,-1.0186,-1.0186,-1.0186,0.0,0.0,0.0,0.0,0.0,-1.0027,-1.0202,-1.032,-1.0413,-1.0426,-1.0611,-1.0692,-1.0692,-1.0692,-1.0692,-1.0692,-1.0692,-1.0527,-1.0312,-1.0257,-0.9926,-0.9406,-0.9379,-0.9185,-0.8912,-0.8912,-0.8912,-0.8912,-0.8912,-0.8912,-0.8912,0.0,0.0,-1.9207,-1.9281,-1.9294,-1.9314,-1.9388,-1.9395,-1.9395,-1.9395,-1.9395,-1.9395,-1.9395,-1.9395,-1.9395,-1.9395,-1.9395,-1.9395,-1.9395,-1.9395,-1.9395,-1.9395,-1.9328,-1.9294,-1.9294,-1.9227,-1.9045,-1.8824,-1.8597,-1.8457,-1.8384,-1.8384,-1.835,-1.8277,-1.8277,-1.8277,-1.8277,-1.8277,-1.8277,-1.8277,-1.8277,-1.8136,-1.7909,-1.7909,-1.7789,-1.7608,-1.7608,-1.7608,-1.7608,-1.7608,-1.7608,-1.7608,-1.7608,-1.7608,-1.7312,-1.5888,-1.462,-1.3518,-1.263,-1.1769,-1.1314,-1.2173,-1.2603,-1.2494,-1.1368,-1.1095,-1.1044,-1.0774,-1.0692,-1.0692,-1.0692,-1.0692,-1.0692,-1.0692,-1.066,-1.0586,-1.0426,-1.0369,-1.0318,0.0,-1.0186,-1.0186,-1.0186,-1.0186,-1.0186,0.0,0.0,-1.0247,-1.0336,-1.0304,-1.03,-1.0345,-1.0385,-1.047,-1.0631,-1.0672,-1.0692,-1.0692,-1.0692,-1.0692,-1.0692,-1.05,-1.0363,-1.0257,-0.9816,-0.9544,-0.9379,-0.9134,-0.8968,-0.8912,-0.8912,-0.8912,-0.8912,-0.8912,-0.8912,-0.8912,-1.9395,-1.9395,-1.9395,-1.9395,-1.9395,-1.9395,-1.9395,-1.9395,-1.9395,-1.9395,-1.9395,-1.9395,-1.9395,-1.9395,-1.9395,-1.9395,-1.9395,-1.9395,-1.9395,-1.9395,-1.9395,-1.9395,-1.9395,-1.9395,-1.9395,-1.9395,-1.9321,-1.9125,-1.8965,-1.8824,-1.8691,-1.8691,-1.8617,-1.849,-1.849,-1.849,-1.849,-1.849,-1.849,-1.849,-1.849,-1.8397,-1.8223,-1.8223,-1.8143,-1.8023,-1.8023,-1.7909,-1.7796,-1.7796,-1.7702,-1.7608,-1.7608,-1.7608,-1.7477,-1.6856,-1.5829,-1.454,-1.2874,-1.196,-1.1637,-1.2254,-1.239,-1.2227,-1.161,-1.1473,-1.1337,-1.0802,-1.0692,-1.0692,-1.0692,-1.0692,-1.0692,-1.0692,-1.0692,-1.066,-1.0539,-1.0554,-1.0513,-1.0443,-1.043,-1.043,-1.043,-1.043,-1.043,-1.043,-1.043,0.0,-1.0519,-1.0554,-1.0554,-1.0554,-1.0554,-1.0599,-1.0692,-1.0692,-1.0692,-1.0692,-1.0582,-1.0582,-1.0692,-1.0421,-1.0229,-1.0064,-0.9899,-0.9572,-0.9158,-0.913,-0.9047,-0.8912,-0.8912,-0.8912,-0.8912,-0.8912,-0.8912,-0.8912,-1.9395,-1.9395,-1.9395,-1.9395,-1.9395,-1.9395,-1.9395,-1.9395,-1.9395,-1.9395,-1.9395,-1.9395,-1.9395,-1.9395,-1.9395,-1.9395,-1.9395,-1.9395,-1.9395,-1.9395,-1.9395,-1.9395,-1.9395,-1.9395,-1.9395,-1.9395,-1.9395,-1.9395,-1.9395,-1.9239,-1.8991,-1.8991,-1.8858,-1.8652,-1.8652,-1.8652,-1.8652,-1.8652,-1.8652,-1.8652,-1.8652,-1.8597,-1.8557,-1.8557,-1.8531,-1.849,-1.849,-1.833,-1.8089,-1.8089,-1.7882,-1.7655,-1.7655,-1.7622,-1.7608,-1.7608,-1.6803,-1.5429,-1.3253,-1.2417,-1.2146,-1.2146,-1.2146,-1.2146,-1.2146,-1.2146,-1.1878,-1.0907,-1.0692,-1.0692,-1.0692,-1.0692,-1.0692,-1.0692,-1.0692,-1.0692,-1.0692,0.0,-1.0692,-1.0692,-1.0692,-1.0692,-1.0692,-1.0692,-1.0692,-1.0692,-1.0692,-1.0692,-1.0692,-1.0692,-1.0692,-1.0692,-1.0692,-1.0692,-1.0692,-1.0692,-1.0692,-1.0637,-1.0417,-1.0394,-1.0555,-1.0284,-1.0009,-0.9761,-0.9981,-0.9623,-0.8912,-0.9213,-0.9158,-0.8912,-0.8912,-0.8912,-0.8912,-0.8912,-0.8912,-0.8912,-1.9395,-1.9395,-1.9395,-1.9395,-1.9395,-1.9395,-1.9395,-1.9395,-1.9395,-1.9395,-1.9395,-1.9395,-1.9395,-1.9395,-1.9395,-1.9395,-1.9395,-1.9395,-1.9395,-1.9395,-1.9395,-1.9395,-1.9395,-1.9395,-1.9395,-1.9395,-1.9395,-1.9395,-1.9395,-1.9374,-1.9328,-1.9328,-1.9308,-1.9261,-1.9261,-1.9261,-1.9261,-1.9261,-1.9261,-1.9261,-1.9261,-1.9078,-1.883,-1.883,-1.8704,-1.849,-1.849,-1.8464,-1.8424,-1.8424,-1.8223,-1.7949,-1.7949,-1.7796,-1.7608,-1.7608,-1.6803,-1.5589,-1.4212,-1.244,-1.0962,-1.0962,-1.0962,-1.0962,-1.0962,-1.0962,-1.0907,-1.0747,-1.0692,-1.0692,-1.0692,-1.0692,-1.0692,-1.0692,-1.0692,-1.0692,-1.0692,0.0,-1.0692,-1.0692,-1.0692,-1.0692,-1.0692,-1.0692,-1.0692,-1.0692,-1.0692,-1.0692,-1.0692,-1.0692,-1.0692,-1.0692,-1.0692,-1.0692,-1.0692,-1.0692,-1.0582,-1.0363,-1.0312,-1.017,-0.9926,-0.9655,-0.9517,-0.9461,-0.9213,-0.9047,-0.8912,-0.8968,-0.8937,-0.8912,-0.8912,-0.8912,-0.8912,-0.8912,-0.8912,-0.8912,-1.9395,-1.9395,-1.9395,-1.9395,-1.9395,-1.9395,-1.9395,-1.9395,-1.9395,-1.9395,-1.9395,-1.9395,-1.9395,-1.9395,-1.9395,-1.9395,-1.9395,-1.9395,-1.9395,-1.9395,-1.9395,-1.9395,-1.9395,-1.9395,-1.9395,-1.9395,-1.9395,-1.9395,-1.9395,-1.9395,-1.9395,-1.9395,-1.9395,-1.9395,-1.9395,-1.9395,-1.9395,-1.9395,-1.9395,-1.9395,-1.9395,-1.9314,-1.9165,-1.9165,-1.9078,-1.8993,-1.8993,-1.8858,-1.8724,-1.8724,-1.8531,-1.8263,-1.8263,-1.8049,-1.7836,-1.7836,-1.6464,-1.4674,-1.3491,-1.196,-1.0692,-1.0692,-1.0692,-1.0692,-1.0692,-1.0692,-1.0692,-1.0692,-1.0692,-1.0692,-1.0692,-1.0692,-1.0692,-1.0692,-1.0692,0.0,-1.0692,-1.0692,-1.0692,-1.0692,-1.0692,-1.0692,-1.0692,-1.0692,-1.0692,-1.0692,-1.0692,-1.0692,-1.0692,-1.0692,-1.0692,-1.0692,-1.0692,-1.0637,-1.05,-1.0472,-1.0339,-1.0036,-0.9871,-0.9816,-0.9789,-0.9517,-0.9406,-0.9379,-0.9241,-0.9078,-0.8912,-0.8912,-0.8912,-0.8912,-0.8912,-0.8912,-0.8912,-0.8912,-0.8912,-0.8912,-1.9395,-1.9395,-1.9395,-1.9395,-1.9395,-1.9395,-1.9395,-1.9395,-1.9395,-1.9395,-1.9395,-1.9395,-1.9395,-1.9395,-1.9395,-1.9395,-1.9395,-1.9395,-1.9395,-1.9395,-1.9395,-1.9395,-1.9395,-1.9395,-1.9395,-1.9395,-1.9395,-1.9395,-1.9395,-1.9395,-1.9395,-1.9395,-1.9395,-1.9395,-1.9395,-1.9395,-1.9395,-1.9395,-1.9395,-1.9395,-1.9395,-1.9395,-1.9366,-1.9068,-1.8946,-1.8946,-1.8946,-1.8802,-1.8612,-1.8911,-1.8831,-1.8591,-1.8591,-1.8363,-1.8123,-1.8123,-1.625,-1.4013,-1.3046,-1.1769,-1.0692,-1.0692,-1.0692,-1.0692,-1.0692,-1.0692,-1.0692,-1.0692,-1.0692,-1.0692,-1.0692,-1.0692,-1.0692,-1.0692,0.0,-1.0692,-1.0692,-1.0692,-1.0692,-1.0692,-1.0692,-1.0692,-1.0692,-1.0692,-1.0692,-1.0692,-1.0692,-1.0692,-1.0692,-1.0692,-1.0692,-1.0692,-1.0692,-1.061,-1.0394,-1.0339,-1.0119,-0.9789,-0.9517,-0.9461,-0.9596,-0.9379,-0.9296,-0.9296,-0.9296,-0.913,-0.8912,-0.8912,-0.8912,-0.8912,-0.8912,-0.8912,-0.8912,-0.8912,-0.8912,-0.8912,-1.9395,-1.9395,-1.9395,-1.9395,-1.9395,-1.9395,-1.9395,-1.9395,-1.9395,-1.9395,-1.9395,-1.9395,-1.9395,-1.9395,-1.9395,-1.9395,-1.9395,-1.9395,-1.9395,-1.9395,-1.9395,-1.9395,-1.9395,-1.9395,-1.9395,-1.9395,-1.9395,-1.9395,-1.9395,-1.9395,-1.9395,-1.9395,-1.9395,-1.9395,-1.9395,-1.9395,-1.9395,-1.9395,-1.9395,-1.9395,-1.9395,-1.9395,-1.9272,-1.8075,-1.763,-1.763,-1.763,-1.7618,-1.7781,-1.8978,-1.9138,-1.8863,-1.8863,-1.8691,-1.8457,-1.8457,-1.6612,-1.4467,-1.4083,-1.2363,-1.0692,-1.0692,-1.0692,-1.0692,-1.0692,-1.0692,-1.0692,-1.0692,-1.0692,-1.0692,-1.0692,-1.0692,-1.0692,-1.0692,0.0,0.0,-1.0692,-1.0692,-1.0692,-1.0692,-1.0692,-1.0692,-1.0692,-1.0692,-1.0692,-1.0692,-1.0692,-1.0692,-1.0692,-1.0692,-1.0692,-1.0692,-1.0692,-1.0692,-1.0665,-1.0421,-1.0119,-0.9789,-0.9517,-0.9241,-0.8968,-0.8937,-0.8937,-0.8937,-0.8937,-0.8912,-0.8912,-0.8912,-0.8912,-0.8912,-0.8912,-0.8912,-0.8912,-0.8912,-0.8912,-0.8912,-1.9395,-1.9395,-1.9395,-1.9395,-1.9395,-1.9395,-1.9395,-1.9395,-1.9395,-1.9395,-1.9395,-1.9395,-1.9395,-1.9395,-1.9395,-1.9395,-1.9395,-1.9395,-1.9395,-1.9395,-1.9395,-1.9395,-1.9395,-1.9395,-1.9395,-1.9395,-1.9395,-1.9395,-1.9395,-1.9395,-1.9395,-1.9395,-1.9395,-1.9395,-1.9395,-1.9395,-1.9395,-1.9395,-1.9395,-1.9395,-1.9395,-1.9395,-1.9249,-1.7987,-1.7513,-1.7513,-1.7513,-1.7513,-1.7689,-1.8975,-1.9321,-1.9199,-1.9199,-1.8998,-1.8549,-1.7599,-1.5472,-1.3377,-1.3264,-1.2005,-1.0692,-1.0692,-1.0692,-1.0692,-1.0692,-1.0692,-1.0692,-1.0692,-1.0692,-1.0692,-1.0692,-1.0692,-1.0692,-1.0692,0.0,-1.0692,-1.0692,-1.0692,-1.0692,-1.0692,-1.0692,-1.0692,-1.0692,-1.0692,-1.0692,-1.0692,-1.0692,-1.0692,-1.0692,-1.0692,-1.0692,-1.0692,-1.0692,-1.061,-1.0445,-1.0147,-0.9844,-0.9541,-0.9241,-0.9023,-0.8912,-0.8912,-0.8912,-0.8912,-0.8912,-0.8912,-0.8912,-0.8912,-0.8912,-0.8912,-0.8912,-0.8912,-0.8912,-0.8912,-0.8912,-0.8912,-1.9395,-1.9395,-1.9395,-1.9395,-1.9395,-1.9395,-1.9395,-1.9395,-1.9395,-1.9395,-1.9395,-1.9395,-1.9395,-1.9395,-1.9395,-1.9395,-1.9395,-1.9395,-1.9395,-1.9395,-1.9395,-1.9395,-1.9395,-1.9395,-1.9395,-1.9395,-1.9395,-1.9395,-1.9395,-1.9395,-1.9395,-1.9395,-1.9395,-1.9395,-1.9395,-1.9395,-1.9395,-1.9395,-1.9395,-1.9395,-1.9395,-1.9395,-1.922,-1.7549,-1.6897,-1.6862,-1.645,-1.6302,-1.6503,-1.7789,-1.8211,-1.8211,-1.8211,-1.805,-1.7635,-1.6523,-1.4627,-1.281,-1.235,-1.1522,-1.0793,-1.0708,-1.0692,-1.0692,-1.0692,-1.0692,-1.0692,-1.0692,-1.0692,-1.0692,-1.0692,-1.0692,-1.0692,-1.0692,-1.0692,-1.0692,-1.0692,-1.0692,-1.0692,-1.0692,-1.0692,-1.0692,-1.0692,-1.0692,-1.0692,-1.0692,-1.0692,-1.0692,-1.0692,-1.0692,-1.0692,-1.0692,-1.0692,-1.0582,-1.0312,-0.9981,-0.9678,-0.9406,-0.9047,-0.8912,-0.8912,-0.8912,-0.8912,-0.8912,-0.8912,-0.8912,-0.8912,-0.8912,-0.8912,-0.8912,-0.8912,-0.8912,-0.8912,-0.8912,-0.8912,-0.8912,-1.9395,-1.9395,-1.9395,-1.9395,-1.9395,-1.9395,-1.9395,-1.9395,-1.9395,-1.9395,-1.9395,-1.9395,-1.9395,-1.9395,-1.9395,-1.9395,-1.9395,-1.9395,-1.9395,-1.9395,-1.9395,-1.9395,-1.9395,-1.9395,-1.9395,-1.9395,-1.9395,-1.9395,-1.9395,-1.9395,-1.9395,-1.9395,-1.9395,-1.9395,-1.9395,-1.9395,-1.9395,-1.9395,-1.9395,-1.9395,-1.9395,-1.9395,-1.9098,-1.6579,-1.5599,-1.5426,-1.4143,-1.3695,-1.3904,-1.5184,-1.5604,-1.5604,-1.5604,-1.5604,-1.5556,-1.5337,-1.4373,-1.3057,-1.1586,-1.1098,-1.0956,-1.0741,-1.0692,-1.0692,-1.0692,-1.0692,-1.0692,-1.0692,-1.0692,-1.0692,-1.0692,-1.0692,-1.0692,-1.0692,-1.0692,-1.0692,-1.0692,-1.0692,-1.0692,-1.0692,-1.0692,-1.0692,-1.0692,-1.0692,-1.0692,-1.0692,-1.0692,-1.0692,-1.0692,-1.0692,-1.0692,-1.0692,-1.0692,-1.0582,-1.0312,-0.9981,-0.9678,-0.9406,-0.9047,-0.8912,-0.8912,-0.8912,-0.8912,-0.8912,-0.8912,-0.8912,-0.8912,-0.8912,-0.8912,-0.8912,-0.8912,-0.8912,-0.8912,-0.8912,-0.8912,-0.8912,-1.9395,-1.9395,-1.9395,-1.9395,-1.9395,-1.9395,-1.9395,-1.9395,-1.9395,-1.9395,-1.9395,-1.9395,-1.9395,-1.9395,-1.9395,-1.9395,-1.9395,-1.9395,-1.9395,-1.9395,-1.9395,-1.9395,-1.9395,-1.9395,-1.9395,-1.9395,-1.9395,-1.9395,-1.9395,-1.9395,-1.9395,-1.9395,-1.9395,-1.9395,-1.9395,-1.9395,-1.9395,-1.9395,-1.9395,-1.9395,-1.9395,-1.8858,-1.7906,-1.622,-1.5035,-1.4232,-1.3844,-1.3695,-1.3904,-1.5184,-1.5604,-1.5604,-1.5604,-1.5604,-1.541,-1.445,-1.3176,-1.1984,-1.1519,-1.1285,-1.1102,-1.096,-1.0789,-1.0692,-1.0692,-1.0692,-1.0692,-1.0692,-1.0692,-1.0692,-1.0692,-1.0692,-1.0692,-1.0692,-1.0692,-1.0692,-1.0692,-1.0692,-1.0692,-1.0692,-1.0692,-1.0692,-1.0692,-1.0692,-1.0692,-1.0692,-1.0692,-1.0692,-1.0692,-1.0692,-1.0692,-1.0692,-1.0692,-1.0582,-1.0312,-0.9981,-0.9678,-0.9406,-0.9047,-0.8912,-0.8912,-0.8912,-0.8912,-0.8912,-0.8912,-0.8912,-0.8912,-0.8912,-0.8912,-0.8912,-0.8912,-0.8912,-0.8912,-0.8912,-0.8912,-0.8912,-1.9395,-1.9395,-1.9395,-1.9395,-1.9395,-1.9395,-1.9395,-1.9395,-1.9395,-1.9395,-1.9395,-1.9395,-1.9395,-1.9395,-1.9395,-1.9395,-1.9395,-1.9395,-1.9395,-1.9395,-1.9395,-1.9395,-1.9395,-1.9395,-1.9395,-1.9395,-1.9395,-1.9395,-1.9395,-1.9395,-1.9395,-1.9395,-1.9395,-1.9395,-1.9395,-1.9395,-1.9395,-1.9395,-1.9395,-1.9395,-1.9395,-1.8648,-1.7361,-1.6101,-1.4798,-1.3635,-1.3135,-1.296,-1.308,-1.3854,-1.4093,-1.4182,-1.4679,-1.4505,-1.4028,-1.3789,-1.2725,-1.161,-1.161,-1.1472,-1.1309,-1.1232,-1.1017,-1.0829,-1.0829,-1.0772,-1.0692,-1.0692,-1.0692,-1.0692,-1.0692,-1.0692,-1.0692,-1.0692,-1.0692,-1.0692,-1.0692,-1.0692,-1.0692,-1.0692,-1.0692,-1.0692,-1.0692,-1.0692,-1.0692,-1.0692,-1.0692,-1.0692,-1.0692,-1.0692,-1.0692,-1.0692,-1.0692,-1.0582,-1.0312,-0.9981,-0.9678,-0.9406,-0.9047,-0.8912,-0.8912,-0.8912,-0.8912,-0.8912,-0.8912,-0.8912,-0.8912,-0.8912,-0.8912,-0.8912,-0.8912,-0.8912,-0.8912,-0.8912,-0.8912,-0.8912,-1.9395,-1.9395,-1.9395,-1.9395,-1.9395,-1.9395,-1.9395,-1.9395,-1.9395,-1.9395,-1.9395,-1.9395,-1.9395,-1.9395,-1.9395,-1.9395,-1.9395,-1.9395,-1.9395,-1.9395,-1.9395,-1.9395,-1.9395,-1.9395,-1.9395,-1.9395,-1.9395,-1.9395,-1.9395,-1.9395,-1.9395,-1.9395,-1.9395,-1.9395,-1.9395,-1.9395,-1.9395,-1.9395,-1.9395,-1.9395,-1.9395,-1.8648,-1.7361,-1.6101,-1.4798,-1.3515,-1.2251,-1.1806,-1.1806,-1.1806,-1.1867,-1.216,-1.3195,-1.281,-1.2191,-1.3225,-1.2724,-1.1806,-1.1806,-1.1684,-1.1524,-1.1524,-1.1269,-1.1041,-1.1025,-1.0886,-1.0733,-1.072,-1.0716,-1.0712,-1.0692,-1.0692,-1.0692,-1.0692,-1.0692,-1.0692,-1.0692,-1.0692,-1.0692,-1.0692,-1.0692,-1.0692,-1.0692,-1.0692,-1.0692,-1.0692,-1.0692,-1.0692,-1.0692,-1.0692,-1.0692,-1.0692,-1.0692,-1.0582,-1.0312,-0.9981,-0.9678,-0.9406,-0.9047,-0.8912,-0.8912,-0.8912,-0.8912,-0.8912,-0.8912,-0.8912,-0.8912,-0.8912,-0.8912,-0.8912,-0.8912,-0.8912,-0.8912,-0.8912,-0.8912,-0.8912,-1.9395,-1.9395,-1.9395,-1.9395,-1.9395,-1.9395,-1.9395,-1.9395,-1.9395,-1.9395,-1.9395,-1.9395,-1.9395,-1.9395,-1.9395,-1.9395,-1.9395,-1.9395,-1.9395,-1.9395,-1.9395,-1.9395,-1.9395,-1.9395,-1.9395,-1.9395,-1.9395,-1.9395,-1.9395,-1.9395,-1.9395,-1.9395,-1.9395,-1.9395,-1.9395,-1.9395,-1.9395,-1.9395,-1.9395,-1.9395,-1.9395,-1.8648,-1.7361,-1.6101,-1.4798,-1.3515,-1.2251,-1.1806,-1.1806,-1.1806,-1.2457,-1.3165,-1.2427,-1.2724,-1.3165,-1.2427,-1.2014,-1.1806,-1.1806,-1.1778,-1.1715,-1.1715,-1.1549,-1.1346,-1.12,-1.1106,-1.107,-1.0964,-1.0939,-1.0894,-1.072,-1.0692,-1.0692,-1.0692,-1.0692,-1.0692,-1.0692,-1.0692,-1.0692,-1.0692,-1.0692,-1.0692,-1.0692,-1.0692,-1.0692,-1.0692,-1.0692,-1.0692,-1.0692,-1.0692,-1.0692,-1.0692,-1.0692,-1.0582,-1.0312,-0.9981,-0.9678,-0.9406,-0.9047,-0.8912,-0.8912,-0.8912,-0.8912,-0.8912,-0.8912,-0.8912,-0.8912,-0.8912,-0.8912,-0.8912,-0.8912,-0.8912,-0.8912,-0.8912,-0.8912,-0.8912,-1.9395,-1.9395,-1.9395,-1.9395,-1.9395,-1.9395,-1.9395,-1.9395,-1.9395,-1.9395,-1.9395,-1.9395,-1.9395,-1.9395,-1.9395,-1.9395,-1.9395,-1.9395,-1.9395,-1.9395,-1.9395,-1.9395,-1.9395,-1.9395,-1.9395,-1.9395,-1.9395,-1.9395,-1.9395,-1.9395,-1.9395,-1.9395,-1.9395,-1.9395,-1.9395,-1.9395,-1.9395,-1.9395,-1.9395,-1.9395,-1.9395,-1.8263,-1.6514,-1.5836,-1.4416,-1.2724,-1.2044,-1.1806,-1.1806,-1.1806,-1.2251,-1.2694,-1.2014,-1.2251,-1.2664,-1.2014,-1.1806,-1.1806,-1.1806,-1.1806,-1.1806,-1.1806,-1.1733,-1.1581,-1.1399,-1.1256,-1.1167,-1.111,-1.109,-1.1037,-1.0882,-1.0854,-1.0821,-1.0708,-1.0692,-1.0692,-1.0692,-1.0692,-1.0692,-1.0692,-1.0692,-1.0692,-1.0692,-1.0692,-1.0692,-1.0692,-1.0692,-1.0692,-1.0692,-1.0692,-1.0692,-1.0692,-1.0692,-1.0637,-1.05,-1.0036,-0.9734,-0.9596,-0.913,-0.8912,-0.8912,-0.8912,-0.8912,-0.8912,-0.8912,-0.8912,-0.8912,-0.8912,-0.8912,-0.8912,-0.8912,-0.8912,-0.8912,-0.8912,-0.8912,-0.8912,-1.9395,-1.9395,-1.9395,-1.9395,-1.9395,-1.9395,-1.9395,-1.9395,-1.9395,-1.9395,-1.9395,-1.9395,-1.9395,-1.9395,-1.9395,-1.9395,-1.9395,-1.9395,-1.9395,-1.9395,-1.9395,-1.9395,-1.9395,-1.9421,-1.9468,-1.9475,-1.9475,-1.9475,-1.9475,-1.9495,-1.9542,-1.9542,-1.9542,-1.9542,-1.9495,-1.9475,-1.9468,-1.9421,-1.9395,-1.9395,-1.9395,-1.8,-1.5895,-1.5688,-1.4152,-1.2104,-1.1867,-1.1806,-1.1806,-1.1806,-1.1806,-1.1806,-1.1806,-1.1806,-1.1806,-1.1806,-1.1806,-1.1806,-1.1806,-1.1806,-1.1806,-1.1806,-1.1806,-1.1766,-1.1581,-1.1427,-1.128,-1.1248,-1.124,-1.1216,-1.1074,-1.1041,-1.0992,-1.0806,-1.0781,-1.0773,-1.0745,-1.0741,-1.0729,-1.0696,-1.0692,-1.0692,-1.0692,-1.0692,-1.0692,-1.0692,-1.0692,-1.0692,-1.0692,-1.072,-1.0741,-1.0741,-1.0769,-1.0754,-1.0726,-1.0148,-0.987,-0.9819,-0.9262,-0.896,-0.8912,-0.8912,-0.8912,-0.8912,-0.8912,-0.8912,-0.8912,-0.8912,-0.8912,-0.8912,-0.8912,-0.8912,-0.8912,-0.8912,-0.8912,-0.8912,-1.9395,-1.9395,-1.9395,-1.9395,-1.9395,-1.9395,-1.9395,-1.9395,-1.9395,-1.9395,-1.9395,-1.9395,-1.9395,-1.9395,-1.9395,-1.9395,-1.9395,-1.9395,-1.9395,-1.9395,-1.9395,-1.9395,-1.9395,-1.9515,-1.9733,-1.974,-1.974,-1.974,-1.974,-1.9867,-2.0084,-2.0084,-2.0084,-2.0077,-1.9853,-1.974,-1.9726,-1.9502,-1.9395,-1.9395,-1.9395,-1.8525,-1.7132,-1.6013,-1.4708,-1.3315,-1.2191,-1.1806,-1.1806,-1.1806,-1.1806,-1.1806,-1.1806,-1.1806,-1.1806,-1.1806,-1.1806,-1.1806,-1.1806,-1.1806,-1.1806,-1.1806,-1.1806,-1.1798,-1.1774,-1.1749,-1.1654,-1.1496,-1.1459,-1.1407,-1.1224,-1.1159,-1.1151,-1.1126,-1.1122,-1.1098,-1.098,-1.096,-1.0899,-1.0712,-1.0692,-1.0692,-1.0692,-1.0692,-1.0692,-1.0692,-1.0692,-1.0692,-1.0692,-1.087,-1.096,-1.096,-1.1074,-1.1008,-1.0783,-1.0406,-1.0122,-0.9896,-0.9522,-0.9188,-0.8912,-0.8912,-0.8912,-0.8912,-0.8912,-0.8912,-0.8912,-0.8912,-0.8912,-0.8912,-0.8912,-0.8912,-0.8912,-0.8912,-0.8912,-0.8912,-1.9395,-1.9395,-1.9395,-1.9395,-1.9395,-1.9395,-1.9395,-1.9395,-1.9395,-1.9395,-1.9395,-1.9395,-1.9395,-1.9395,-1.9395,-1.9395,-1.9395,-1.9395,-1.9395,-1.9395,-1.9395,-1.9395,-1.9548,-1.9673,-1.98,-1.996,-2.012,-2.0287,-2.012,-2.0077,-2.0204,-2.0204,-2.0204,-2.0197,-2.007,-2.001,-2.0034,-1.9907,-1.9853,-1.9853,-1.9853,-1.8569,-1.6601,-1.6033,-1.449,-1.2578,-1.2014,-1.1806,-1.1806,-1.1806,-1.1806,-1.1806,-1.1806,-1.1806,-1.1806,-1.1806,-1.1806,-1.1806,-1.1806,-1.1806,-1.1806,-1.1806,-1.1806,-1.1806,-1.1806,-1.1806,-1.1782,-1.1701,-1.1654,-1.1598,-1.1411,-1.1378,-1.1342,-1.1211,-1.1195,-1.1167,-1.1122,-1.111,-1.1082,-1.0997,-1.0988,-1.0988,-1.0988,-1.0988,-1.0988,-1.0988,-1.0988,-1.0988,-1.0988,-1.1066,-1.111,-1.111,-1.1183,-1.1047,-1.0763,-1.0445,-1.0156,-0.9841,-0.9555,-0.9313,-0.9188,-0.9188,-0.9188,-0.9188,-0.9188,-0.9137,-0.9059,-0.9059,-0.9011,-0.8912,-0.8912,-0.8912,-0.8912,-0.8912,-0.8912,-0.8912]},{"header":{"parameterUnit":"m.s-1","parameterCategory":1,"la1":30.6,"la2":28.766,"lo1":-90.7593,"lo2":-88.6598,"dy":0.0162,"dx":0.0183,"nx":116,"ny":114,"refTime":"2023-05-10T12:00:00:Z","depth":0,"parameterNumber":3,"parameterNumberName":"V-component_of_WINDS"},"data":[0.0,0.0,0.0,0.0,0.0,0.0,0.0,0.0,0.0,0.0,0.0,0.0,0.0,0.0,0.0,0.0,0.0,0.0,0.0,0.0,0.0,0.0,0.0,0.0,0.0,0.0,0.0,0.0,0.0,0.0,0.0,0.0,0.0,0.0,0.0,0.0,0.0,0.0,0.0,0.0,0.0,0.0,0.0,0.0,0.0,0.0,0.0,0.0,0.0,0.0,0.0,0.0,0.0,0.0,0.0,0.0,0.0,0.0,0.0,0.0,0.0,0.0,0.0,0.0,0.0,0.0,0.0,0.0,0.0,0.0,0.0,0.0,0.0,0.0,0.0,0.0,0.0,0.0,0.0,0.0,0.0,0.0,0.0,0.0,0.0,0.0,0.0,0.0,0.0,0.0,0.0,0.0,0.0,0.0,0.0,0.0,0.0,0.0,0.0,0.0,0.0,0.0,0.0,0.0,0.0,0.0,0.0,0.0,0.0,0.0,0.0,0.0,0.0,0.0,0.0,0.0,0.0,0.0,0.0,0.0,0.0,0.0,0.0,0.0,0.0,0.0,0.0,0.0,0.0,0.0,0.0,0.0,0.0,0.0,0.0,0.0,0.0,0.0,0.0,0.0,0.0,0.0,0.0,0.0,0.0,0.0,0.0,0.0,0.0,0.0,0.0,0.0,0.0,0.0,0.0,0.0,0.0,0.0,0.0,0.0,0.0,0.0,0.0,0.0,0.0,0.0,0.0,0.0,0.0,0.0,0.0,0.0,0.0,0.0,0.0,0.0,0.0,0.0,0.0,0.0,0.0,0.0,0.0,0.0,0.0,0.0,0.0,0.0,0.0,0.0,0.0,0.0,0.0,0.0,0.0,0.0,0.0,0.0,0.0,0.0,0.0,0.0,0.0,0.0,0.0,0.0,0.0,0.0,0.0,0.0,0.0,0.0,0.0,0.0,0.0,0.0,0.0,0.0,0.0,0.0,0.0,0.0,0.0,0.0,0.0,0.0,0.0,0.0,0.0,0.0,0.0,0.0,0.0,0.0,0.0,0.0,0.0,0.0,0.0,0.0,0.0,0.0,0.0,0.0,0.0,0.0,0.0,0.0,0.0,0.0,0.0,0.0,0.0,0.0,0.0,0.0,0.0,0.0,0.0,0.0,0.0,0.0,0.0,0.0,0.0,0.0,0.0,0.0,0.0,0.0,0.0,0.0,0.0,0.0,0.0,0.0,0.0,0.0,0.0,0.0,0.0,0.0,0.0,0.0,0.0,0.0,0.0,0.0,0.0,0.0,0.0,0.0,0.0,0.0,0.0,0.0,0.0,0.0,0.0,0.0,0.0,0.0,0.0,0.0,0.0,0.0,0.0,0.0,0.0,0.0,0.0,0.0,0.0,0.0,0.0,0.0,0.0,0.0,0.0,0.0,0.0,0.0,0.0,0.0,0.0,0.0,0.0,0.0,0.0,0.0,0.0,0.0,0.0,0.0,0.0,0.0,0.0,0.0,0.0,0.0,0.0,0.0,0.0,0.0,0.0,0.0,0.0,0.0,0.0,0.0,0.0,0.0,0.0,0.0,0.0,0.0,0.0,0.0,0.0,0.0,0.0,0.0,0.0,0.0,0.0,0.0,0.0,0.0,0.0,0.0,0.0,0.0,0.0,0.0,0.0,0.0,0.0,0.0,0.0,0.0,0.0,0.0,0.0,0.0,0.0,0.0,0.0,0.0,0.0,0.0,0.0,0.0,0.0,0.0,0.0,0.0,0.0,0.0,0.0,0.0,0.0,0.0,0.0,0.0,0.0,0.0,0.0,0.0,0.0,0.0,0.0,0.0,0.0,0.0,0.0,0.0,0.0,0.0,0.0,0.0,0.0,0.0,0.0,0.0,0.0,0.0,0.0,0.0,0.0,0.0,0.0,0.0,0.0,0.0,0.0,0.0,0.0,0.0,0.0,0.0,0.0,0.0,0.0,0.0,0.0,0.0,0.0,0.0,0.0,0.0,0.0,0.0,0.0,0.0,0.0,0.0,0.0,0.0,0.0,0.0,0.0,0.0,0.0,0.0,0.0,0.0,0.0,0.0,0.0,0.0,0.0,0.0,0.0,0.0,0.0,0.0,0.0,0.0,0.0,0.0,0.0,0.0,0.0,0.0,0.0,0.0,0.0,0.0,0.0,0.0,0.0,0.0,0.0,0.0,0.0,0.0,0.0,0.0,0.0,0.0,0.0,0.0,0.0,0.0,0.0,0.0,0.0,0.0,0.0,0.0,0.0,0.0,0.0,0.0,0.0,0.0,0.0,0.0,0.0,0.0,0.0,0.0,0.0,0.0,0.0,0.0,0.0,0.0,0.0,0.0,0.0,0.0,0.0,0.0,0.0,0.0,0.0,0.0,0.0,0.0,0.0,0.0,0.0,0.0,0.0,0.0,0.0,0.0,0.0,0.0,0.0,0.0,0.0,0.0,0.0,0.0,0.0,0.0,0.0,0.0,0.0,0.0,0.0,0.0,0.0,0.0,0.0,0.0,0.0,0.0,0.0,0.0,0.0,0.0,0.0,0.0,0.0,0.0,0.0,0.0,0.0,0.0,0.0,0.0,0.0,0.0,0.0,0.0,0.0,0.0,0.0,0.0,0.0,0.0,0.0,0.0,0.0,0.0,0.0,0.0,0.0,0.0,0.0,0.0,0.0,0.0,0.0,0.0,0.0,0.0,0.0,0.0,0.0,0.0,0.0,0.0,0.0,0.0,0.0,0.0,0.0,0.0,0.0,0.0,0.0,0.0,0.0,0.0,0.0,0.0,0.0,0.0,0.0,0.0,0.0,0.0,0.0,0.0,0.0,0.0,0.0,0.0,0.0,0.0,0.0,0.0,0.0,0.0,0.0,0.0,0.0,0.0,0.0,0.0,0.0,0.0,0.0,0.0,0.0,0.0,0.0,0.0,0.0,0.0,0.0,0.0,0.0,0.0,0.0,0.0,0.0,0.0,0.0,0.0,0.0,0.0,0.0,0.0,0.0,0.0,0.0,0.0,0.0,0.0,0.0,0.0,0.0,0.0,0.0,0.0,0.0,0.0,0.0,0.0,0.0,0.0,0.0,0.0,0.0,0.0,0.0,0.0,0.0,0.0,0.0,0.0,0.0,0.0,0.0,0.0,0.0,0.0,0.0,0.0,0.0,0.0,0.0,0.0,0.0,0.0,0.0,0.0,0.0,0.0,0.0,0.0,0.0,0.0,0.0,0.0,0.0,0.0,0.0,0.0,0.0,0.0,0.0,0.0,0.0,0.0,0.0,0.0,0.0,0.0,0.0,0.0,0.0,0.0,0.0,0.0,0.0,0.0,0.0,0.0,0.0,0.0,0.0,0.0,0.0,0.0,0.0,0.0,0.0,0.0,0.0,0.0,0.0,0.0,0.0,0.0,0.0,0.0,0.0,0.0,0.0,0.0,0.0,0.0,0.0,0.0,0.0,0.0,0.0,0.0,0.0,0.0,0.0,0.0,0.0,0.0,0.0,0.0,0.0,0.0,0.0,0.0,0.0,0.0,0.0,0.0,0.0,0.0,0.0,0.0,0.0,0.0,0.0,0.0,0.0,0.0,0.0,0.0,0.0,0.0,0.0,0.0,0.0,0.0,0.0,0.0,0.0,0.0,0.0,0.0,0.0,0.0,0.0,0.0,0.0,0.0,0.0,0.0,0.0,0.0,0.0,0.0,0.0,0.0,0.0,0.0,0.0,0.0,0.0,0.0,0.0,0.0,0.0,0.0,0.0,0.0,0.0,0.0,0.0,0.0,0.0,0.0,0.0,0.0,0.0,0.0,0.0,0.0,0.0,0.0,0.0,0.0,0.0,0.0,0.0,0.0,0.0,0.0,0.0,0.0,0.0,0.0,0.0,0.0,0.0,0.0,0.0,0.0,0.0,0.0,0.0,0.0,0.0,0.0,0.0,0.0,0.0,0.0,0.0,0.0,0.0,0.0,0.0,0.0,0.0,0.0,0.0,0.0,0.0,0.0,0.0,0.0,0.0,0.0,0.0,0.0,0.0,0.0,0.0,0.0,0.0,0.0,0.0,0.0,0.0,0.0,0.0,0.0,0.0,0.0,0.0,0.0,0.0,0.0,0.0,0.0,0.0,0.0,0.0,0.0,0.0,0.0,0.0,0.0,0.0,0.0,0.0,0.0,0.0,0.0,0.0,0.0,0.0,0.0,0.0,0.0,0.0,0.0,0.0,0.0,0.0,0.0,0.0,0.0,0.0,0.0,0.0,0.0,0.0,0.0,0.0,0.0,0.0,0.0,0.0,0.0,0.0,0.0,0.0,0.0,0.0,0.0,0.0,0.0,0.0,0.0,0.0,0.0,0.0,0.0,0.0,0.0,0.0,0.0,0.0,0.0,0.0,0.0,0.0,0.0,0.0,0.0,0.0,0.0,0.0,0.0,0.0,0.0,0.0,0.0,0.0,0.0,0.0,0.0,0.0,0.0,0.0,0.0,0.0,0.0,0.0,0.0,0.0,0.0,0.0,0.0,0.0,0.0,0.0,0.0,0.0,0.0,0.0,0.0,0.0,0.0,0.0,0.0,0.0,0.0,0.0,0.0,0.0,0.0,0.0,0.0,0.0,0.0,0.0,0.0,0.0,0.0,0.0,0.0,0.0,0.0,0.0,0.0,0.0,0.0,0.0,0.0,0.0,0.0,0.0,0.0,0.0,0.0,0.0,0.0,0.0,0.0,0.0,0.0,0.0,0.0,0.0,0.0,0.0,0.0,0.0,0.0,0.0,0.0,0.0,0.0,0.0,0.0,0.0,0.0,0.0,0.0,0.0,0.0,0.0,0.0,0.0,0.0,0.0,0.0,0.0,0.0,0.0,0.0,0.0,0.0,0.0,0.0,0.0,0.0,0.0,0.0,0.0,0.0,0.0,0.0,0.0,0.0,0.0,0.0,0.0,0.0,0.0,0.0,0.0,0.0,0.0,0.0,0.0,0.0,0.0,0.0,0.0,0.0,0.0,0.0,0.0,0.0,0.0,0.0,0.0,0.0,0.0,0.0,0.0,0.0,0.0,0.0,0.0,0.0,0.0,0.0,0.0,0.0,0.0,0.0,0.0,0.0,0.0,0.0,0.0,0.0,0.0,0.0,0.0,0.0,0.0,0.0,0.0,0.0,0.0,0.0,0.0,0.0,0.0,0.0,0.0,0.0,0.0,0.0,0.0,0.0,0.0,0.0,0.0,0.0,0.0,0.0,0.0,0.0,0.0,0.0,0.0,0.0,0.0,0.0,0.0,0.0,0.0,0.0,0.0,0.0,0.0,0.0,0.0,0.0,0.0,0.0,0.0,0.0,0.0,0.0,0.0,0.0,0.0,0.0,0.0,0.0,0.0,0.0,0.0,0.0,0.0,0.0,0.0,0.0,0.0,0.0,0.0,0.0,0.0,0.0,0.0,0.0,0.0,0.0,0.0,0.0,0.0,0.0,0.0,0.0,0.0,0.0,0.0,0.0,0.0,0.0,0.0,0.0,0.0,0.0,0.0,0.0,0.0,0.0,0.0,0.0,0.0,0.0,0.0,0.0,0.0,0.0,0.0,0.0,0.0,0.0,0.0,0.0,0.0,0.0,0.0,0.0,0.0,0.0,0.0,0.0,0.0,0.0,0.0,0.0,0.0,0.0,0.0,0.0,0.0,0.0,0.0,0.0,0.0,0.0,0.0,0.0,0.0,0.0,0.0,0.0,0.0,0.0,0.0,0.0,0.0,0.0,0.0,0.0,0.0,0.0,0.0,0.0,0.0,0.0,0.0,0.0,0.0,0.0,0.0,0.0,0.0,0.0,0.0,0.0,0.0,0.0,0.0,0.0,0.0,0.0,0.0,0.0,0.0,0.0,0.0,0.0,0.0,0.0,0.0,0.0,0.0,0.0,0.0,0.0,0.0,0.0,0.0,0.0,0.0,0.0,0.0,0.0,0.0,0.0,0.0,0.0,0.0,0.0,0.0,0.0,0.0,0.0,0.0,0.0,0.0,0.0,0.0,0.0,0.0,0.0,0.0,0.0,0.0,0.0,0.0,0.0,0.0,0.0,0.0,0.0,0.0,0.0,0.0,0.0,0.0,0.0,0.0,0.0,2.2222,0.0,0.0,0.0,0.0,0.0,0.0,0.0,0.0,0.0,0.0,0.0,0.0,0.0,0.0,0.0,0.0,0.0,0.0,0.0,0.0,0.0,0.0,0.0,0.0,0.0,0.0,0.0,0.0,0.0,0.0,0.0,0.0,0.0,0.0,0.0,0.0,0.0,0.0,2.5604,2.5145,2.4716,2.428,2.338,2.2475,2.1625,0.0,0.0,0.0,0.0,0.0,0.0,0.0,0.0,0.0,0.0,0.0,0.0,0.0,0.0,0.0,0.0,0.0,0.0,0.0,0.0,0.0,0.0,0.0,0.0,0.0,0.0,0.0,0.0,0.0,0.0,0.0,0.0,0.0,0.0,0.0,0.0,0.0,0.0,0.0,0.0,0.0,0.0,0.0,0.0,0.0,0.0,0.0,0.0,0.0,0.0,0.0,0.0,0.0,0.0,0.0,0.0,0.0,0.0,0.0,0.0,0.0,0.0,0.0,0.0,0.0,0.0,0.0,0.0,0.0,0.0,0.0,2.3219,0.0,0.0,0.0,0.0,0.0,0.0,0.0,0.0,0.0,0.0,0.0,0.0,0.0,0.0,0.0,0.0,0.0,0.0,0.0,0.0,0.0,0.0,0.0,2.4627,2.492,2.564,2.5699,2.5699,0.0,0.0,0.0,0.0,0.0,0.0,2.5699,2.5643,2.5615,2.5615,2.5765,2.5451,2.475,2.4911,2.4595,2.3859,2.2526,0.0,0.0,0.0,0.0,0.0,0.0,0.0,0.0,0.0,0.0,0.0,0.0,0.0,0.0,0.0,0.0,0.0,0.0,0.0,0.0,0.0,0.0,0.0,0.0,0.0,0.0,0.0,0.0,0.0,0.0,0.0,0.0,0.0,0.0,0.0,0.0,0.0,0.0,0.0,0.0,0.0,0.0,0.0,0.0,0.0,0.0,0.0,0.0,0.0,0.0,0.0,0.0,0.0,0.0,0.0,0.0,0.0,0.0,0.0,0.0,0.0,0.0,0.0,2.7178,2.7512,2.7494,2.7494,2.7494,2.7399,2.5571,2.496,2.5239,2.4806,0.0,0.0,0.0,0.0,0.0,0.0,0.0,0.0,0.0,0.0,0.0,0.0,0.0,0.0,0.0,0.0,0.0,0.0,0.0,0.0,0.0,2.5524,2.5563,2.5699,2.5699,2.5699,2.5699,0.0,0.0,0.0,0.0,0.0,2.5699,2.5696,2.5695,2.5695,2.6392,2.6665,2.6569,2.7327,2.7619,2.7384,2.4235,2.2832,2.2769,0.0,0.0,0.0,0.0,0.0,0.0,0.0,0.0,0.0,0.0,0.0,0.0,0.0,0.0,0.0,0.0,0.0,0.0,0.0,0.0,0.0,0.0,0.0,0.0,0.0,0.0,0.0,0.0,0.0,0.0,0.0,0.0,0.0,0.0,0.0,0.0,0.0,0.0,0.0,0.0,0.0,2.5292,2.5292,0.0,0.0,0.0,0.0,0.0,0.0,0.0,0.0,0.0,0.0,0.0,0.0,0.0,2.7437,2.7437,2.7546,2.7523,2.7423,2.7537,2.7565,2.7494,2.7494,2.7494,2.7471,2.7195,0.0,2.7074,2.6279,0.0,0.0,0.0,0.0,0.0,0.0,0.0,0.0,0.0,0.0,0.0,0.0,0.0,0.0,0.0,0.0,0.0,0.0,0.0,0.0,0.0,2.5638,2.5656,2.5692,2.5691,2.5708,2.5703,2.5703,0.0,0.0,0.0,2.5704,2.5704,2.5704,2.5945,2.6426,2.7265,2.7669,2.7635,2.8025,2.819,2.8132,2.6597,2.5375,2.437,2.3054,0.0,0.0,0.0,0.0,0.0,0.0,0.0,0.0,0.0,0.0,0.0,0.0,0.0,0.0,0.0,0.0,0.0,0.0,0.0,0.0,0.0,0.0,0.0,0.0,0.0,0.0,0.0,0.0,0.0,0.0,0.0,0.0,0.0,0.0,0.0,0.0,0.0,0.0,0.0,2.5383,2.5557,2.6075,2.614,2.6343,0.0,0.0,0.0,0.0,0.0,0.0,0.0,0.0,0.0,2.7829,2.7822,2.8025,2.8472,2.8957,2.9417,2.9854,3.0311,3.0517,3.0475,3.0475,3.0475,3.0475,3.0475,3.0475,3.0293,2.792,2.6921,2.6902,0.0,0.0,0.0,0.0,2.641,2.641,0.0,0.0,0.0,0.0,0.0,0.0,0.0,0.0,0.0,0.0,0.0,0.0,2.5603,2.5602,2.5623,2.5664,2.5664,2.5684,2.5702,2.5701,2.5698,2.5707,2.5706,2.5804,2.6038,2.6253,2.6688,2.7321,2.8415,2.892,2.887,2.9319,2.9522,2.9513,2.9065,2.7903,2.6143,2.4463,2.3712,2.3621,0.0,0.0,0.0,0.0,0.0,0.0,0.0,0.0,0.0,0.0,0.0,0.0,0.0,0.0,0.0,0.0,0.0,0.0,0.0,0.0,0.0,0.0,0.0,0.0,0.0,0.0,0.0,0.0,0.0,0.0,0.0,0.0,0.0,0.0,0.0,0.0,0.0,2.6143,2.6387,2.708,2.7155,2.7405,0.0,0.0,0.0,0.0,0.0,0.0,2.8609,2.8625,2.8803,2.9221,2.9225,2.949,3.0094,3.0731,3.1364,3.1998,3.2586,3.2859,3.2833,3.2833,3.2833,3.2833,3.2833,3.2833,3.259,2.9732,2.8416,2.8184,2.7975,2.7762,2.7584,2.7584,2.7584,2.7584,0.0,0.0,0.0,0.0,0.0,0.0,0.0,0.0,0.0,0.0,0.0,2.5602,2.5602,2.5602,2.5602,2.5603,2.5603,2.5624,2.5703,2.5703,2.5703,2.57,2.5699,2.609,2.691,2.775,2.818,2.8239,2.986,3.0661,3.0719,3.236,3.3135,3.3075,3.1418,2.9707,2.7955,2.6202,2.5471,2.5313,2.366,0.0,0.0,0.0,0.0,0.0,0.0,0.0,0.0,0.0,0.0,0.0,0.0,0.0,0.0,0.0,0.0,0.0,0.0,0.0,0.0,0.0,0.0,0.0,0.0,0.0,0.0,0.0,0.0,0.0,0.0,0.0,0.0,0.0,0.0,0.0,0.0,0.0,0.0,2.8129,2.8132,0.0,0.0,0.0,0.0,2.8092,2.8105,2.8815,3.0467,3.0563,3.1352,3.3053,3.3063,3.3046,3.3085,3.3054,3.3046,3.3023,3.3062,3.3025,3.2894,3.2894,3.2894,3.2894,3.2894,3.2894,3.2828,3.1818,3.0913,3.0084,2.9246,2.8451,2.7787,2.7787,2.7787,2.7787,0.0,0.0,0.0,0.0,0.0,0.0,0.0,0.0,2.5597,2.5597,2.5597,2.5592,2.5597,2.6101,2.6437,2.6449,2.6957,2.7275,2.7309,2.731,2.7318,2.7313,2.7314,2.7453,2.777,2.9175,2.9916,2.9916,3.1635,3.2477,3.248,3.3105,3.3398,3.337,3.2753,3.2136,3.1364,2.8488,2.7265,2.7168,2.5994,2.5193,0.0,0.0,0.0,0.0,0.0,0.0,0.0,0.0,0.0,0.0,0.0,0.0,0.0,0.0,0.0,0.0,0.0,0.0,0.0,0.0,0.0,0.0,0.0,0.0,0.0,0.0,0.0,0.0,0.0,0.0,0.0,0.0,0.0,0.0,0.0,0.0,0.0,2.897,2.9528,0.0,3.0658,3.1195,3.1501,3.1501,3.1474,3.1717,3.234,3.2333,3.26,3.3242,3.325,3.3494,3.4073,3.4043,3.4317,3.4835,3.4835,3.4805,3.4763,3.4763,3.4763,3.4763,3.4763,3.4763,3.4741,3.4439,3.3384,3.1947,3.1571,3.1293,3.1074,3.1028,3.1012,3.1012,0.0,0.0,0.0,0.0,0.0,0.0,0.0,0.0,2.5594,2.5594,2.5594,2.5703,2.6012,2.6554,2.7009,2.7278,2.7823,2.8186,2.8192,2.8193,2.8207,2.8194,2.8768,2.9072,2.9085,3.0782,3.1679,3.1679,3.3124,3.3832,3.3841,3.4134,3.4275,3.4257,3.3979,3.3835,3.3673,3.1053,2.9606,2.8989,2.7801,2.7023,2.6458,0.0,0.0,0.0,0.0,0.0,0.0,0.0,0.0,0.0,0.0,0.0,0.0,0.0,0.0,0.0,0.0,0.0,0.0,0.0,0.0,0.0,0.0,0.0,0.0,0.0,0.0,0.0,0.0,0.0,0.0,0.0,0.0,0.0,0.0,0.0,2.9849,3.0705,3.1328,3.1895,3.2482,3.3066,3.3397,3.3397,3.3359,3.3445,3.3718,3.3699,3.3806,3.4098,3.4117,3.4388,3.4968,3.4968,3.5258,3.584,3.584,3.584,3.584,3.584,3.584,3.584,3.584,3.584,3.5838,3.5825,3.5068,3.3877,3.3514,3.3219,3.2998,3.2957,3.2924,3.2924,0.0,0.0,0.0,0.0,0.0,0.0,2.56,2.56,2.56,2.56,2.56,2.5931,2.6808,2.6925,2.7252,2.8063,2.816,2.8214,2.8265,2.8286,2.8296,2.8317,2.9945,3.0843,3.0876,3.2556,3.3434,3.3434,3.4314,3.4744,3.4764,3.5602,3.6003,3.5955,3.5115,3.4746,3.4684,3.3809,3.2477,3.0766,2.8991,2.8269,2.8152,0.0,0.0,0.0,0.0,0.0,0.0,0.0,0.0,0.0,0.0,0.0,0.0,0.0,0.0,0.0,0.0,0.0,0.0,0.0,0.0,0.0,0.0,0.0,0.0,0.0,0.0,0.0,0.0,0.0,0.0,0.0,0.0,0.0,3.2094,3.2113,3.2443,3.33,3.3417,3.3436,3.3436,3.3456,3.3475,3.3475,3.3475,3.3826,3.4604,3.4663,3.5072,3.591,3.5968,3.5988,3.5988,3.5988,3.5988,3.5988,3.5988,3.5988,3.5988,3.5988,3.5988,3.5988,3.5988,3.5988,3.5985,3.5975,3.5981,3.5883,3.492,3.4037,3.3285,3.3283,3.3283,3.3283,0.0,0.0,0.0,0.0,0.0,0.0,2.56,2.56,2.56,2.56,2.56,2.5931,2.6808,2.7427,2.8104,2.8979,2.9622,2.9996,3.0004,3.0006,3.0299,3.0925,3.1409,3.1975,3.2601,3.3693,3.4268,3.4268,3.5149,3.5569,3.5584,3.5818,3.5946,3.5982,3.5758,3.5644,3.5586,3.4703,3.4072,3.3421,3.104,2.971,2.9048,0.0,0.0,0.0,0.0,0.0,0.0,0.0,0.0,0.0,0.0,0.0,0.0,0.0,0.0,0.0,0.0,0.0,0.0,0.0,0.0,0.0,0.0,0.0,0.0,0.0,0.0,0.0,0.0,0.0,0.0,0.0,0.0,3.2815,3.2189,3.2634,3.3125,3.3378,3.3904,3.4273,3.4273,3.4838,3.5208,3.5208,3.5208,3.5306,3.5539,3.6142,3.659,3.6844,3.7467,3.7798,3.7798,3.7798,3.7798,3.7798,3.7798,3.7798,3.7798,3.7798,3.7798,3.7798,3.7798,3.7798,3.7797,3.7789,3.7791,3.7637,3.6065,3.5333,3.5145,3.5092,3.51,3.51,0.0,0.0,0.0,0.0,0.0,0.0,2.56,2.56,2.56,2.56,2.56,2.5931,2.6808,2.762,2.8453,2.9329,3.0206,3.0694,3.0694,3.1042,3.1474,3.1974,3.2696,3.3334,3.383,3.4707,3.5146,3.5146,3.5655,3.5898,3.5892,3.5892,3.5924,3.5963,3.5958,3.5966,3.597,3.5469,3.5039,3.457,3.3047,3.1698,3.0498,2.9613,2.9056,2.8699,2.8325,2.7873,2.7431,2.7431,0.0,0.0,0.0,0.0,0.0,0.0,0.0,0.0,0.0,0.0,0.0,0.0,0.0,0.0,0.0,0.0,0.0,0.0,0.0,0.0,0.0,0.0,0.0,0.0,3.3378,3.3766,3.3255,3.3632,3.4085,3.4456,3.5197,3.5685,3.5685,3.6486,3.6994,3.6994,3.6994,3.6994,3.6994,3.7461,3.7734,3.7734,3.8245,3.8508,3.8508,3.851,3.85,3.85,3.85,3.85,3.85,3.85,3.85,3.85,3.85,3.85,3.85,3.85,3.8492,0.0,0.0,0.0,0.0,0.0,3.694,3.694,0.0,0.0,0.0,0.0,0.0,0.0,2.56,2.56,2.56,2.56,2.56,2.5931,2.6808,2.762,2.8453,2.9329,3.0206,3.0731,3.0847,3.1563,3.2082,3.2271,3.3753,3.4622,3.4723,3.5488,3.5898,3.5898,3.5898,3.588,3.5904,3.5907,3.5902,3.5903,3.5906,3.5936,3.5991,3.5989,3.5543,3.4841,3.4844,3.3802,3.2167,3.1381,3.0549,2.9689,2.8916,2.8519,2.8359,2.8359,0.0,0.0,0.0,0.0,0.0,0.0,0.0,0.0,0.0,0.0,0.0,0.0,0.0,0.0,0.0,0.0,0.0,0.0,0.0,0.0,0.0,0.0,0.0,0.0,3.4353,3.5,3.4998,3.5078,3.5389,3.607,3.685,3.7359,3.7359,3.8043,3.8493,3.8493,3.8493,3.8493,3.8493,0.0,0.0,0.0,0.0,3.8799,3.8799,3.8789,3.8788,3.8788,3.8788,3.8788,3.8788,3.8788,3.8788,3.8788,3.8788,3.8788,3.8788,3.8788,3.8791,3.8777,3.8584,3.8504,3.85,3.85,3.85,3.85,0.0,0.0,0.0,0.0,0.0,0.0,2.56,2.56,2.56,2.56,2.56,2.5931,2.6808,2.762,2.8453,2.9329,3.0206,3.1003,3.1698,3.191,3.2596,3.3967,3.4336,3.4843,3.5547,3.5722,3.5821,3.5821,3.5821,3.5859,3.5892,3.5898,3.5893,3.5898,3.5899,3.5909,3.5913,3.5919,3.5851,3.5744,3.5748,3.4705,3.312,3.2966,3.2358,3.1572,3.1418,3.0442,2.9249,2.9249,2.8819,2.8253,2.8077,2.8038,0.0,0.0,0.0,0.0,0.0,0.0,0.0,0.0,0.0,0.0,0.0,0.0,0.0,0.0,0.0,0.0,0.0,0.0,0.0,3.4451,3.5778,3.6803,3.68,3.7408,3.7632,3.7048,3.773,3.8258,3.8258,3.8395,3.8493,3.8493,3.8493,3.8493,3.8493,3.9176,3.9546,3.9546,4.0227,4.0596,4.0596,4.0593,4.0591,4.0591,0.0,0.0,4.0591,4.0591,4.0591,4.0591,4.0591,4.0591,4.0591,4.0591,4.0593,4.0458,3.905,3.8493,3.85,3.85,3.85,3.85,0.0,0.0,0.0,0.0,0.0,0.0,2.56,2.56,2.56,2.56,2.56,2.5776,2.6205,2.7366,2.8277,2.8706,2.9952,3.1081,3.1949,3.2417,3.3196,3.4441,3.4925,3.535,3.5795,3.5795,3.5795,3.5795,3.5795,3.5826,3.585,3.5849,3.5869,3.5908,3.5898,3.5909,3.589,3.5902,3.5926,3.5946,3.5946,3.5434,3.4614,3.4195,3.3516,3.2692,3.2265,3.1542,3.0739,3.0309,2.9879,2.9469,2.904,2.8903,2.8903,0.0,0.0,0.0,0.0,0.0,0.0,0.0,0.0,0.0,0.0,0.0,0.0,0.0,0.0,3.4054,0.0,0.0,3.5998,3.5967,3.7047,3.7907,3.7895,3.8647,3.8882,3.8005,3.8631,3.9157,3.9157,3.9548,3.9802,3.9802,3.9802,3.9802,3.9802,4.0213,4.0447,4.0447,4.0879,4.1093,4.1093,4.109,4.1107,4.1107,4.1107,4.1107,4.1107,4.1107,4.1107,4.1107,4.1107,4.1107,4.1108,4.1093,4.1092,4.101,4.0132,3.9791,3.9808,3.9808,3.9808,3.9808,0.0,0.0,0.0,0.0,0.0,0.0,0.0,2.56,2.56,2.56,2.56,2.56,2.56,2.7094,2.8238,2.8589,2.9894,3.1081,3.1949,3.2825,3.3662,3.4461,3.5331,3.5795,3.5795,3.5795,3.5795,3.5795,3.5795,3.5795,3.5795,3.5805,3.5844,3.5872,3.5887,3.5901,3.5903,3.5904,3.5904,3.591,3.591,3.591,3.5836,3.5172,3.4403,3.3535,3.2652,3.2224,3.1973,3.1094,3.0801,3.0683,2.9961,2.9746,2.9746,2.9746,2.9746,0.0,0.0,0.0,0.0,0.0,0.0,0.0,0.0,0.0,3.3546,3.3546,3.4419,3.5172,3.5172,3.6455,3.7495,3.7435,3.8156,3.8736,3.873,3.9473,3.9789,3.9144,3.9656,4.0048,4.0048,4.0689,4.1079,4.1079,4.1079,4.1079,4.1079,4.1234,4.1332,4.1332,4.1506,4.1591,4.1591,4.1581,4.1582,4.1582,4.1582,4.1582,4.1582,4.1601,4.1601,4.1601,4.1425,4.1347,4.1347,4.117,4.1093,4.1093,4.1092,4.1093,4.1092,4.1109,4.1107,4.1107,0.0,0.0,0.0,0.0,0.0,0.0,0.0,0.0,2.56,2.56,2.56,2.56,2.56,2.7094,2.8725,3.0265,3.0595,3.1081,3.1949,3.2825,3.3662,3.4461,3.5331,3.5795,3.5795,3.5795,3.5795,3.5795,3.5795,3.5795,3.5797,3.5857,3.5857,3.5805,3.587,3.5906,3.5908,3.5892,3.5908,3.591,3.591,3.591,3.589,3.5799,3.5255,3.4436,3.3497,3.2704,3.1976,3.1081,3.0795,3.0787,3.069,3.0658,3.065,3.065,3.0644,3.0682,3.0774,3.1376,3.2153,3.2964,3.3175,3.3195,0.0,0.0,3.4442,3.4442,3.5728,3.6839,3.6839,3.7622,3.8266,3.8261,3.901,3.9573,3.957,4.0313,4.0823,4.0748,4.0869,4.0942,4.0942,4.0999,4.1003,4.1003,4.1003,4.1003,4.1003,4.1743,4.2172,4.2172,4.2916,4.3328,4.3328,4.3313,4.3316,4.3316,4.3323,4.3315,4.3316,4.3374,4.3419,4.3361,4.2599,4.2247,4.2188,4.1425,4.1095,4.1097,4.1094,4.1095,4.1101,4.1093,4.1107,4.1107,0.0,0.0,0.0,0.0,0.0,0.0,0.0,0.0,0.0,2.56,2.56,2.56,2.56,2.7094,2.8803,3.0556,3.0694,3.1081,3.1949,3.2825,3.3662,3.4461,3.5331,3.5795,3.5795,3.5795,3.5795,3.5795,3.5795,3.5795,3.5795,3.5834,3.5834,3.5797,3.5863,3.5887,3.5846,3.5872,3.5877,3.5849,3.5849,3.5849,3.579,3.5288,3.4901,3.452,3.3629,3.278,0.0,3.1097,3.0808,3.0795,3.0804,3.0808,3.0795,3.0804,3.1151,3.1653,3.2122,3.2514,3.2988,3.3805,3.4386,3.489,3.5396,3.6195,3.6817,3.6817,3.7368,3.7859,3.7859,3.858,3.9151,0.0,3.9898,4.0446,4.0402,4.0752,4.0999,4.0999,4.1013,4.1049,4.1048,4.1019,4.0992,4.0992,4.1477,4.175,4.175,4.2588,4.3056,4.3056,4.3406,4.3601,4.3601,4.3601,4.3601,4.3601,4.3596,4.3604,4.3604,4.3638,4.3633,4.3628,4.3309,4.3157,4.3138,4.2768,4.2611,4.2611,4.2611,4.2299,4.1793,4.1282,4.109,4.109,0.0,0.0,0.0,0.0,0.0,0.0,0.0,0.0,0.0,0.0,2.56,2.5774,2.6241,2.7366,2.8803,3.0556,3.0694,3.0964,3.1601,3.2456,3.3196,3.3798,3.4866,3.5447,3.5447,3.5678,3.5795,3.5795,3.5795,3.5795,3.5795,3.5795,3.5795,3.5797,3.585,3.5846,3.5797,3.5852,3.5846,3.5795,3.5795,3.5659,3.5369,3.4732,3.4246,3.3806,3.317,3.2561,3.1944,3.1076,3.0764,3.0769,3.0762,3.0765,3.0828,3.1052,3.175,3.2602,3.3414,3.3817,3.4187,3.5004,3.5877,3.6671,3.7314,3.7957,3.8406,3.8406,3.8583,3.8757,3.8757,3.9464,4.0038,4.0029,4.0567,4.1043,4.1223,4.1306,4.1425,4.1656,4.1695,4.1688,4.1698,4.1468,4.1429,4.1661,4.2264,4.2634,4.2634,4.3452,4.394,4.394,4.4154,4.425,4.425,4.425,4.425,4.4252,4.4283,4.4288,4.4288,4.4318,4.4319,4.4304,4.4116,4.4027,4.4009,4.378,4.3705,4.3705,4.3705,4.3314,4.2689,4.2045,4.1518,4.1109,0.0,0.0,0.0,0.0,0.0,0.0,0.0,0.0,0.0,0.0,0.0,0.0,0.0,2.8063,2.8803,3.0556,3.0694,3.0713,3.0731,3.1563,3.2046,3.2066,3.3662,3.4538,3.4538,3.5369,3.5795,3.5795,3.5795,3.5795,3.5795,3.5795,3.5795,3.5795,3.5797,3.5797,3.5795,3.5797,3.5797,3.5795,3.5795,3.5292,3.4538,3.4519,3.3487,3.2087,3.205,3.2021,3.1875,3.1002,3.0698,3.0699,3.0706,3.0699,3.0872,3.1711,3.2576,3.3433,3.4249,3.508,3.5931,3.6809,3.7685,3.8328,3.8348,3.8387,3.8406,3.8406,3.9064,3.9664,3.9664,4.0327,4.0854,4.0851,4.089,4.1201,4.2036,4.2155,4.2486,4.3316,4.3413,4.3413,0.0,4.266,4.2507,4.3357,4.3454,4.3454,4.3454,4.4292,4.4758,4.4758,4.5519,4.5927,4.5927,4.5927,4.5927,4.5927,4.5998,4.602,4.6022,4.6084,4.6119,4.6065,4.5237,4.4859,4.4803,4.4028,4.3705,4.3705,4.3705,4.3685,4.3666,4.3626,4.2553,4.1109,0.0,0.0,0.0,0.0,0.0,0.0,0.0,0.0,0.0,0.0,0.0,0.0,0.0,0.0,0.0,0.0,3.0694,3.0694,3.0694,3.1524,3.2007,3.2007,3.3099,3.3701,3.3701,3.3992,3.44,3.4944,3.4944,3.5233,3.5795,3.5795,3.5795,3.5795,3.5795,3.5795,3.5795,3.5795,3.5467,3.4944,3.4944,3.4439,3.3643,3.3058,3.2495,3.191,0.0,3.1148,3.1082,3.0794,3.0676,3.0632,3.0637,3.0974,3.1635,3.3046,3.372,3.4327,3.5711,3.6366,3.6867,3.7743,3.8615,3.9256,3.9256,3.9684,4.0055,4.0055,4.0262,4.0436,4.0436,4.0649,4.0823,4.0823,4.1359,4.1862,4.2153,4.2626,4.3047,4.3337,4.3376,0.0,0.0,0.0,0.0,4.3488,4.4032,4.4365,4.4365,4.5144,4.5591,4.5591,4.5863,4.5999,4.5999,4.5999,4.5999,4.5999,4.602,4.6027,4.603,4.6148,4.6197,4.6181,4.5941,4.5821,4.5802,4.5537,4.5422,4.5422,4.5422,4.507,4.4563,4.4563,4.3821,4.2826,0.0,0.0,0.0,0.0,0.0,0.0,0.0,0.0,0.0,0.0,0.0,0.0,0.0,0.0,0.0,0.0,0.0,2.9777,2.9777,3.03,3.0609,3.0609,3.1739,3.2363,3.2363,3.2982,3.3546,3.4072,3.4072,3.4361,3.4903,3.4903,3.4903,3.4903,3.4903,3.4903,3.4903,3.4903,3.4575,3.4072,3.4072,3.3565,3.2767,3.2202,3.1813,0.0,3.0906,3.068,3.0661,3.0661,3.0635,3.0651,3.0912,3.1732,3.2802,3.3882,3.4695,3.5497,3.6571,3.7365,3.8022,3.8589,3.9384,4.0023,4.0023,4.0411,4.0782,4.0782,4.0753,4.0729,4.0729,4.0729,4.0729,4.0729,4.1497,4.2197,4.2488,4.3233,4.3889,4.4183,4.4253,4.4471,0.0,0.0,0.0,4.4384,4.4909,4.5222,4.5222,4.5727,4.5999,4.5999,4.5999,4.5999,4.5999,4.5999,4.5999,4.5999,4.5999,4.5999,4.6002,4.6089,4.6134,4.6121,4.6213,4.6258,4.6278,4.6294,4.6301,4.6301,4.6301,4.5968,4.546,4.546,4.5109,4.4544,0.0,0.0,0.0,0.0,0.0,0.0,0.0,0.0,0.0,0.0,0.0,0.0,0.0,0.0,0.0,0.0,0.0,0.0,2.8102,2.8102,2.81,2.8099,2.9737,3.0634,3.063,3.2302,3.3196,3.3235,3.3235,3.3254,3.3293,3.3293,3.3293,3.3293,3.3293,3.3293,3.3293,3.3293,3.3274,3.3235,3.3235,3.2708,3.193,3.193,3.1428,3.0694,3.0694,3.0655,3.06,3.06,3.0612,3.0786,3.1527,3.2865,3.4214,3.4291,3.5489,3.6807,3.6903,3.8083,3.9304,3.9362,3.9986,4.0591,4.0591,4.0591,4.0591,4.0533,4.053,4.0526,0.0,0.0,4.0546,4.0584,4.1333,4.2182,4.2983,4.3958,4.4908,0.0,0.0,0.0,0.0,0.0,0.0,4.5986,0.0,4.5999,4.5999,4.5999,4.5999,4.5999,4.5999,4.5999,4.5999,4.5999,4.5999,4.5999,4.5999,4.5999,4.5999,4.6002,4.6004,4.601,4.6144,4.6199,4.6206,4.6262,4.63,4.6301,4.6301,4.6301,4.6301,4.6301,4.6301,4.6066,0.0,0.0,0.0,0.0,0.0,0.0,0.0,0.0,0.0,0.0,0.0,0.0,0.0,0.0,0.0,0.0,0.0,0.0,2.8102,2.8102,2.8087,2.8032,2.9117,2.9702,2.966,3.0789,3.1681,3.2338,3.2338,3.267,3.3293,3.3293,3.3293,3.3293,3.3293,3.3293,3.3293,3.3293,3.2922,3.2338,3.2338,3.1815,3.1022,3.1022,3.0886,3.0694,3.0694,3.0655,3.06,3.06,3.0926,3.1468,3.2206,3.3171,3.4308,3.5542,3.6262,3.6932,3.8246,3.894,3.9459,4.0105,4.0437,4.0591,4.0591,4.0591,4.0418,3.9762,3.9583,3.9562,3.9562,0.0,0.0,4.0358,4.1266,0.0,4.2983,4.3794,0.0,4.5494,0.0,4.5621,4.5621,4.5727,0.0,0.0,4.5923,4.5999,4.5999,4.5999,4.5999,4.5999,4.5999,4.5999,4.5999,4.5999,4.5999,4.5999,4.5999,4.5999,4.6002,4.6042,4.6078,4.6082,4.6158,4.6193,4.6198,4.6211,4.6247,4.6301,4.6301,4.6301,4.6301,4.6301,4.6301,4.6242,0.0,0.0,0.0,0.0,0.0,0.0,0.0,0.0,0.0,0.0,0.0,0.0,0.0,0.0,0.0,0.0,0.0,0.0,0.0,2.6997,2.6985,2.696,2.78,2.8419,2.8778,2.9615,3.0506,3.1428,3.1335,3.1575,3.211,3.172,3.1544,3.1526,3.1183,3.1019,3.1019,3.1019,3.096,0.0,0.0,3.0807,3.0694,3.0694,3.0694,3.071,3.0665,3.0593,3.0501,3.0449,3.1182,3.2202,3.2615,3.3563,3.4789,3.6099,3.6788,3.7385,3.8731,3.9428,3.9861,4.0349,4.0468,4.0468,4.0468,4.0165,3.9761,3.9277,3.8822,3.8543,3.8543,3.885,3.9267,0.0,0.0,0.0,4.2851,4.3679,4.4515,0.0,4.5558,0.0,4.5593,4.5664,4.5704,0.0,4.5791,4.5877,4.5877,4.5877,4.5877,4.5877,4.5877,4.5877,4.5877,4.5877,4.5877,4.5877,4.5877,4.5877,4.588,4.5917,4.5955,4.6016,0.0,4.6101,4.6167,4.6196,4.6216,4.6269,4.6297,4.6301,4.6301,4.6301,4.6301,4.6301,0.0,0.0,0.0,0.0,0.0,0.0,0.0,0.0,0.0,0.0,2.56,0.0,0.0,0.0,0.0,0.0,0.0,0.0,0.0,0.0,2.5597,2.5591,2.6363,2.7194,2.8073,2.8825,2.9702,3.0694,3.0513,3.0496,3.058,2.981,2.9453,2.9416,2.8601,2.8255,2.8256,2.8263,2.8696,2.9398,2.9521,3.003,3.0694,0.0,3.0688,3.0672,3.06,3.0494,3.0381,3.026,3.1374,3.2796,3.2783,3.3979,3.5549,3.6409,3.723,3.8056,3.8935,3.9713,4.0306,4.0306,4.0306,4.0267,4.0153,3.9542,3.8935,3.8701,3.8075,3.754,3.754,3.8151,3.8739,3.8949,0.0,4.1557,4.2641,4.3503,4.4373,4.5356,4.5584,4.5656,4.5656,4.5656,4.5656,4.5656,4.5656,4.5668,4.5704,4.5704,4.5704,4.5704,4.5704,4.5704,4.5704,4.5704,4.5704,4.5704,4.5704,4.5704,4.5704,4.5704,4.5765,4.586,4.5863,4.5942,4.6089,4.6148,4.6178,4.621,4.6273,4.6301,4.6301,4.6301,4.6301,4.6301,0.0,0.0,0.0,0.0,0.0,0.0,0.0,0.0,0.0,0.0,2.56,2.56,0.0,0.0,0.0,0.0,0.0,0.0,0.0,0.0,0.0,2.5515,2.6341,2.7178,2.8005,2.8855,2.9751,3.0694,3.0602,3.0586,3.0597,3.032,3.0211,3.0175,2.9376,2.9016,2.9001,2.9063,2.9185,2.9383,3.0169,3.0575,3.0694,3.0694,0.0,0.0,3.0417,3.0376,3.0389,3.03,3.1396,3.2783,3.2736,3.4358,3.6424,3.7254,3.8094,3.8954,3.9847,4.0191,4.0306,4.0306,4.0306,4.0115,3.9389,3.9102,0.0,3.7226,3.6806,3.671,3.671,3.6825,3.7383,3.8777,3.924,4.0215,4.2488,4.2933,4.3603,0.0,4.535,4.537,4.537,4.537,0.0,0.0,4.537,4.5462,4.5696,4.5704,4.5704,4.5704,4.5704,4.5704,4.5704,4.5704,4.5704,4.5704,4.5704,4.5704,4.5704,4.5704,4.5719,4.5739,4.5734,0.0,4.5944,4.601,4.6105,4.621,4.6273,4.6301,4.6301,4.6301,4.6301,4.6301,0.0,0.0,0.0,0.0,0.0,0.0,0.0,2.56,2.56,2.56,2.56,2.56,2.56,2.56,2.56,0.0,0.0,0.0,0.0,0.0,0.0,0.0,2.5924,2.6738,2.8011,2.8395,2.9263,3.0694,0.0,3.0523,3.0597,3.0035,2.9783,2.9786,2.895,2.8584,2.8622,2.8656,2.894,2.9392,2.9846,3.0304,3.0694,0.0,0.0,0.0,3.0358,3.0318,3.0341,3.0264,3.1385,3.279,3.276,3.4179,3.6065,3.733,3.7999,3.861,3.9943,4.0306,4.0306,4.0306,4.0306,4.0076,3.9198,0.0,0.0,3.6748,3.6137,3.5817,3.5817,3.6194,0.0,3.8113,3.8706,3.9737,4.182,4.2507,4.3252,4.4475,4.501,4.5302,4.5302,4.5302,4.5302,4.5302,4.5302,4.5355,4.5485,4.549,4.549,4.549,4.549,4.549,4.549,4.549,4.549,4.549,4.549,4.549,4.549,4.549,4.5531,4.5601,4.5601,4.5661,4.5796,4.5862,4.5969,4.6107,4.6171,4.6242,4.6301,4.6301,4.6301,4.6301,0.0,0.0,0.0,0.0,0.0,0.0,2.56,2.56,2.56,2.56,2.56,2.56,2.56,2.56,2.56,0.0,0.0,0.0,0.0,0.0,0.0,0.0,0.0,0.0,2.8061,0.0,0.0,3.0694,3.0539,0.0,0.0,0.0,0.0,0.0,2.8646,2.8289,2.8339,2.8353,2.8749,0.0,0.0,3.009,0.0,0.0,0.0,0.0,0.0,3.0276,3.0264,3.0219,3.1235,3.2558,3.2727,3.401,3.5778,3.7254,3.7827,3.8323,3.9885,4.0306,4.0306,4.0306,4.0153,3.979,3.8916,3.8056,3.7215,3.639,3.5683,3.5205,3.5205,3.5759,3.6542,0.0,3.8266,3.9374,4.1232,4.224,4.3095,0.0,4.4762,0.0,4.5302,4.5302,0.0,4.5302,4.5302,4.5302,4.5302,4.5302,4.5302,4.5302,4.5302,4.5302,4.5302,4.5302,4.5302,4.5302,4.5302,4.5302,4.5302,4.5302,4.5355,4.5453,4.5453,4.5535,4.5653,4.571,4.5834,4.6008,4.6053,4.6177,4.6301,4.6301,4.6301,4.6301,0.0,0.0,0.0,0.0,0.0,0.0,2.56,2.56,2.56,2.56,2.56,2.56,2.56,2.56,2.56,0.0,0.0,0.0,0.0,0.0,0.0,0.0,0.0,0.0,0.0,0.0,0.0,3.0694,3.0625,0.0,0.0,0.0,0.0,0.0,0.0,2.9089,2.9101,2.9169,0.0,0.0,0.0,0.0,0.0,0.0,0.0,0.0,0.0,3.0206,3.0202,3.0192,3.0823,3.1743,3.2485,3.4407,3.6557,3.7445,3.8266,0.0,4.0038,4.0306,4.0306,4.0306,3.9694,3.8897,3.8018,0.0,3.6366,3.5492,3.5263,3.5205,3.5205,3.5263,3.5836,3.7445,3.7774,3.8691,4.1156,4.224,4.3095,4.3892,0.0,0.0,4.5302,4.5302,4.5302,4.5302,4.5302,4.5302,4.5302,4.5302,4.5302,4.5302,4.5302,4.5302,4.5302,4.5302,4.5302,4.5302,4.5302,4.5302,4.5302,4.5302,4.5312,4.5328,4.5328,4.54,0.0,4.5526,4.5708,4.6005,4.6017,4.6128,4.6301,4.6301,4.6301,4.6301,0.0,0.0,0.0,0.0,0.0,0.0,2.56,2.56,2.56,2.56,2.56,2.56,2.56,2.56,2.56,2.56,0.0,0.0,0.0,0.0,0.0,0.0,0.0,0.0,0.0,0.0,2.8922,3.0694,3.067,0.0,0.0,0.0,0.0,0.0,0.0,3.0079,3.01,3.0126,0.0,0.0,0.0,0.0,0.0,0.0,0.0,0.0,0.0,0.0,3.0208,3.0208,3.0777,3.1633,3.2451,3.3754,3.5267,3.6581,3.723,3.7784,3.914,3.9522,3.9522,3.9522,3.9255,3.8644,3.7287,0.0,3.6252,3.5377,3.5205,3.5205,3.5205,3.5205,3.5587,3.6772,3.7387,3.8251,3.9775,4.1609,4.2928,4.3247,4.4475,0.0,0.0,0.0,4.5302,4.5302,4.5302,4.5302,4.5302,4.5302,4.5302,4.5302,4.5302,4.5302,4.5302,4.5302,4.5302,4.5302,4.5302,4.5302,4.5302,4.5302,4.5302,4.5302,4.5302,4.5319,0.0,4.5419,4.5566,4.5764,4.5886,4.6039,4.6182,4.6272,4.6301,4.6301,0.0,0.0,0.0,0.0,0.0,2.56,2.56,2.56,2.56,2.56,2.56,2.56,2.56,2.56,2.56,2.56,2.56,0.0,0.0,0.0,0.0,0.0,0.0,0.0,0.0,0.0,2.896,3.0694,3.0694,3.0694,0.0,0.0,3.0653,3.0692,0.0,0.0,0.0,0.0,0.0,0.0,0.0,0.0,0.0,0.0,0.0,0.0,0.0,0.0,0.0,0.0,0.0,3.1255,3.2092,3.2932,3.4006,3.5927,3.65,3.6806,3.8228,3.8629,3.8629,3.8629,3.8438,3.7956,3.6767,0.0,3.5946,3.5339,3.5205,3.5205,3.5205,3.5205,3.5492,3.6366,3.7177,3.7999,3.8877,4.1189,4.2794,4.2794,0.0,4.5302,0.0,4.5302,4.5302,4.5302,4.5302,4.5302,4.5302,4.5302,4.5302,4.5302,4.5302,4.5302,4.5302,4.5302,4.5302,4.5302,4.5302,4.5302,4.5302,4.5302,4.5302,4.5302,4.5302,4.5302,0.0,4.5343,4.5466,4.5604,4.576,4.5929,4.6107,4.621,4.6271,4.6301,0.0,0.0,0.0,0.0,0.0,0.0,2.56,2.56,2.56,2.56,2.56,2.56,2.56,2.56,2.56,2.56,2.56,0.0,0.0,0.0,0.0,0.0,0.0,0.0,0.0,0.0,2.896,3.0694,3.0694,3.0694,3.0694,3.0692,3.0692,3.0694,0.0,0.0,0.0,0.0,0.0,0.0,0.0,0.0,0.0,0.0,0.0,0.0,0.0,0.0,0.0,0.0,0.0,0.0,0.0,3.2073,3.3211,3.5755,3.65,3.6672,3.7483,3.7716,3.7716,3.7716,3.7116,3.6519,3.65,3.5836,3.5205,3.5205,3.5205,3.5205,3.5205,3.5205,3.5492,3.6366,3.7177,3.7999,3.8877,4.1189,4.2794,0.0,0.0,4.5302,4.5302,4.5302,4.5302,4.5302,4.5302,0.0,4.5302,4.5302,4.5302,4.5302,4.5302,4.5302,4.5302,4.5302,4.5302,4.5302,4.5302,4.5302,4.5302,4.5302,4.5302,4.5302,4.5302,4.5302,0.0,4.5302,4.5414,4.5607,4.5607,4.5817,4.61,4.61,4.6181,4.6301,0.0,0.0,0.0,0.0,0.0,0.0,2.56,2.56,2.56,2.56,2.56,2.56,2.56,2.56,2.56,2.56,2.56,0.0,0.0,0.0,0.0,0.0,0.0,0.0,0.0,2.8102,2.896,3.0694,3.0694,3.0694,3.0694,3.0694,3.0694,3.0694,3.0694,3.0694,0.0,0.0,0.0,0.0,0.0,0.0,0.0,0.0,0.0,0.0,0.0,0.0,0.0,0.0,0.0,0.0,0.0,0.0,0.0,3.5029,3.5606,3.5797,3.6657,3.6886,3.6886,3.6886,3.6691,3.6347,3.5759,3.5396,3.5205,3.5205,3.5205,3.5205,3.5205,3.5205,3.5282,3.5568,3.6795,3.7793,0.0,0.0,0.0,4.2794,4.4289,4.5302,0.0,0.0,4.5302,4.5302,4.5302,4.5302,4.5302,4.5302,4.5302,4.5302,4.5302,4.5302,4.5302,4.5302,4.5302,4.5302,4.5302,4.5302,4.5302,4.5302,4.5302,4.5302,4.5302,4.5302,4.5302,4.5302,4.537,4.5473,4.5559,4.5719,4.5917,4.6058,4.6135,4.6177,0.0,0.0,0.0,0.0,0.0,0.0,2.56,2.56,2.56,2.56,2.56,2.56,2.56,2.56,2.56,2.56,2.56,0.0,0.0,0.0,0.0,0.0,0.0,0.0,2.8063,2.8414,2.9271,3.0694,3.0694,3.0694,3.0694,3.0694,3.0694,3.0694,3.0694,3.0694,0.0,0.0,0.0,0.0,0.0,0.0,3.0304,0.0,0.0,0.0,0.0,0.0,0.0,0.0,0.0,0.0,0.0,0.0,0.0,0.0,3.4957,3.532,3.5851,3.6003,3.6003,3.6003,3.6003,0.0,3.532,3.5205,3.5205,3.5205,3.5205,3.5205,3.5205,3.5205,3.5301,3.5645,3.6814,3.7808,0.0,0.0,0.0,4.3673,0.0,0.0,0.0,4.5302,4.5302,4.5302,4.5302,4.5302,4.5302,4.5302,4.5302,4.5302,4.5302,4.5302,4.5302,4.5302,4.5302,4.5302,4.5302,4.5302,4.5302,4.5302,4.5302,4.5302,4.5302,4.5302,0.0,4.5302,4.5334,4.5448,4.5856,4.6108,4.6303,4.6754,4.6993,4.7097,0.0,0.0,0.0,0.0,0.0,0.0,0.0,2.5601,2.56,2.56,2.56,2.56,2.56,2.5603,2.5604,2.5604,2.5604,0.0,0.0,0.0,0.0,0.0,0.0,0.0,2.8083,2.896,2.9836,3.0694,3.0694,3.0694,3.0694,3.0694,3.0694,3.0694,3.0694,3.0694,3.0692,0.0,0.0,0.0,0.0,0.0,0.0,0.0,0.0,0.0,0.0,0.0,0.0,0.0,0.0,0.0,0.0,0.0,0.0,0.0,0.0,0.0,0.0,3.5205,3.5205,3.5205,3.5205,3.5205,3.5205,3.5205,0.0,3.5205,3.5205,3.5205,3.5205,3.5244,3.5568,3.6366,3.723,3.8094,0.0,4.1285,0.0,0.0,4.5302,0.0,4.5302,4.5302,4.5302,4.5302,4.5302,4.5302,4.5302,4.5302,4.5302,4.5302,4.5302,4.5302,4.5302,4.5302,4.5302,4.5302,4.5359,4.5397,4.5397,4.5455,4.5474,0.0,4.5474,4.5474,4.5474,4.5474,4.5524,4.5657,4.6473,4.6899,4.7167,4.799,4.8459,4.8696,0.0,0.0,0.0,0.0,0.0,0.0,0.0,0.0,0.0,0.0,2.56,2.56,2.56,2.5604,2.5598,0.0,0.0,0.0,0.0,0.0,0.0,0.0,0.0,0.0,2.8083,2.896,2.9836,3.0694,3.0694,3.0694,3.0694,3.0694,3.0694,3.0694,3.0694,3.0694,3.069,3.0643,0.0,0.0,0.0,0.0,0.0,0.0,0.0,0.0,3.0208,3.0208,0.0,0.0,0.0,0.0,0.0,0.0,0.0,0.0,3.5053,3.5205,3.5205,0.0,3.5205,3.5205,3.5205,3.5205,0.0,3.5205,3.5205,0.0,0.0,0.0,3.5205,3.574,3.6252,3.6462,3.7727,3.9011,3.9866,0.0,0.0,4.5168,4.5302,4.5302,4.5302,4.5302,4.5302,4.5302,4.5302,4.5302,4.5302,4.5302,4.5302,4.5302,4.5302,4.5302,4.5302,4.5302,4.5302,4.5302,4.5927,4.6214,4.6233,4.6915,4.7201,4.7201,4.7201,4.7201,4.7201,4.7201,4.7253,4.7331,4.7585,4.7727,4.7811,4.8164,4.8403,4.8552,0.0,0.0,0.0,0.0,0.0,0.0,0.0,0.0,0.0,0.0,2.559,2.5607,2.5601,2.5599,2.5593,0.0,0.0,0.0,0.0,0.0,0.0,0.0,0.0,2.7833,2.8686,2.9544,3.0226,3.0694,3.0694,3.0694,3.0694,3.0694,3.0694,3.0694,3.0694,3.0678,3.0649,3.0615,3.0496,3.0339,3.0309,0.0,0.0,0.0,0.0,0.0,3.0208,3.0208,0.0,3.0208,3.0208,3.0494,0.0,0.0,0.0,0.0,3.5205,3.5205,3.5205,3.5205,3.5205,3.5205,3.5205,3.5205,3.5205,3.5205,3.5205,0.0,0.0,0.0,0.0,3.6175,3.6748,3.7517,3.8739,0.0,0.0,0.0,4.4317,4.5206,4.5302,4.5455,0.0,4.5851,4.6023,4.6424,4.608,4.5851,4.5851,4.5493,4.5302,4.5302,4.5302,4.5302,4.5302,4.5665,4.5851,4.5851,4.6705,4.7106,4.7106,4.7584,4.7794,4.7794,4.7794,4.7794,4.7794,4.7794,4.7829,4.7906,4.8365,4.8551,4.8615,4.9193,4.9479,4.9615,0.0,0.0,0.0,0.0,0.0,0.0,0.0,0.0,0.0,0.0,0.0,0.0,0.0,0.0,0.0,0.0,0.0,0.0,0.0,0.0,0.0,0.0,2.7735,2.8511,2.9387,3.0245,3.0694,3.0694,3.0694,3.0694,3.0694,3.0694,3.0688,3.068,3.068,3.0645,3.0563,3.0551,3.0468,3.0307,3.0292,0.0,0.0,0.0,0.0,0.0,0.0,0.0,0.0,3.0208,3.0284,3.0663,3.2203,0.0,0.0,0.0,0.0,0.0,3.5205,3.5205,3.5205,3.5205,3.5205,3.5205,3.5205,3.5205,3.5205,3.5205,0.0,0.0,0.0,3.671,0.0,0.0,0.0,0.0,4.3682,4.4102,4.447,4.5206,4.5416,0.0,4.6418,4.6609,4.6991,4.7731,4.7125,4.6705,4.6705,4.5927,4.5474,4.5474,4.5359,4.5359,4.5474,4.6156,4.6571,4.6705,4.7584,4.8004,4.8004,4.8138,4.8176,4.8176,0.0,0.0,4.8176,4.8176,4.8176,4.8263,4.9072,4.9388,4.9505,5.0374,5.077,5.0902,0.0,0.0,0.0,0.0,0.0,0.0,0.0,0.0,0.0,0.0,0.0,0.0,0.0,0.0,0.0,0.0,0.0,0.0,0.0,0.0,0.0,2.789,2.8024,2.8511,2.9387,3.0245,3.0694,3.0694,3.0694,3.0694,3.0694,3.0694,3.0667,3.0615,3.0615,3.0556,3.044,3.0364,3.0334,3.0301,3.0231,0.0,0.0,0.0,0.0,0.0,0.0,0.0,0.0,3.0208,3.0685,3.1465,3.2394,0.0,0.0,0.0,0.0,0.0,3.5205,3.5205,3.5205,3.5205,3.5205,3.5205,3.5205,3.5205,3.5205,3.5205,0.0,0.0,0.0,3.767,3.8701,0.0,0.0,4.2789,0.0,0.0,4.5149,4.5283,0.0,4.6366,4.6495,4.7163,4.766,4.7788,4.7679,4.7603,4.7603,4.6781,4.6328,4.6328,4.5665,4.5627,4.6309,4.6437,4.6877,4.7622,4.8487,4.8894,4.8913,4.9614,4.992,4.992,0.0,4.992,4.992,4.992,4.992,4.9945,5.0147,5.0246,5.0338,5.0535,5.0739,5.0936,0.0,0.0,0.0,0.0,0.0,0.0,0.0,0.0,0.0,0.0,0.0,0.0,0.0,0.0,0.0,0.0,0.0,0.0,0.0,0.0,2.7467,2.8745,2.8803,2.9212,3.009,3.0498,3.0694,3.0694,3.0694,3.0694,3.0692,3.0661,3.0589,3.048,3.048,3.0435,3.0331,3.0306,3.0276,3.0241,0.0,0.0,0.0,0.0,0.0,0.0,0.0,0.0,0.0,0.0,3.0758,3.1595,3.2432,0.0,0.0,0.0,0.0,0.0,3.5205,3.5205,3.5205,3.5205,3.5205,3.5205,3.5205,3.5205,3.5339,3.5817,3.6214,0.0,0.0,0.0,3.9451,4.0826,0.0,4.3744,4.459,4.5053,4.5455,0.0,0.0,4.6863,4.7799,4.8277,4.8678,4.9112,4.8754,4.8506,4.8506,4.7679,4.7201,4.7201,4.6839,4.7054,4.7895,4.7895,4.8105,4.8506,4.9347,4.9754,4.9767,5.013,5.0302,5.0302,0.0,5.0302,5.0302,5.0302,5.0302,5.0308,5.0365,5.0424,5.0462,5.0567,5.073,5.0929,0.0,0.0,0.0,0.0,0.0,0.0,0.0,0.0,0.0,0.0,0.0,0.0,0.0,0.0,0.0,0.0,0.0,0.0,0.0,2.7266,2.807,2.9348,2.9602,3.001,3.0694,3.0694,3.0694,3.0694,3.0694,3.0687,3.0672,3.0587,3.0494,3.0375,3.0375,3.0344,3.0273,3.0273,3.0247,3.0208,0.0,0.0,0.0,0.0,0.0,0.0,0.0,0.0,0.0,0.0,0.0,0.0,0.0,0.0,0.0,3.5014,3.5205,3.5197,3.5136,3.5124,3.5124,3.5124,3.5176,3.5244,3.5454,3.5492,3.5759,3.66,3.6939,0.0,0.0,3.9317,0.0,4.2698,4.361,4.4298,4.5187,4.5455,4.5812,4.6424,4.6863,4.7627,4.897,4.9276,4.9639,5.0245,4.9729,4.9371,4.9371,4.8563,4.8099,4.8099,4.7908,4.822,4.9085,4.9104,4.918,4.9391,5.0015,5.0302,5.0302,5.0302,5.0302,5.0302,5.0302,5.0302,5.0302,5.0302,5.0302,5.0302,5.0367,5.0401,5.044,5.0562,5.073,5.091,0.0,0.0,0.0,0.0,0.0,0.0,0.0,0.0,0.0,0.0,0.0,0.0,0.0,0.0,0.0,0.0,0.0,0.0,0.0,2.8361,2.9271,2.9387,3.0168,3.0635,3.0694,3.0694,3.0694,3.0694,3.0694,3.0665,3.0604,3.0472,3.0387,3.0316,3.0316,3.0264,3.0202,3.0202,3.0195,3.0208,3.0208,0.0,0.0,0.0,0.0,0.0,0.0,0.0,0.0,0.0,0.0,0.0,0.0,0.0,3.5129,3.5186,3.5205,3.5153,3.4978,3.4912,3.4912,3.4912,3.5063,3.5415,3.6214,3.6405,3.6638,3.7445,3.8266,3.8858,0.0,4.0272,4.1896,4.3629,4.3968,4.4298,4.5187,0.0,4.6443,4.6495,4.7938,4.8951,4.9085,4.9786,5.0245,5.0302,5.0245,5.0206,5.0206,4.9448,4.9008,4.9008,4.822,4.822,4.9085,4.9104,4.9467,5.0206,5.0264,5.0302,5.0302,5.0302,5.0302,5.0302,5.0302,5.0302,5.0302,5.0302,5.0302,5.0302,5.0302,5.0376,5.0505,5.0577,5.073,5.0894,0.0,0.0,0.0,0.0,0.0,0.0,0.0,0.0,0.0,0.0,0.0,0.0,0.0,0.0,0.0,0.0,0.0,0.0,0.0,2.9059,2.9641,3.0187,3.0517,3.0694,3.0694,3.0694,3.0694,3.0694,3.0657,3.056,3.0411,3.0359,3.0291,3.0231,3.0231,3.0226,3.0208,3.0208,3.0208,3.0208,3.0208,3.0208,0.0,0.0,0.0,0.0,0.0,0.0,0.0,0.0,3.234,3.3566,3.3895,3.4541,3.5205,3.5205,3.5111,3.5001,3.4927,3.4908,3.5022,3.5514,3.5835,3.608,3.6424,3.6766,3.7286,3.8297,3.9066,3.9931,0.0,0.0,4.3266,4.3892,4.4451,4.4914,4.5244,4.5984,4.6705,4.724,4.8372,4.9295,4.9811,5.013,5.0302,5.0302,5.0302,5.0302,5.0302,5.0015,4.9843,4.9843,4.9538,4.9513,4.9843,4.9843,4.9996,5.0302,5.0302,5.0302,5.0302,5.0302,5.0302,5.0302,5.0302,5.0302,5.0302,5.0302,5.0302,5.0302,5.0302,5.0354,5.0451,5.0511,5.06,5.0734,0.0,0.0,0.0,0.0,0.0,0.0,0.0,0.0,0.0,0.0,0.0,0.0,0.0,0.0,0.0,0.0,0.0,0.0,2.9368,2.9661,3.009,3.0674,3.0694,3.0694,3.0694,3.0676,3.0665,3.0665,3.0558,3.0584,3.0707,3.0673,3.0774,3.0987,3.0987,3.0987,3.0987,3.0987,3.0987,3.0987,3.0987,3.0987,0.0,0.0,0.0,0.0,0.0,0.0,0.0,0.0,3.3012,3.4048,3.4296,3.4751,3.5197,3.5119,3.5054,3.4954,3.4807,3.4773,3.4981,3.577,3.6265,3.6643,3.6962,3.7388,3.8059,3.928,4.0065,4.106,4.274,0.0,0.0,0.0,4.4914,4.5397,4.5646,4.6385,4.7221,4.8099,4.8965,4.9691,5.0245,5.0302,5.0302,5.0302,5.0302,5.0302,5.0302,5.0302,5.0302,5.0302,5.0302,5.0302,5.0302,5.0302,5.0302,5.0302,5.0302,5.0302,5.0302,5.0302,5.0302,5.0302,5.0302,5.0302,5.0302,5.0302,5.0302,5.0302,5.0302,5.0337,5.0412,5.0478,5.0537,5.0628,0.0,0.0,0.0,0.0,0.0,0.0,0.0,0.0,0.0,0.0,0.0,0.0,0.0,0.0,0.0,0.0,0.0,0.0,2.9407,3.0226,3.0694,3.0694,3.0694,3.0692,3.0711,3.0651,3.0617,3.0617,3.0417,3.0765,3.1616,3.1473,3.1878,3.2695,3.2695,3.2695,3.2695,3.2695,3.2695,3.2695,3.2695,3.2695,3.2695,0.0,0.0,0.0,0.0,0.0,0.0,0.0,3.401,3.4144,3.4961,3.5205,3.5153,3.4964,3.5041,3.5083,3.4624,3.4502,3.4709,3.5505,3.6222,3.6975,3.799,3.8437,3.9017,4.0441,4.1352,4.2251,4.3395,4.3619,0.0,4.5112,4.5302,4.5588,4.6385,4.7259,4.8118,4.8989,4.9805,5.0302,5.0302,5.0302,5.0302,5.0302,5.0302,5.0302,5.0302,5.0302,5.0302,5.0302,5.0302,5.0302,5.0302,5.0302,5.0302,5.0302,5.0302,5.0302,5.0302,5.0302,5.0302,5.0302,5.0302,5.0302,5.0302,5.0302,5.0302,5.0302,5.0302,5.0337,5.0412,5.0478,5.0537,5.0608,0.0,0.0,0.0,0.0,0.0,0.0,0.0,0.0,0.0,0.0,0.0,0.0,0.0,0.0,0.0,0.0,0.0,0.0,3.0304,3.0556,3.0694,3.0694,3.0694,3.0942,3.145,3.1915,3.1877,3.1305,3.1799,3.2171,3.2365,3.2332,3.2451,3.2695,3.2695,3.2695,3.2695,3.2695,3.2695,3.2695,3.2695,3.2695,3.2695,0.0,0.0,0.0,0.0,0.0,0.0,0.0,0.0,0.0,3.511,3.5205,3.5153,3.4964,3.4807,3.4645,3.436,3.4702,3.5335,3.6186,3.7088,3.8085,3.9374,3.975,4.0232,4.1798,4.2455,4.3085,4.4234,4.4434,0.0,4.5208,4.5302,4.5588,4.6385,4.7259,4.8118,4.8989,4.9805,5.0302,5.0302,5.0302,5.0302,5.0302,5.0302,5.0302,5.0302,5.0302,5.0302,5.0302,5.0302,5.0302,5.0302,5.0302,5.0302,5.0302,5.0302,5.0302,5.0302,5.0302,5.0302,5.0302,5.0302,5.0302,5.0302,5.0302,5.0302,5.0302,5.0342,5.0342,5.0337,5.0468,5.0511,5.0532,0.0,0.0,0.0,0.0,0.0,0.0,0.0,0.0,0.0,0.0,2.9192,2.9371,0.0,0.0,0.0,0.0,0.0,0.0,3.0694,3.0672,3.0659,3.0659,3.0939,3.1446,3.2185,3.292,3.3074,3.2556,3.2684,3.2916,3.3219,3.3219,3.3391,3.3692,3.3692,3.3692,3.3692,3.3692,3.3692,3.3692,3.3692,3.3692,3.3692,0.0,0.0,0.0,0.0,0.0,0.0,0.0,0.0,0.0,3.5205,3.516,3.5059,3.4945,3.4783,3.4612,3.4377,3.4905,3.5696,3.6477,3.7308,3.8392,4.0211,4.0869,0.0,0.0,4.2919,4.3509,4.4336,4.4484,0.0,4.4881,4.5023,4.547,4.6504,4.7312,4.8193,4.9249,4.9918,5.0302,5.0302,5.0302,5.0302,5.0302,5.0302,5.0302,5.0302,5.0302,5.0302,5.0302,5.0302,5.0302,5.0302,5.0302,5.0302,5.0302,5.0302,5.0302,5.0302,5.0302,5.0302,5.0302,5.0302,5.0302,5.0302,5.0302,5.0302,5.0302,5.0337,5.0342,5.0342,5.044,5.0495,5.0556,0.0,0.0,0.0,0.0,0.0,0.0,0.0,0.0,0.0,0.0,3.0693,3.0694,0.0,0.0,0.0,0.0,0.0,0.0,0.0,3.0627,3.0627,3.0705,3.149,3.2223,3.2896,3.3752,3.4166,3.4105,3.3314,3.3333,3.4105,3.4105,3.4503,3.5205,3.5205,3.5205,3.5205,3.5205,3.5205,3.5205,3.5205,3.5205,3.5205,3.5205,0.0,0.0,0.0,0.0,0.0,0.0,0.0,0.0,3.5189,3.505,3.4884,3.4846,3.4846,3.4793,3.4513,3.5085,3.5914,3.6445,3.7213,3.8403,4.0608,4.1782,4.2415,4.2415,0.0,4.3599,4.3942,4.4005,4.4094,4.436,4.4605,4.5262,4.6706,4.7359,4.8241,4.9622,5.0063,5.0278,5.0296,5.0302,5.0302,5.0302,5.0302,5.0302,5.0302,5.0302,5.0302,5.0302,5.0302,5.0302,5.0302,5.0302,5.0302,5.0302,5.0302,5.0302,5.0302,5.0302,5.0302,5.0302,5.0302,5.0302,5.0302,5.0302,5.0302,5.0302,5.0308,5.0342,5.0401,5.0401,5.0478,5.0593,0.0,0.0,0.0,0.0,0.0,0.0,0.0,0.0,0.0,0.0,0.0,0.0,0.0,0.0,0.0,0.0,0.0,0.0,0.0,3.0516,3.0756,3.1424,3.2833,3.3652,3.3824,3.4561,3.4966,3.4942,3.4747,3.4766,3.4942,3.4942,3.5033,3.5205,3.5205,3.5205,3.5205,3.5205,3.5205,3.5205,3.5205,3.5205,3.5205,3.5205,3.5205,0.0,0.0,0.0,0.0,0.0,0.0,0.0,3.5019,3.4922,3.4826,3.4458,3.4455,3.4491,3.4062,3.5149,3.6401,3.6374,3.8367,4.0461,4.0975,4.2213,4.3231,4.3231,4.3378,4.3599,4.3942,4.4005,4.4094,4.436,4.4445,4.5042,4.6677,4.7003,4.7772,4.9581,4.9864,5.0,5.0259,5.0302,5.0302,5.0302,5.0302,5.0302,5.0302,5.0302,5.0302,5.0302,5.0302,5.0302,5.0302,5.0302,5.0302,5.0302,5.0302,5.0302,5.0302,5.0302,5.0302,5.0302,5.0302,5.0302,5.0302,5.0302,5.0302,5.0302,5.0367,5.0396,5.0401,5.0401,5.0451,5.0521,0.0,0.0,0.0,0.0,0.0,0.0,0.0,0.0,0.0,0.0,0.0,0.0,0.0,0.0,0.0,0.0,0.0,0.0,0.0,0.0,3.1923,3.2759,3.3606,3.4228,3.4626,3.5008,3.5205,3.5205,3.5205,3.5205,3.5205,3.5205,3.5205,3.5205,3.5205,3.5205,3.5205,3.5205,3.5205,3.5205,3.5205,3.5205,3.5205,3.5205,3.5205,3.5205,3.5205,0.0,0.0,0.0,0.0,0.0,0.0,0.0,3.4698,3.4572,3.4458,3.4302,3.4068,3.5265,3.6736,3.7312,0.0,4.1095,4.1095,4.2341,4.3506,4.3506,4.3506,4.3548,4.3732,4.3765,4.3804,4.3949,4.411,4.4733,4.6208,4.6693,4.7496,4.913,4.9592,4.9864,5.0044,5.0212,5.0302,5.0302,5.0302,5.0302,5.0302,5.0302,5.0302,5.0302,5.0302,5.0302,5.0302,5.0302,5.0302,5.0302,5.0302,5.0302,5.0302,5.0302,5.0302,5.0302,5.0302,5.0302,5.0302,5.0302,5.0302,5.0302,5.0331,5.0382,5.0446,5.0418,5.0462,5.0542,0.0,0.0,0.0,0.0,0.0,0.0,0.0,0.0,0.0,0.0,0.0,0.0,0.0,0.0,0.0,0.0,0.0,0.0,0.0,0.0,0.0,3.3975,3.4124,3.4522,3.5186,3.5205,3.5205,3.5205,3.5205,3.5205,3.5205,3.5205,3.5205,3.5205,3.5205,3.5205,3.5205,3.5205,3.5205,3.5205,3.5205,3.5205,3.5205,3.5205,3.5205,3.5205,3.5205,3.5205,3.5205,3.5205,0.0,0.0,0.0,0.0,3.4606,3.4733,3.4529,3.4239,3.4215,3.536,3.6885,3.8338,3.9911,0.0,4.1095,4.2341,4.3506,4.3506,4.3506,4.3506,4.3506,4.3506,4.3506,4.3506,4.3732,4.4332,4.5525,4.6292,4.7199,4.8443,4.9219,4.9653,4.9709,5.0025,5.0218,5.0218,5.0278,5.0302,5.0302,5.0302,5.0302,5.0302,5.0302,5.0302,5.0302,5.0302,5.0302,5.0302,5.0302,5.0302,5.0302,5.0302,5.0302,5.0302,5.0302,5.0302,5.0302,5.0302,5.0302,5.0302,5.0302,5.0371,5.0478,5.0424,5.0473,5.0588,0.0,0.0,0.0,0.0,0.0,0.0,0.0,0.0,0.0,0.0,3.1825,3.2066,0.0,0.0,0.0,0.0,0.0,0.0,0.0,0.0,0.0,3.3995,3.4674,3.5091,3.5205,3.5205,3.5205,3.5205,3.5205,3.5205,3.5205,3.5205,3.5205,3.5205,3.5205,3.5205,3.5205,3.5205,3.5205,3.5205,3.5205,3.5205,3.5205,3.5205,3.5205,3.5205,3.5205,3.5205,3.5205,3.5205,3.5205,0.0,0.0,0.0,3.4763,3.4401,3.4366,3.4414,3.4245,3.5243,3.6721,3.8293,3.9911,4.1095,0.0,0.0,4.3506,0.0,4.3506,4.3506,4.3506,4.3506,4.3506,4.3506,4.3549,4.387,4.4745,4.5551,4.6464,4.7629,4.8455,4.904,4.9348,4.9674,4.9864,4.9864,5.0138,5.0302,5.0302,5.0302,5.0302,5.0302,5.0302,5.0302,5.0302,5.0302,5.0302,5.0302,5.0302,5.0302,5.0302,5.0302,5.0302,5.0302,5.0302,5.0302,5.0302,5.0302,5.0302,5.0302,5.0302,5.0342,5.0418,5.0407,5.0451,5.0511,0.0,0.0,0.0,0.0,0.0,0.0,0.0,0.0,0.0,0.0,0.0,3.2723,0.0,0.0,0.0,0.0,0.0,0.0,0.0,0.0,0.0,3.4674,3.5014,3.5205,3.5205,3.5205,3.5205,3.5205,3.5205,3.5205,3.5205,3.5205,3.5205,3.5205,3.5205,3.5205,3.5205,3.5205,3.5205,3.5205,3.5205,3.5205,3.5205,3.5205,3.5205,3.5205,3.5205,3.5205,3.5205,3.5205,3.5205,3.5157,3.4958,0.0,0.0,0.0,3.4548,3.4659,3.5349,3.5912,3.6696,0.0,3.9911,4.1095,4.1095,4.2341,4.3506,4.3506,4.3506,4.3506,4.3506,4.3506,4.3506,4.3506,4.3506,4.3781,4.459,4.4993,4.5745,4.7149,4.7804,4.8364,4.8961,4.949,4.981,4.981,5.012,5.0302,5.0302,5.0302,5.0302,5.0302,5.0302,5.0302,5.0302,5.0302,5.0302,5.0302,5.0302,5.0302,5.0302,5.0302,5.0302,5.0302,5.0302,5.0302,5.0302,5.0302,5.0302,5.0302,5.0302,5.0337,5.0407,5.0446,5.0478,5.0511,0.0,0.0,0.0,0.0,0.0,0.0,0.0,0.0,0.0,0.0,0.0,0.0,0.0,0.0,0.0,0.0,0.0,0.0,0.0,0.0,0.0,3.5205,3.5205,3.5205,3.5205,3.5205,3.5205,3.5205,3.5205,3.5205,3.5205,3.5205,3.5205,3.5205,3.5205,3.5205,3.5205,3.5205,3.5205,3.5205,3.5205,3.5205,3.5205,3.5205,3.5205,3.5205,3.5205,3.5205,3.5205,3.5205,3.5205,3.5197,3.5132,3.5059,0.0,0.0,0.0,3.4804,3.6229,3.644,3.6696,3.8303,3.9764,4.0846,0.0,0.0,4.3249,0.0,4.3506,4.3506,4.3506,4.3506,4.3506,4.3506,4.3506,4.3708,4.4305,4.4571,4.5159,4.6342,4.6898,4.7406,4.8,4.8667,4.9152,4.9341,4.9759,5.0073,5.0283,5.0302,5.0302,5.0302,5.0302,5.0302,5.0302,5.0302,5.0302,5.0302,5.0302,5.0302,5.0302,5.0302,5.0302,5.0302,5.0302,5.0302,5.0302,5.0302,5.0302,5.0302,5.0302,5.0325,5.0376,5.0473,5.0505,5.0516,0.0,0.0,0.0,0.0,0.0,0.0,0.0,0.0,0.0,0.0,0.0,0.0,3.52,3.5278,3.5212,3.5092,3.5118,0.0,0.0,0.0,0.0,3.5205,3.5205,0.0,3.5205,3.5205,3.5205,3.5205,3.5205,3.5205,3.5205,3.5205,3.5205,3.5205,3.5205,3.5205,3.5205,3.5205,3.5205,3.5205,3.5205,3.5205,3.5205,3.5205,3.5205,3.5205,3.5205,3.5205,3.5205,3.5205,3.5205,3.5176,3.4982,3.5041,3.5141,0.0,0.0,0.0,3.6229,3.644,0.0,3.8303,3.9331,4.0157,0.0,0.0,4.258,4.3341,4.3506,4.3506,4.3506,4.3506,4.3506,4.3506,4.3506,4.3506,4.3561,4.4213,4.4737,4.481,4.5516,4.6011,4.6048,4.6659,4.7368,4.8127,4.8789,4.9505,5.0264,5.0302,5.0302,5.0302,5.0302,5.0302,5.0302,5.0302,5.0302,5.0302,5.0302,5.0302,5.0302,5.0302,5.0302,5.0302,5.0302,5.0302,5.0302,5.0302,5.0302,5.0302,5.0302,5.0302,5.0319,5.0443,5.0505,5.0511,0.0,0.0,0.0,0.0,0.0,0.0,0.0,0.0,0.0,0.0,0.0,0.0,0.0,3.5273,3.5254,3.519,3.5205,0.0,0.0,0.0,0.0,3.5205,3.5205,3.5205,3.5205,3.5205,3.5205,3.5205,3.5205,3.5205,3.5205,3.5205,3.5205,3.5205,3.5205,3.5205,3.5205,3.5205,3.5205,3.5205,3.5205,3.5205,3.5205,3.5205,3.5205,3.5205,0.0,0.0,0.0,0.0,0.0,0.0,3.5111,3.5136,3.5193,3.5111,3.4808,3.4724,3.5746,0.0,0.0,3.765,3.9058,4.0181,4.0297,4.1475,4.2596,4.2722,4.3139,4.3506,4.3506,4.3506,4.3506,4.3506,4.3506,4.3506,4.3506,4.3745,4.4121,4.4645,4.4938,4.5333,4.5847,4.63,4.6789,4.7293,4.7749,4.8216,4.8667,4.8691,4.8691,4.8691,4.9232,4.9786,5.0283,5.0302,5.0302,5.0302,5.0302,5.0302,5.0302,5.0302,5.0302,5.0302,5.0302,5.0302,5.0302,5.0302,5.0302,5.0302,5.0302,5.0302,5.0314,5.0393,5.0468,5.0511,0.0,0.0,0.0,0.0,0.0,0.0,0.0,0.0,0.0,3.5338,0.0,0.0,0.0,0.0,3.5205,3.5205,3.5205,3.5205,3.5205,3.5205,3.5205,3.5205,3.5205,3.5205,3.5205,3.5205,3.5205,3.5205,3.5205,3.5205,3.5205,3.5205,3.5205,3.5205,3.5205,3.5205,3.5205,3.5205,3.5205,3.5205,3.5205,3.5377,3.5645,3.5645,3.5797,0.0,0.0,0.0,0.0,0.0,0.0,0.0,3.5645,3.5435,3.5205,3.5205,3.4931,3.4843,3.5835,0.0,0.0,0.0,3.8837,3.9812,3.9984,4.0999,4.2009,4.2363,4.2857,4.3284,4.3468,4.3506,4.3506,4.3506,4.3506,4.3506,4.3506,4.3506,4.3708,4.4232,4.4305,4.4507,4.5039,4.5404,4.5807,4.6293,4.6643,0.0,4.7472,4.7594,4.7714,4.7807,4.864,4.9352,4.9882,5.0168,5.0302,5.0302,5.0302,5.0302,5.0302,5.0302,5.0302,5.0302,5.0302,5.0302,5.0302,5.0302,5.0302,5.0302,5.0302,5.0302,5.0308,5.0384,5.0446,5.0511,0.0,0.0,0.0,0.0,0.0,0.0,0.0,0.0,3.5205,3.5205,0.0,0.0,0.0,0.0,0.0,3.5205,3.5205,3.5205,3.5205,3.5205,3.5205,3.5205,0.0,0.0,3.5205,3.5205,3.5205,3.5205,3.5205,3.5205,3.5205,3.5205,3.5205,3.5244,3.5244,3.5244,3.5263,3.5224,3.5205,3.5244,3.5244,3.5759,3.6538,3.6538,0.0,0.0,3.7697,3.7697,0.0,3.7697,0.0,0.0,3.6538,3.595,3.5263,3.5244,3.5116,3.5252,0.0,0.0,0.0,0.0,0.0,0.0,4.0021,0.0,4.075,4.2318,4.2674,4.2852,4.3381,4.3496,4.3506,4.3506,4.3506,4.3506,4.3506,4.3506,4.3506,4.3506,4.3506,4.3506,4.3506,4.3798,4.4321,4.5122,4.5477,4.6015,4.6814,4.7159,4.7471,4.7744,4.8582,4.9047,4.9104,4.9862,5.0283,5.0302,5.0302,5.0302,5.0302,5.0302,5.0302,5.0302,5.0302,5.0302,5.0302,5.0302,5.0302,5.0302,5.0302,5.0302,5.0308,5.0359,5.0446,5.0505,0.0,0.0,0.0,0.0,0.0,3.5246,3.5209,3.5205,3.5205,0.0,0.0,0.0,3.5205,3.5205,3.5205,3.5205,3.5205,3.5205,3.5205,3.5205,3.5205,3.5205,3.5205,3.5205,3.5205,3.5205,3.5205,3.5205,3.5205,3.5205,3.5205,3.5205,3.5549,3.6137,3.6137,3.6466,3.6929,3.5702,3.5568,3.6137,3.6137,3.6638,0.0,0.0,0.0,0.0,0.0,3.7697,3.7697,0.0,3.754,3.7368,0.0,3.7196,3.6891,3.6313,3.6415,0.0,3.64,0.0,0.0,0.0,0.0,0.0,0.0,0.0,4.0948,4.1193,4.2023,4.2755,4.2892,4.3244,4.3506,4.3506,4.3506,4.3506,4.3506,4.3506,4.3506,4.3506,4.3506,4.3506,4.3506,4.3582,4.391,0.0,4.4705,4.505,4.5715,4.582,4.6186,4.6839,4.7092,4.7824,4.9085,4.9314,4.971,5.0302,5.0302,5.0302,5.0302,5.0302,5.0302,5.0302,5.0302,5.0302,5.0302,5.0302,5.0302,5.0302,5.0302,5.0302,5.0302,5.0319,5.0359,5.044,0.0,0.0,0.0,0.0,0.0,3.5205,3.5205,3.5205,3.5205,0.0,0.0,0.0,3.5205,3.5205,3.5205,3.5205,3.5205,3.5205,3.5205,3.5205,3.5205,3.5205,3.5205,3.5205,3.5205,3.5205,3.5377,3.574,3.574,3.5912,3.6241,3.6241,3.6504,3.7001,3.7001,3.7254,3.764,3.6661,3.6547,3.7001,3.7001,0.0,0.0,3.8247,3.8476,0.0,0.0,0.0,3.8782,3.8782,3.8534,0.0,0.0,0.0,0.0,3.7135,0.0,0.0,0.0,0.0,0.0,0.0,0.0,0.0,3.9489,4.0041,4.0645,0.0,4.1492,4.22,4.2752,4.311,4.3447,4.3815,4.3871,4.3793,4.3531,4.3506,4.3506,4.3506,4.3624,4.3649,4.3505,4.3624,4.3841,4.4206,4.4236,4.4478,4.5051,4.5093,4.5371,4.5984,4.6328,4.7169,4.8544,4.8913,4.9505,5.0302,5.0302,5.0302,5.0302,5.0302,5.0302,5.0302,5.0302,5.0302,5.0302,5.0302,5.0302,5.0302,5.0302,5.0302,5.0302,5.0302,5.0354,5.0451,0.0,0.0,3.5205,3.5205,3.5205,3.5205,3.5205,3.5205,3.5205,0.0,3.5205,3.5244,3.5339,3.5339,3.5377,3.5473,3.5473,3.5473,3.5473,3.5473,3.5473,3.5473,3.5473,3.5473,3.5473,3.5473,3.5855,3.6634,3.6634,3.7001,3.7697,3.7697,3.7755,3.7846,3.7846,3.7903,3.7999,3.7957,3.7962,3.798,3.7884,3.8362,0.0,0.0,3.9752,4.0458,4.0535,4.0573,4.0573,4.0573,4.0,0.0,0.0,0.0,0.0,0.0,3.7903,0.0,0.0,0.0,0.0,0.0,0.0,0.0,3.984,3.9924,4.0157,0.0,4.1069,4.1456,4.2671,4.2936,4.3248,4.412,4.4252,4.4105,4.3662,4.3573,4.3565,4.3607,4.3846,4.3884,4.3641,4.3868,4.4056,4.4094,4.4124,4.4351,4.4831,4.4856,4.4981,4.5297,4.5984,4.6781,4.766,4.8525,4.9366,5.0168,5.0264,5.0302,5.0302,5.0302,5.0302,5.0302,5.0302,5.0302,5.0302,5.0302,5.0302,5.0302,5.0302,5.0302,5.0302,5.0302,5.0371,5.0484,0.0,3.5205,3.5205,3.5205,3.5205,3.5205,3.5205,3.5205,3.5205,3.5205,3.5205,3.5473,3.6175,3.6252,3.6504,3.7158,3.7215,3.7215,3.7215,3.7215,3.7215,3.7215,3.7215,3.7215,3.7215,3.7215,3.7292,3.7464,3.7464,3.754,3.7697,3.7697,3.8075,3.8744,3.8744,3.914,3.9781,3.9564,3.9608,3.9733,3.903,3.9274,4.0115,4.0769,4.1117,4.1361,4.2068,4.2316,4.2316,4.2316,4.1724,4.0984,0.0,0.0,0.0,3.8954,0.0,0.0,0.0,0.0,0.0,0.0,0.0,0.0,3.9935,4.0072,4.0263,0.0,4.0791,4.1187,4.1437,4.1839,4.2409,4.3223,4.3361,4.3551,4.4134,4.4045,4.3975,4.4202,4.4091,4.4064,4.4217,4.4282,4.4416,4.4618,4.4881,4.5101,4.5189,4.5194,4.5235,4.5302,4.5455,4.5927,4.6743,4.7622,4.8487,4.9333,4.9996,5.0302,5.0302,5.0302,5.0302,5.0302,5.0302,5.0302,5.0302,5.0302,5.0302,5.0302,5.0302,5.0302,5.0302,5.0302,5.0314,5.0354,3.5205,3.5205,3.5205,3.5205,3.5205,3.5205,3.5205,3.5568,3.5855,3.5855,3.6199,3.6604,3.7039,3.7096,3.7254,3.7659,3.7697,3.7697,3.7697,3.7697,3.7697,3.7697,3.7697,3.7697,3.7697,3.7697,3.7903,3.8343,3.8343,3.8572,3.9011,3.9011,3.9236,3.9656,3.9656,3.9885,4.0296,4.0162,4.041,4.0817,3.9838,0.0,4.0941,4.1347,4.1767,4.2202,4.2641,4.2794,4.2794,4.2794,4.2507,0.0,0.0,4.1571,4.0807,0.0,4.0267,4.021,0.0,0.0,0.0,4.0123,0.0,0.0,0.0,4.0196,4.0306,4.0306,4.0519,4.0819,4.1224,4.1521,4.1973,4.2806,4.2939,4.3096,4.3538,4.395,4.4257,4.4376,4.4402,4.4402,4.439,4.4519,4.4657,4.4782,4.5109,4.5302,4.5302,4.5302,4.5302,4.5302,4.5302,4.5684,4.6495,4.7354,4.8233,4.9104,4.992,5.0302,5.0302,5.0302,5.0302,5.0302,5.0302,5.0302,5.0302,5.0302,5.0302,5.0302,5.0302,5.0302,5.0302,5.0302,5.0342,5.0404,3.5263,3.5339,3.5454,3.5454,3.5587,3.5683,3.5683,3.6275,3.6729,3.6729,3.7292,3.7755,3.7922,3.7941,3.8018,3.819,3.819,3.819,3.819,3.819,3.819,3.819,3.819,3.819,3.819,3.819,3.8553,3.9255,3.9255,3.9618,4.0306,4.0306,4.0306,4.0301,4.0244,4.0249,4.0296,4.0353,0.0,4.1359,0.0,4.0933,4.1762,4.1871,4.2347,4.2976,4.3129,4.3236,4.3271,4.3271,4.3176,4.3023,4.3023,4.2431,0.0,0.0,0.0,0.0,0.0,0.0,0.0,0.0,0.0,4.0306,0.0,0.0,0.0,4.0306,4.0306,0.0,0.0,0.0,0.0,0.0,0.0,0.0,0.0,4.3434,0.0,4.4308,4.46,4.4732,4.4591,4.477,4.491,4.491,4.5156,4.5302,4.5302,4.5302,4.5302,4.5302,4.5302,4.5607,4.6271,4.7297,4.8157,4.8856,4.9843,5.0302,5.0302,5.0302,5.0302,5.0302,5.0302,5.0302,5.0302,5.0302,5.0302,5.0302,5.0302,5.0302,5.0302,5.0302,5.0371,5.0484,3.5492,3.5817,3.6347,3.6347,3.6944,3.743,3.743,3.7502,3.7559,3.7559,3.7636,3.798,3.8763,3.8858,3.9159,3.9943,4.0,4.0,4.0,4.0,4.0,4.0,4.0,4.0,4.0,4.0,4.0057,4.0153,4.0153,4.021,4.0306,4.0306,4.0306,4.0296,4.0043,4.0082,4.032,4.0554,4.0843,0.0,4.1861,4.2335,0.0,4.3177,4.3414,4.3604,4.4324,4.4754,4.5015,0.0,4.4494,4.3854,0.0,4.3305,4.2641,4.2641,0.0,0.0,0.0,0.0,0.0,0.0,4.0826,0.0,0.0,0.0,4.0306,4.0306,0.0,0.0,0.0,0.0,0.0,0.0,0.0,0.0,4.1652,4.2424,4.3252,4.3952,4.449,4.4897,4.5167,4.523,4.5246,4.5246,4.5286,4.5302,4.5302,4.5302,4.5302,4.5302,4.5302,4.534,4.5436,4.701,4.7851,4.7966,4.9551,5.0302,5.0302,5.0302,5.0302,5.0302,5.0302,5.0302,5.0302,5.0302,5.0302,5.0302,5.0302,5.0302,5.0302,5.0302,5.0342,5.0424,3.6755,3.6948,3.7196,3.7196,3.7483,3.7697,3.7697,3.8132,3.8648,3.914,3.9217,3.9527,4.0368,4.0304,0.0,0.0,0.0,4.1464,0.0,0.0,4.0998,4.0998,4.0554,4.0306,4.0306,4.0306,4.0306,4.0306,4.0306,4.0306,4.0306,4.0306,4.0306,4.0315,4.0509,4.075,4.1007,0.0,4.1839,0.0,0.0,0.0,0.0,4.3815,4.4154,4.4641,4.4965,4.5178,4.5302,0.0,4.5053,0.0,0.0,0.0,0.0,0.0,0.0,0.0,0.0,0.0,0.0,0.0,0.0,0.0,4.1113,0.0,4.0864,0.0,0.0,0.0,0.0,0.0,0.0,0.0,4.0573,0.0,0.0,0.0,4.2354,0.0,0.0,0.0,4.4484,4.4991,4.5302,4.5302,4.5302,4.5302,4.5302,4.5302,4.5302,4.5302,4.5302,4.5302,4.5302,4.6953,4.7794,4.7813,4.9494,5.0302,5.0302,5.0302,5.0302,5.0302,5.0302,5.0302,5.0302,5.0302,5.0302,5.0302,5.0302,5.0302,5.0302,5.0302,5.0337,5.0412,3.8184,3.8066,3.7974,3.8047,3.8247,3.8382,3.8308,3.8833,3.9533,4.03,4.0465,4.0834,4.1635,4.1548,0.0,0.0,4.2346,4.2335,0.0,0.0,4.1863,4.1863,4.1304,0.0,4.0993,4.0993,4.0993,4.0993,4.0993,4.0993,4.0993,4.0993,4.0993,4.0998,4.1216,4.1463,4.1738,0.0,4.2598,4.3365,4.3434,4.3844,4.4382,4.418,4.4554,4.5167,4.5167,4.523,4.5302,4.5302,4.5302,0.0,4.5302,0.0,0.0,0.0,0.0,0.0,4.3482,0.0,0.0,0.0,0.0,0.0,0.0,0.0,0.0,0.0,0.0,0.0,0.0,0.0,0.0,0.0,0.0,4.0229,0.0,4.0654,0.0,0.0,0.0,0.0,0.0,4.4437,4.4934,4.4934,4.5168,4.5302,4.5302,4.5302,4.5302,4.5302,4.5302,4.5302,4.5302,4.6953,4.7794,4.7813,4.9494,5.0302,5.0302,5.0302,5.0302,5.0302,5.0302,5.0302,5.0302,5.0302,5.0302,5.0302,5.0302,5.0302,5.0302,5.0302,5.0348,5.044,3.9535,3.898,3.8646,3.8917,3.9656,4.0124,3.987,3.9857,4.0066,0.0,0.0,0.0,0.0,0.0,0.0,0.0,0.0,4.2446,4.2769,0.0,4.2756,4.2756,4.2737,4.2717,0.0,4.2717,4.2717,4.2717,4.2717,4.2717,4.2717,4.2717,4.2717,4.2698,4.2138,4.2008,4.2283,4.256,4.2701,4.282,4.3915,4.4371,4.4397,0.0,4.4567,4.4825,4.4825,0.0,0.0,4.5302,4.5302,0.0,0.0,0.0,0.0,0.0,0.0,0.0,0.0,0.0,0.0,4.3968,0.0,0.0,0.0,0.0,4.2756,0.0,0.0,0.0,0.0,0.0,0.0,0.0,0.0,0.0,0.0,0.0,0.0,0.0,0.0,0.0,0.0,4.3572,4.4045,0.0,4.4819,4.5302,4.5302,4.5302,4.5302,4.5302,4.5302,4.5302,4.5302,4.6953,4.7794,4.7813,4.9494,5.0302,5.0302,5.0302,5.0302,5.0302,5.0302,5.0302,5.0302,5.0302,5.0302,5.0302,5.0302,5.0302,5.0302,5.0302,5.0382,5.05,4.1084,4.0781,4.0264,3.946,3.9568,3.9917,0.0,4.0421,0.0,0.0,0.0,0.0,0.0,4.267,4.2845,0.0,0.0,4.3548,4.3838,4.3309,0.0,0.0,4.2693,4.2291,0.0,4.2468,4.2468,4.2468,4.2685,4.2699,4.2468,4.2468,4.2379,4.2214,4.2546,4.2739,0.0,0.0,0.0,0.0,0.0,4.5053,4.5628,0.0,4.4795,4.5362,4.5571,4.5597,0.0,4.5951,4.5595,4.5017,4.5235,4.5302,4.5302,4.5302,4.5302,0.0,0.0,0.0,4.4857,4.4857,0.0,0.0,0.0,0.0,0.0,0.0,0.0,0.0,0.0,0.0,0.0,0.0,0.0,0.0,0.0,0.0,0.0,0.0,0.0,0.0,0.0,0.0,0.0,0.0,4.4819,4.5302,4.5302,4.5302,4.5302,4.5302,4.5302,4.5302,4.5302,4.6953,4.7794,4.7813,4.9494,5.0302,5.0302,5.0302,5.0302,5.0302,5.0302,5.0302,5.0302,5.0302,5.0319,5.0373,5.0373,5.0373,5.0354,5.0314,5.0325,5.0376,4.1618,4.1545,4.1265,0.0,0.0,0.0,0.0,0.0,0.0,0.0,4.2393,0.0,4.3761,0.0,4.4281,0.0,4.4915,4.5028,4.5416,4.4537,0.0,4.4712,4.3486,0.0,0.0,4.313,4.3197,4.3197,4.3525,4.3581,4.3378,4.3378,4.3268,4.3114,4.3424,4.3555,4.3565,4.3753,4.3988,0.0,0.0,4.5577,0.0,0.0,4.5391,4.6066,0.0,4.6202,4.6102,4.648,4.6189,4.5729,4.5934,4.6086,4.6137,4.5812,4.5741,4.5665,4.5378,4.5302,0.0,4.5302,4.5302,0.0,4.4584,0.0,0.0,0.0,0.0,0.0,0.0,0.0,0.0,0.0,0.0,0.0,0.0,4.0306,0.0,0.0,0.0,0.0,0.0,0.0,4.3247,4.3553,4.436,4.4972,0.0,4.5302,4.5302,4.5302,4.5302,4.5302,4.5302,4.6953,4.7794,4.7813,4.9494,5.0302,5.0302,5.0302,5.0302,5.0302,5.0302,5.0302,5.0302,5.0302,5.0337,5.0401,5.0401,5.0418,5.0429,5.0354,5.0348,5.0382,4.1317,4.1425,0.0,0.0,4.1906,0.0,0.0,0.0,4.1795,0.0,4.3412,4.4382,4.5143,4.5925,4.6474,4.6724,4.6523,4.6626,4.7216,4.6222,0.0,0.0,4.5065,4.4487,4.4501,0.0,0.0,0.0,4.5129,4.5286,4.5286,4.5286,4.5262,4.523,4.4656,4.4421,4.4402,4.3824,4.4065,4.4883,4.5645,4.5975,4.6012,4.6039,4.6396,4.6859,4.6844,4.6836,4.6829,4.684,4.705,4.7262,4.7288,4.7515,4.7624,4.68,4.6552,4.6405,4.5627,4.5397,4.5359,4.5359,4.5321,0.0,0.0,0.0,4.5302,0.0,0.0,0.0,0.0,0.0,0.0,0.0,0.0,0.0,0.0,0.0,0.0,0.0,0.0,0.0,0.0,0.0,4.1863,4.2737,4.3553,4.4374,0.0,4.5302,4.5302,4.5302,4.5302,4.5302,4.5302,4.6953,4.7794,4.7813,4.9494,5.0302,5.0302,5.0302,5.0302,5.0302,5.0302,5.0302,5.0302,5.0302,5.0337,5.0412,5.0412,5.0451,5.05,5.0429,5.0446,5.0516,4.2907,4.2949,4.3014,0.0,4.2108,4.1486,0.0,0.0,0.0,0.0,4.4862,4.5493,4.5696,4.5898,4.6063,4.6132,4.6072,0.0,0.0,0.0,0.0,4.6607,4.5919,4.5621,4.5884,4.5371,0.0,4.5387,0.0,4.4934,4.4934,4.4934,4.4813,4.4624,4.4478,4.4619,4.4977,4.484,4.5432,4.6489,4.6718,4.7159,4.771,0.0,4.7994,4.7866,4.7512,4.7224,4.7097,4.7601,4.727,4.6719,4.7162,4.7365,4.7428,4.747,4.7469,4.7412,4.7201,4.6691,4.6194,4.6194,4.5736,4.5302,0.0,0.0,0.0,0.0,0.0,0.0,0.0,0.0,0.0,0.0,0.0,0.0,0.0,0.0,0.0,4.0306,0.0,0.0,0.0,4.1036,4.1863,4.2737,4.3553,4.4374,4.5244,0.0,4.5302,4.5302,4.5302,4.5302,4.5302,4.6953,4.7794,4.7813,4.9494,5.0302,5.0302,5.0302,5.0302,5.0302,5.0302,5.0302,5.0302,5.0348,5.0418,5.0484,5.0521,5.0567,5.0567,5.0446,5.0473,5.0577,4.3506,0.0,0.0,4.4011,0.0,0.0,4.3324,4.403,0.0,4.5168,4.5938,0.0,4.6425,4.6746,4.6948,4.6948,4.6948,0.0,4.7428,0.0,0.0,4.7127,4.6342,4.6001,4.6176,4.5875,0.0,4.594,0.0,4.5375,4.5356,4.4984,4.472,4.4578,4.47,4.4919,4.5233,4.5791,4.645,4.7131,4.748,4.7911,0.0,4.8514,4.8458,4.828,4.7988,4.7776,4.7683,4.8052,4.7858,4.7502,4.7848,4.8057,4.8177,4.8156,4.816,4.8107,4.7856,4.745,4.7068,4.7068,4.6729,4.629,4.5908,4.5812,4.5717,0.0,4.5302,4.5302,0.0,0.0,0.0,0.0,0.0,0.0,0.0,0.0,0.0,0.0,4.0826,0.0,0.0,4.0707,4.1476,4.2717,4.3209,4.4017,4.5225,0.0,4.5302,4.5302,4.5302,4.5302,4.5302,4.6953,4.7794,4.7813,4.9494,5.0302,5.0302,5.0302,5.0302,5.0302,5.0302,5.0302,5.0302,5.0359,5.0446,5.0511,5.0608,5.0638,5.0628,5.0535,5.0546,5.0593,4.3818,0.0,0.0,0.0,0.0,0.0,0.0,4.5599,0.0,4.6067,0.0,4.7259,4.7259,4.7874,4.8296,4.8296,0.0,4.843,4.873,4.7804,4.739,4.7689,4.6735,4.6214,4.6214,4.6407,4.6504,0.0,0.0,4.6163,4.6177,4.5414,4.5054,4.5073,4.5271,0.0,0.0,4.6746,4.7259,4.7314,4.8021,4.8296,4.8306,4.8345,4.8344,4.8316,4.8402,4.8373,4.8296,4.8296,4.8495,4.8737,4.879,4.899,4.9152,4.8794,4.8714,4.8668,4.82,4.8014,4.7966,4.7966,4.7889,4.7603,4.6839,4.6667,4.6443,4.5627,4.5455,4.5416,0.0,0.0,0.0,0.0,0.0,0.0,0.0,0.0,0.0,0.0,0.0,0.0,0.0,4.0516,4.1108,4.2679,4.2908,4.3634,4.5225,0.0,4.5302,4.5302,4.5302,4.5302,4.5302,4.6953,4.7794,4.7813,4.9494,5.0302,5.0302,5.0302,5.0302,5.0302,5.0302,5.0302,5.0302,5.0371,5.0462,5.0537,5.0653,5.0707,5.0683,5.0628,5.0613,5.0608,4.548,0.0,0.0,0.0,0.0,4.6837,4.6691,4.6801,4.6902,4.6902,4.7599,4.8095,4.8095,4.8223,4.8296,4.8296,4.8296,0.0,0.0,0.0,0.0,4.8171,4.7995,4.7884,4.7884,4.7297,4.7103,0.0,0.0,4.6456,4.6672,4.6522,4.6447,4.6433,4.6267,0.0,4.682,4.7719,0.0,4.8095,4.8241,4.8296,4.8335,4.8604,4.855,4.8373,4.8942,4.8763,4.8296,4.8296,4.8344,4.8439,4.8702,4.8832,4.894,4.9125,4.9363,4.957,4.9484,4.9168,4.8875,4.8875,4.8334,4.7755,4.7622,4.7564,4.7335,4.6481,4.629,4.6099,4.5416,0.0,0.0,0.0,0.0,0.0,0.0,0.0,0.0,0.0,0.0,4.2526,0.0,0.0,4.1705,4.2717,4.3419,4.4222,0.0,0.0,4.5302,0.0,4.5302,4.5302,0.0,0.0,4.7794,4.7813,4.9494,5.0302,5.0302,5.0302,5.0302,5.0302,5.0302,5.0302,5.0308,5.0421,5.0548,5.0663,5.0683,5.0707,5.0707,5.0697,5.0673,5.0668,0.0,0.0,0.0,0.0,0.0,0.0,0.0,4.7728,4.7728,4.7728,4.8058,4.8296,4.8296,4.8296,4.8296,4.8296,4.8296,4.8296,4.8296,4.8296,4.8296,4.8296,4.8296,4.8296,4.8296,4.7911,4.7794,4.796,0.0,0.0,4.7218,4.6789,4.6584,4.6594,4.6705,4.7123,0.0,0.0,0.0,4.8296,4.8296,4.8296,4.8325,4.8477,4.843,4.8335,4.8667,4.8577,4.8345,4.8711,4.8823,4.8815,4.8807,4.8807,4.8842,4.8982,4.9153,4.9356,4.9702,4.9644,4.9511,4.9681,4.9404,4.8997,4.8563,4.8468,4.8239,4.7354,4.68,4.6252,4.5455,4.5302,0.0,0.0,0.0,0.0,0.0,0.0,0.0,0.0,0.0,0.0,0.0,0.0,0.0,0.0,0.0,0.0,0.0,0.0,4.5302,0.0,0.0,0.0,4.5927,0.0,4.8023,4.8487,4.9729,5.0302,5.0302,5.0302,5.0302,5.0302,5.0302,5.0319,5.0354,5.0495,5.0613,5.0707,5.0707,5.0707,5.0707,5.0707,5.0707,5.0707,0.0,4.692,0.0,0.0,4.7874,0.0,4.8296,4.8296,4.8296,4.8296,4.8296,4.8296,4.8296,4.8296,4.8296,4.8296,4.8296,4.8296,4.8296,4.8296,4.8296,4.8296,4.8296,4.8296,4.8296,4.8296,4.8296,0.0,0.0,0.0,0.0,4.7102,4.6806,4.6816,0.0,0.0,0.0,0.0,4.8296,4.8296,4.8296,4.8296,4.8296,4.8296,4.8296,4.8306,4.8373,4.8411,4.8504,4.9105,4.9245,4.9153,4.8883,4.884,4.8892,4.8824,4.884,4.9017,4.9461,4.9688,4.9864,5.0132,5.0242,5.013,4.9505,4.9352,4.9104,4.8252,4.7373,4.6538,4.5703,4.5569,0.0,0.0,0.0,0.0,0.0,0.0,0.0,0.0,0.0,0.0,4.3386,0.0,0.0,0.0,0.0,0.0,4.5264,0.0,0.0,0.0,0.0,4.5684,4.6495,0.0,4.8233,4.9104,4.992,5.0302,5.0302,5.0302,5.0302,5.0302,5.0302,5.0342,5.0435,5.0556,5.0633,5.0707,5.0707,5.0707,5.0707,5.0707,5.0707,5.0707,0.0,0.0,0.0,0.0,0.0,0.0,4.8296,4.8296,4.8296,4.8296,4.8296,4.8296,4.8296,4.8296,4.8296,4.8296,4.8296,4.8296,4.8296,4.8296,4.8296,4.8296,4.8296,4.8296,4.8296,4.8296,4.8296,0.0,0.0,4.8225,0.0,4.817,4.8133,0.0,0.0,0.0,0.0,4.8296,4.8296,4.8296,4.8296,4.8296,4.8296,4.8296,4.8296,4.8354,4.8649,4.8755,4.8816,4.9185,4.9097,4.8832,4.8816,4.8999,4.9182,4.8883,4.9025,4.9209,4.8967,4.9333,4.9817,4.9837,5.0076,5.0283,5.0206,5.0187,4.9958,4.9142,4.8277,4.7412,4.6552,4.6385,4.6156,0.0,0.0,0.0,0.0,0.0,0.0,0.0,0.0,0.0,0.0,4.513,0.0,0.0,4.5187,0.0,0.0,0.0,0.0,4.5302,4.5302,4.5684,4.6495,4.7354,4.8233,4.9104,4.992,5.0302,5.0302,5.0302,5.0302,5.0302,5.0302,5.0365,5.05,5.0577,5.0633,5.0707,5.0707,5.0707,5.0707,5.0707,5.0707,5.0707,0.0,0.0,0.0,0.0,0.0,0.0,0.0,4.8296,4.8489,4.9013,4.8618,4.8296,4.8296,4.8296,4.8296,4.8296,4.8296,4.8296,4.8296,4.8296,4.8296,4.8296,4.8296,4.8296,4.8296,4.8296,4.8296,0.0,0.0,0.0,0.0,0.0,0.0,0.0,0.0,4.8296,4.8296,4.8296,4.8296,4.8296,4.8296,4.8296,4.8296,4.8296,4.8296,4.8325,4.8449,4.8504,4.8523,4.8649,4.8883,4.9105,4.9105,4.9201,4.9268,4.9145,4.9048,4.9007,4.908,4.9153,4.9294,4.9702,4.989,5.0057,5.0248,5.0302,5.0206,4.9882,4.9156,4.8315,4.7431,4.6858,4.638,4.6061,0.0,0.0,0.0,0.0,0.0,0.0,0.0,0.0,0.0,0.0,0.0,0.0,0.0,0.0,0.0,0.0,0.0,4.5302,0.0,4.6424,4.7278,4.8143,4.9003,4.9824,5.0149,5.0302,5.0302,5.0302,5.0319,5.0354,5.0393,5.0478,5.0572,5.0628,5.0687,5.0707,5.0707,5.0707,5.0707,5.0707,5.0707,5.0707,4.8296,0.0,4.8379,0.0,4.8673,4.8765,4.8994,4.904,4.926,4.9876,4.9426,4.904,4.904,4.904,4.904,4.904,4.904,4.904,4.904,4.904,4.904,4.904,4.8802,0.0,4.8673,4.8434,4.8296,4.8296,4.8296,0.0,0.0,0.0,0.0,0.0,4.8296,4.8296,4.8296,4.8296,4.8296,4.8296,4.8296,4.8296,4.8296,4.8296,4.8296,4.8296,4.8296,4.8296,4.8296,4.8296,4.8604,4.9023,4.9129,4.9294,4.9431,4.9322,4.9209,4.9097,4.9145,4.9048,4.9056,4.9534,4.9723,4.9884,5.0224,5.0302,5.0302,5.0302,4.9843,4.92,4.8329,4.7685,4.7188,4.6915,0.0,0.0,0.0,4.5455,0.0,0.0,4.5302,4.5302,4.5302,4.5302,0.0,0.0,0.0,0.0,0.0,0.0,0.0,0.0,0.0,0.0,4.7788,4.8659,4.9505,5.0302,5.0302,5.0302,5.0302,5.0302,5.0319,5.0384,5.0468,5.0527,5.0582,5.0658,5.0707,5.0707,5.0707,5.0707,5.0707,5.0707,5.0707,5.0707,4.8296,4.8296,4.8563,4.9435,4.9582,4.9858,5.0655,5.0765,5.0765,5.0784,5.0784,5.0765,5.0765,5.0765,5.0765,5.0765,5.0765,5.0765,5.0765,5.0765,5.0765,0.0,0.0,4.9527,4.9582,4.8746,4.8296,4.8296,0.0,0.0,4.8296,0.0,4.8296,4.8296,4.8296,4.8296,4.8296,4.8296,4.8296,4.8296,4.8296,4.8296,4.8296,4.8296,4.8296,4.8296,4.8296,4.8296,4.8296,4.8296,4.8306,4.8364,4.8693,4.9256,4.973,4.9409,4.9534,4.9646,4.8992,4.904,4.931,4.9299,4.9556,4.9884,5.0224,5.0302,5.0302,5.0302,5.0283,5.0034,4.9238,4.9085,4.8798,4.7927,0.0,0.0,0.0,0.0,0.0,4.5302,4.5302,4.5302,4.5302,4.5302,0.0,0.0,0.0,0.0,0.0,0.0,0.0,4.5302,4.608,0.0,4.7788,4.8659,4.9505,5.0302,5.0302,5.0302,5.0302,5.0302,5.0302,5.0308,5.0432,5.0505,5.0511,5.0643,5.0707,5.0707,5.0707,5.0707,5.0707,5.0707,5.0707,5.0707,4.9994,4.9994,5.0086,5.0362,5.0417,5.0508,5.0765,5.0802,5.1004,5.1555,5.162,5.183,5.237,5.1453,5.0802,0.0,5.0802,5.0802,0.0,5.0802,5.0802,5.0802,5.0527,5.0398,5.0417,5.016,4.9738,4.9197,0.0,0.0,0.0,4.8296,4.8296,4.8296,4.8296,4.8296,4.8296,4.8296,4.8296,4.8296,4.8296,4.8296,4.8296,4.8296,4.8296,4.8296,4.8296,4.8296,4.8296,4.8296,4.8296,4.8325,4.843,4.8764,4.9185,4.9534,4.9556,4.9468,4.9476,4.9394,4.9291,4.9291,4.9549,4.983,4.9923,5.0138,5.0302,5.0302,5.0302,5.0225,4.9977,4.9467,4.9008,4.8741,4.7946,0.0,4.6571,0.0,4.5908,4.5378,4.5302,4.5302,4.5302,4.5302,0.0,0.0,0.0,0.0,0.0,0.0,0.0,0.0,4.6934,0.0,4.8684,4.95,5.0054,5.0302,5.0302,5.0302,5.0302,5.0302,5.0319,5.0365,5.0468,5.0521,5.0582,5.0658,5.0707,5.0707,5.0707,5.0707,5.0707,5.0707,5.0707,5.0707,5.0802,5.0802,5.0894,5.1206,5.1242,5.1353,5.1654,5.1691,5.1875,5.238,5.2454,5.2637,5.3159,5.2297,0.0,5.1691,5.1691,5.1691,5.1691,5.1691,5.1691,5.1691,5.1408,5.1242,5.1242,5.0949,0.0,5.0059,5.0059,4.9619,4.8783,4.8783,4.8618,4.8296,4.8296,4.8296,4.8296,4.8296,4.8296,4.8296,4.8296,4.8296,4.8296,4.8296,4.8296,4.8296,4.8296,4.8296,4.8296,4.8296,4.8296,4.8296,4.8296,4.843,4.8746,4.9416,4.9549,4.9534,4.9737,4.9653,4.949,4.949,4.9549,4.9653,4.9764,4.9961,5.0144,5.0259,5.0302,5.0302,5.0302,4.9882,4.9543,4.9543,4.8831,4.8105,4.7551,0.0,4.68,0.0,0.0,0.0,0.0,4.6233,4.6233,0.0,0.0,0.0,0.0,0.0,4.6137,4.6953,4.7837,4.8544,4.9085,4.9901,5.0302,5.0302,5.0302,5.0302,5.0302,5.0302,5.0331,5.0407,5.0446,5.0511,5.0603,5.0638,5.0687,5.0707,5.0707,5.0707,5.0707,5.0707,5.0707,5.0707,5.0967,5.0967,5.1206,0.0,5.2079,0.0,5.3086,5.3196,5.3196,5.3196,5.3196,5.3196,5.3196,5.3196,5.3196,5.3196,0.0,0.0,5.3196,5.3196,5.3196,5.3196,5.2472,5.2079,5.2079,5.1353,5.0949,5.0875,5.0839,5.0417,4.9684,4.9684,4.9252,4.8462,4.8462,4.8462,4.8462,4.8462,4.8462,4.8462,4.8462,4.8443,4.8388,4.8388,4.8351,4.8296,4.8296,4.8296,4.8296,4.8296,4.8296,4.8296,4.8296,4.8296,4.8439,4.908,4.9505,4.9764,4.9784,4.9824,4.983,4.981,4.9563,4.9412,4.975,4.9837,4.991,5.0236,5.0302,5.0302,5.0302,5.0302,5.0302,5.0302,4.9677,4.9161,4.9104,4.8391,4.787,0.0,0.0,0.0,4.7794,4.7794,4.7794,0.0,0.0,0.0,0.0,0.0,4.7049,4.787,4.8684,4.9123,4.918,4.992,5.0302,5.0302,5.0302,5.0302,5.0302,5.0302,5.0337,5.0401,5.0412,5.0478,5.0598,5.0603,5.0638,5.0707,5.0707,5.0707,5.0707,5.0707,5.0707,5.0707,0.0,0.0,5.2682,5.2884,5.292,5.2976,5.3177,5.3196,5.3196,5.3196,5.3196,5.3196,5.3196,5.3196,5.3196,5.3196,5.3196,5.3196,5.3196,5.3196,5.3196,5.3196,5.3012,5.292,5.292,5.2737,5.2325,5.172,5.1096,5.071,5.0508,5.0508,5.0417,5.0215,5.0215,5.0215,5.0215,5.0215,5.0215,5.0215,5.0215,4.9829,4.9288,4.9288,4.8875,4.8296,4.8296,4.8296,4.8296,4.8296,4.8296,4.8296,4.8296,4.8296,4.8383,4.8807,4.9161,4.9476,4.973,4.9981,5.0126,4.9864,4.9737,4.9764,5.0113,5.0175,5.0206,5.0284,5.0302,5.0302,5.0302,5.0302,5.0302,5.0302,5.0149,4.9805,4.918,4.8913,4.8544,0.0,4.7794,4.7794,4.7794,4.7794,4.7794,0.0,0.0,4.808,4.876,4.8607,4.8588,4.8798,4.8989,4.9391,5.0015,5.0206,5.0302,5.0302,5.0302,5.0302,5.0302,5.0342,5.0371,5.0412,5.05,5.0572,5.0603,5.0668,5.0697,5.0707,5.0707,5.0707,5.0707,5.0707,5.0707,5.0707,5.3196,5.3196,5.3196,5.3196,5.3196,5.3196,5.3196,5.3196,5.3196,5.3196,5.3196,5.3196,5.3196,5.3196,5.3196,5.3196,5.3196,5.3196,5.3196,5.3196,5.3196,5.3196,5.3196,5.3196,5.3196,5.3196,5.2994,5.2546,5.2105,5.172,5.1353,5.1353,5.1151,5.0802,5.0802,5.0802,5.0802,5.0802,5.0802,5.0802,5.0802,5.0545,5.0151,5.0151,4.9848,4.9434,4.9434,4.9205,4.8893,4.8893,4.8636,4.8296,4.8296,4.8296,4.8344,4.8523,4.8806,4.9185,4.9667,4.9935,5.0032,4.9844,4.981,4.985,5.0038,5.0069,5.01,5.0278,5.0302,5.0302,5.0302,5.0302,5.0302,5.0302,5.0302,5.0149,4.9715,4.9652,4.9461,4.8997,4.894,4.894,4.894,4.894,4.894,4.894,4.894,0.0,4.962,4.9652,4.9652,4.9652,4.9652,4.9862,5.0302,5.0302,5.0302,5.0302,5.0325,5.0325,5.0302,5.0379,5.0418,5.0451,5.0484,5.0567,5.0643,5.0648,5.0663,5.0707,5.0707,5.0707,5.0707,5.0707,5.0707,5.0707,5.3196,5.3196,5.3196,5.3196,5.3196,5.3196,5.3196,5.3196,5.3196,5.3196,5.3196,5.3196,5.3196,5.3196,5.3196,5.3196,5.3196,5.3196,5.3196,5.3196,5.3196,5.3196,5.3196,5.3196,5.3196,5.3196,5.3196,5.3196,5.3196,5.2858,5.2179,5.2179,5.1811,5.1159,5.1159,5.1159,5.1159,5.1159,5.1159,5.1159,5.1159,5.1096,5.0986,5.0986,5.0912,5.0802,5.0802,5.0362,4.9784,4.9784,4.9215,4.8508,4.8508,4.8416,4.8296,4.8296,4.8541,4.8934,4.9567,4.9803,4.987,4.987,4.987,4.987,4.987,4.987,4.9955,5.0236,5.0302,5.0302,5.0302,5.0302,5.0302,5.0302,5.0302,5.0302,5.0302,0.0,5.0302,5.0302,5.0302,5.0302,5.0302,5.0302,5.0302,5.0302,5.0302,5.0302,5.0302,5.0302,5.0302,5.0302,5.0302,5.0302,5.0302,5.0302,5.0302,5.0314,5.0359,5.0384,5.0331,5.0407,5.0462,5.0511,5.0468,5.0537,5.0707,5.0633,5.0643,5.0707,5.0707,5.0707,5.0707,5.0707,5.0707,5.0707,5.3196,5.3196,5.3196,5.3196,5.3196,5.3196,5.3196,5.3196,5.3196,5.3196,5.3196,5.3196,5.3196,5.3196,5.3196,5.3196,5.3196,5.3196,5.3196,5.3196,5.3196,5.3196,5.3196,5.3196,5.3196,5.3196,5.3196,5.3196,5.3196,5.3141,5.3012,5.3012,5.2957,5.2829,5.2829,5.2829,5.2829,5.2829,5.2829,5.2829,5.2829,5.2417,5.1822,5.1822,5.1389,5.0802,5.0802,5.0729,5.0618,5.0618,5.0068,4.9399,4.9399,4.8893,4.8296,4.8296,4.8541,4.8883,4.926,4.9778,5.0224,5.0224,5.0224,5.0224,5.0224,5.0224,5.0236,5.029,5.0302,5.0302,5.0302,5.0302,5.0302,5.0302,5.0302,5.0302,5.0302,0.0,5.0302,5.0302,5.0302,5.0302,5.0302,5.0302,5.0302,5.0302,5.0302,5.0302,5.0302,5.0302,5.0302,5.0302,5.0302,5.0302,5.0302,5.0302,5.0325,5.0371,5.0401,5.041,5.0478,5.0551,5.0577,5.0588,5.0633,5.0663,5.0707,5.0697,5.0683,5.0707,5.0707,5.0707,5.0707,5.0707,5.0707,5.0707,5.3196,5.3196,5.3196,5.3196,5.3196,5.3196,5.3196,5.3196,5.3196,5.3196,5.3196,5.3196,5.3196,5.3196,5.3196,5.3196,5.3196,5.3196,5.3196,5.3196,5.3196,5.3196,5.3196,5.3196,5.3196,5.3196,5.3196,5.3196,5.3196,5.3196,5.3196,5.3196,5.3196,5.3196,5.3196,5.3196,5.3196,5.3196,5.3196,5.3196,5.3196,5.2976,5.2656,5.2656,5.2417,5.2095,5.2095,5.1811,5.1444,5.1444,5.0912,5.0261,5.0261,4.9674,4.9003,4.9003,4.9028,4.9145,4.9483,4.9935,5.0302,5.0302,5.0302,5.0302,5.0302,5.0302,5.0302,5.0302,5.0302,5.0302,5.0302,5.0302,5.0302,5.0302,5.0302,0.0,5.0302,5.0302,5.0302,5.0302,5.0302,5.0302,5.0302,5.0302,5.0302,5.0302,5.0302,5.0302,5.0302,5.0302,5.0302,5.0302,5.0302,5.0314,5.0342,5.0348,5.0396,5.0457,5.0489,5.05,5.0505,5.0577,5.0598,5.0603,5.0628,5.0678,5.0707,5.0707,5.0707,5.0707,5.0707,5.0707,5.0707,5.0707,5.0707,5.0707,5.3196,5.3196,5.3196,5.3196,5.3196,5.3196,5.3196,5.3196,5.3196,5.3196,5.3196,5.3196,5.3196,5.3196,5.3196,5.3196,5.3196,5.3196,5.3196,5.3196,5.3196,5.3196,5.3196,5.3196,5.3196,5.3196,5.3196,5.3196,5.3196,5.3196,5.3196,5.3196,5.3196,5.3196,5.3196,5.3196,5.3196,5.3196,5.3196,5.3196,5.3196,5.3196,5.3206,5.3293,5.3316,5.3316,5.3316,5.2911,5.2377,5.2312,5.1738,5.1077,5.1077,5.0537,4.9876,4.9876,4.9737,4.9581,4.9663,4.9981,5.0302,5.0302,5.0302,5.0302,5.0302,5.0302,5.0302,5.0302,5.0302,5.0302,5.0302,5.0302,5.0302,5.0302,0.0,5.0302,5.0302,5.0302,5.0302,5.0302,5.0302,5.0302,5.0302,5.0302,5.0302,5.0302,5.0302,5.0302,5.0302,5.0302,5.0302,5.0302,5.0302,5.0319,5.0384,5.0396,5.044,5.0505,5.0577,5.0588,5.0542,5.0603,5.0618,5.0618,5.0618,5.0648,5.0707,5.0707,5.0707,5.0707,5.0707,5.0707,5.0707,5.0707,5.0707,5.0707,5.3196,5.3196,5.3196,5.3196,5.3196,5.3196,5.3196,5.3196,5.3196,5.3196,5.3196,5.3196,5.3196,5.3196,5.3196,5.3196,5.3196,5.3196,5.3196,5.3196,5.3196,5.3196,5.3196,5.3196,5.3196,5.3196,5.3196,5.3196,5.3196,5.3196,5.3196,5.3196,5.3196,5.3196,5.3196,5.3196,5.3196,5.3196,5.3196,5.3196,5.3196,5.3196,5.322,5.3535,5.3662,5.3662,5.3662,5.3625,5.353,5.3222,5.2582,5.1914,5.1914,5.1353,5.071,5.071,5.0564,5.0244,4.9521,4.9817,5.0302,5.0302,5.0302,5.0302,5.0302,5.0302,5.0302,5.0302,5.0302,5.0302,5.0302,5.0302,5.0302,5.0302,0.0,0.0,5.0302,5.0302,5.0302,5.0302,5.0302,5.0302,5.0302,5.0302,5.0302,5.0302,5.0302,5.0302,5.0302,5.0302,5.0302,5.0302,5.0302,5.0302,5.0308,5.0379,5.044,5.0505,5.0577,5.0628,5.0697,5.0683,5.0683,5.0683,5.0683,5.0707,5.0707,5.0707,5.0707,5.0707,5.0707,5.0707,5.0707,5.0707,5.0707,5.0707,5.3196,5.3196,5.3196,5.3196,5.3196,5.3196,5.3196,5.3196,5.3196,5.3196,5.3196,5.3196,5.3196,5.3196,5.3196,5.3196,5.3196,5.3196,5.3196,5.3196,5.3196,5.3196,5.3196,5.3196,5.3196,5.3196,5.3196,5.3196,5.3196,5.3196,5.3196,5.3196,5.3196,5.3196,5.3196,5.3196,5.3196,5.3196,5.3196,5.3196,5.3196,5.3196,5.3248,5.3564,5.3701,5.3701,5.3701,5.3701,5.3643,5.3305,5.2994,5.2747,5.2747,5.2197,5.1487,5.12,5.1006,5.0808,5.0494,5.0366,5.0302,5.0302,5.0302,5.0302,5.0302,5.0302,5.0302,5.0302,5.0302,5.0302,5.0302,5.0302,5.0302,5.0302,0.0,5.0302,5.0302,5.0302,5.0302,5.0302,5.0302,5.0302,5.0302,5.0302,5.0302,5.0302,5.0302,5.0302,5.0302,5.0302,5.0302,5.0302,5.0302,5.0319,5.0354,5.0435,5.0495,5.0553,5.0628,5.0687,5.0707,5.0707,5.0707,5.0707,5.0707,5.0707,5.0707,5.0707,5.0707,5.0707,5.0707,5.0707,5.0707,5.0707,5.0707,5.0707,5.3196,5.3196,5.3196,5.3196,5.3196,5.3196,5.3196,5.3196,5.3196,5.3196,5.3196,5.3196,5.3196,5.3196,5.3196,5.3196,5.3196,5.3196,5.3196,5.3196,5.3196,5.3196,5.3196,5.3196,5.3196,5.3196,5.3196,5.3196,5.3196,5.3196,5.3196,5.3196,5.3196,5.3196,5.3196,5.3196,5.3196,5.3196,5.3196,5.3196,5.3196,5.3196,5.3259,5.371,5.3898,5.3888,5.4015,5.406,5.3979,5.3651,5.3551,5.3551,5.3551,5.3172,5.2611,5.2009,5.1863,5.1859,5.169,5.118,5.064,5.0378,5.0302,5.0302,5.0302,5.0302,5.0302,5.0302,5.0302,5.0302,5.0302,5.0302,5.0302,5.0302,5.0302,5.0302,5.0302,5.0302,5.0302,5.0302,5.0302,5.0302,5.0302,5.0302,5.0302,5.0302,5.0302,5.0302,5.0302,5.0302,5.0302,5.0302,5.0302,5.0325,5.0401,5.0468,5.0527,5.0598,5.0663,5.0707,5.0707,5.0707,5.0707,5.0707,5.0707,5.0707,5.0707,5.0707,5.0707,5.0707,5.0707,5.0707,5.0707,5.0707,5.0707,5.0707,5.3196,5.3196,5.3196,5.3196,5.3196,5.3196,5.3196,5.3196,5.3196,5.3196,5.3196,5.3196,5.3196,5.3196,5.3196,5.3196,5.3196,5.3196,5.3196,5.3196,5.3196,5.3196,5.3196,5.3196,5.3196,5.3196,5.3196,5.3196,5.3196,5.3196,5.3196,5.3196,5.3196,5.3196,5.3196,5.3196,5.3196,5.3196,5.3196,5.3196,5.3196,5.3196,5.3282,5.4017,5.4288,5.4357,5.4685,5.4799,5.4746,5.4405,5.4306,5.4306,5.4306,5.4306,5.4137,5.3266,5.3291,5.3488,5.2946,5.2212,5.1404,5.0531,5.0302,5.0302,5.0302,5.0302,5.0302,5.0302,5.0302,5.0302,5.0302,5.0302,5.0302,5.0302,5.0302,5.0302,5.0302,5.0302,5.0302,5.0302,5.0302,5.0302,5.0302,5.0302,5.0302,5.0302,5.0302,5.0302,5.0302,5.0302,5.0302,5.0302,5.0302,5.0325,5.0401,5.0468,5.0527,5.0598,5.0663,5.0707,5.0707,5.0707,5.0707,5.0707,5.0707,5.0707,5.0707,5.0707,5.0707,5.0707,5.0707,5.0707,5.0707,5.0707,5.0707,5.0707,5.3196,5.3196,5.3196,5.3196,5.3196,5.3196,5.3196,5.3196,5.3196,5.3196,5.3196,5.3196,5.3196,5.3196,5.3196,5.3196,5.3196,5.3196,5.3196,5.3196,5.3196,5.3196,5.3196,5.3196,5.3196,5.3196,5.3196,5.3196,5.3196,5.3196,5.3196,5.3196,5.3196,5.3196,5.3196,5.3196,5.3196,5.3196,5.3196,5.3196,5.3196,5.3347,5.3612,5.4105,5.4446,5.4662,5.4761,5.4799,5.4746,5.4405,5.4306,5.4306,5.4306,5.4306,5.4301,5.4281,5.4102,5.3918,5.376,5.3091,5.2231,5.1423,5.076,5.0302,5.0302,5.0302,5.0302,5.0302,5.0302,5.0302,5.0302,5.0302,5.0302,5.0302,5.0302,5.0302,5.0302,5.0302,5.0302,5.0302,5.0302,5.0302,5.0302,5.0302,5.0302,5.0302,5.0302,5.0302,5.0302,5.0302,5.0302,5.0302,5.0302,5.0325,5.0401,5.0468,5.0527,5.0598,5.0663,5.0707,5.0707,5.0707,5.0707,5.0707,5.0707,5.0707,5.0707,5.0707,5.0707,5.0707,5.0707,5.0707,5.0707,5.0707,5.0707,5.0707,5.3196,5.3196,5.3196,5.3196,5.3196,5.3196,5.3196,5.3196,5.3196,5.3196,5.3196,5.3196,5.3196,5.3196,5.3196,5.3196,5.3196,5.3196,5.3196,5.3196,5.3196,5.3196,5.3196,5.3196,5.3196,5.3196,5.3196,5.3196,5.3196,5.3196,5.3196,5.3196,5.3196,5.3196,5.3196,5.3196,5.3196,5.3196,5.3196,5.3196,5.3196,5.34,5.373,5.4141,5.4511,5.4814,5.4976,5.5038,5.5009,5.4799,5.4738,5.4715,5.4544,5.461,5.4735,5.4795,5.4711,5.4619,5.4619,5.397,5.3206,5.2703,5.1691,5.0812,5.0812,5.0544,5.0302,5.0302,5.0302,5.0302,5.0302,5.0302,5.0302,5.0302,5.0302,5.0302,5.0302,5.0302,5.0302,5.0302,5.0302,5.0302,5.0302,5.0302,5.0302,5.0302,5.0302,5.0302,5.0302,5.0302,5.0302,5.0302,5.0302,5.0325,5.0401,5.0468,5.0527,5.0598,5.0663,5.0707,5.0707,5.0707,5.0707,5.0707,5.0707,5.0707,5.0707,5.0707,5.0707,5.0707,5.0707,5.0707,5.0707,5.0707,5.0707,5.0707,5.3196,5.3196,5.3196,5.3196,5.3196,5.3196,5.3196,5.3196,5.3196,5.3196,5.3196,5.3196,5.3196,5.3196,5.3196,5.3196,5.3196,5.3196,5.3196,5.3196,5.3196,5.3196,5.3196,5.3196,5.3196,5.3196,5.3196,5.3196,5.3196,5.3196,5.3196,5.3196,5.3196,5.3196,5.3196,5.3196,5.3196,5.3196,5.3196,5.3196,5.3196,5.34,5.373,5.4141,5.4511,5.4843,5.526,5.5396,5.5396,5.5396,5.5383,5.528,5.4962,5.5073,5.5273,5.4954,5.5113,5.5396,5.5396,5.4823,5.4218,5.4218,5.3015,5.1805,5.1729,5.1079,5.0493,5.0436,5.0417,5.0397,5.0302,5.0302,5.0302,5.0302,5.0302,5.0302,5.0302,5.0302,5.0302,5.0302,5.0302,5.0302,5.0302,5.0302,5.0302,5.0302,5.0302,5.0302,5.0302,5.0302,5.0302,5.0302,5.0302,5.0325,5.0401,5.0468,5.0527,5.0598,5.0663,5.0707,5.0707,5.0707,5.0707,5.0707,5.0707,5.0707,5.0707,5.0707,5.0707,5.0707,5.0707,5.0707,5.0707,5.0707,5.0707,5.0707,5.3196,5.3196,5.3196,5.3196,5.3196,5.3196,5.3196,5.3196,5.3196,5.3196,5.3196,5.3196,5.3196,5.3196,5.3196,5.3196,5.3196,5.3196,5.3196,5.3196,5.3196,5.3196,5.3196,5.3196,5.3196,5.3196,5.3196,5.3196,5.3196,5.3196,5.3196,5.3196,5.3196,5.3196,5.3196,5.3196,5.3196,5.3196,5.3196,5.3196,5.3196,5.34,5.373,5.4141,5.4511,5.4843,5.526,5.5396,5.5396,5.5396,5.5194,5.4969,5.52,5.5113,5.4969,5.52,5.5332,5.5396,5.5396,5.5263,5.5116,5.5116,5.4333,5.3378,5.269,5.239,5.2079,5.1442,5.1328,5.1117,5.0436,5.0302,5.0302,5.0302,5.0302,5.0302,5.0302,5.0302,5.0302,5.0302,5.0302,5.0302,5.0302,5.0302,5.0302,5.0302,5.0302,5.0302,5.0302,5.0302,5.0302,5.0302,5.0302,5.0325,5.0401,5.0468,5.0527,5.0598,5.0663,5.0707,5.0707,5.0707,5.0707,5.0707,5.0707,5.0707,5.0707,5.0707,5.0707,5.0707,5.0707,5.0707,5.0707,5.0707,5.0707,5.0707,5.3196,5.3196,5.3196,5.3196,5.3196,5.3196,5.3196,5.3196,5.3196,5.3196,5.3196,5.3196,5.3196,5.3196,5.3196,5.3196,5.3196,5.3196,5.3196,5.3196,5.3196,5.3196,5.3196,5.3196,5.3196,5.3196,5.3196,5.3196,5.3196,5.3196,5.3196,5.3196,5.3196,5.3196,5.3196,5.3196,5.3196,5.3196,5.3196,5.3196,5.3196,5.3512,5.4016,5.4219,5.4634,5.5113,5.5325,5.5396,5.5396,5.5396,5.526,5.512,5.5332,5.526,5.5127,5.5332,5.5396,5.5396,5.5396,5.5396,5.5396,5.5396,5.5052,5.4486,5.3626,5.3097,5.2677,5.227,5.2174,5.1926,5.106,5.0926,5.0774,5.0378,5.0302,5.0302,5.0302,5.0302,5.0302,5.0302,5.0302,5.0302,5.0302,5.0302,5.0302,5.0302,5.0302,5.0302,5.0302,5.0302,5.0302,5.0302,5.0302,5.0314,5.0342,5.0457,5.0516,5.0542,5.0648,5.0707,5.0707,5.0707,5.0707,5.0707,5.0707,5.0707,5.0707,5.0707,5.0707,5.0707,5.0707,5.0707,5.0707,5.0707,5.0707,5.0707,5.3196,5.3196,5.3196,5.3196,5.3196,5.3196,5.3196,5.3196,5.3196,5.3196,5.3196,5.3196,5.3196,5.3196,5.3196,5.3196,5.3196,5.3196,5.3196,5.3196,5.3196,5.3196,5.3196,5.3269,5.3398,5.3416,5.3416,5.3416,5.3416,5.3471,5.3599,5.3599,5.3599,5.3599,5.3471,5.3416,5.3398,5.3269,5.3196,5.3196,5.3196,5.3601,5.4202,5.4262,5.4723,5.5312,5.5383,5.5396,5.5396,5.5396,5.5396,5.5396,5.5396,5.5396,5.5396,5.5396,5.5396,5.5396,5.5396,5.5396,5.5396,5.5396,5.5396,5.5205,5.4486,5.376,5.3212,5.3059,5.3021,5.2766,5.1958,5.1805,5.1576,5.0837,5.0722,5.0684,5.055,5.0531,5.0474,5.0321,5.0302,5.0302,5.0302,5.0302,5.0302,5.0302,5.0302,5.0302,5.0302,5.0436,5.0531,5.0531,5.0665,5.0728,5.0734,5.0873,5.0927,5.0957,5.1061,5.0976,5.0707,5.0707,5.0707,5.0707,5.0707,5.0707,5.0707,5.0707,5.0707,5.0707,5.0707,5.0707,5.0707,5.0707,5.0707,5.0707,5.3196,5.3196,5.3196,5.3196,5.3196,5.3196,5.3196,5.3196,5.3196,5.3196,5.3196,5.3196,5.3196,5.3196,5.3196,5.3196,5.3196,5.3196,5.3196,5.3196,5.3196,5.3196,5.3196,5.3526,5.4216,5.4234,5.4234,5.4234,5.4234,5.4583,5.5273,5.5273,5.5273,5.5254,5.4546,5.4234,5.4197,5.3489,5.3196,5.3196,5.3196,5.3422,5.3823,5.4167,5.4536,5.4933,5.5273,5.5396,5.5396,5.5396,5.5396,5.5396,5.5396,5.5396,5.5396,5.5396,5.5396,5.5396,5.5396,5.5396,5.5396,5.5396,5.5396,5.5358,5.5244,5.5129,5.483,5.4085,5.3913,5.3664,5.2805,5.2639,5.2601,5.2486,5.2467,5.2212,5.1519,5.1423,5.1137,5.0397,5.0302,5.0302,5.0302,5.0302,5.0302,5.0302,5.0302,5.0302,5.0302,5.1003,5.1423,5.1423,5.2098,5.2491,5.2558,5.2614,5.2689,5.2752,5.282,5.2106,5.0707,5.0707,5.0707,5.0707,5.0707,5.0707,5.0707,5.0707,5.0707,5.0707,5.0707,5.0707,5.0707,5.0707,5.0707,5.0707,5.3196,5.3196,5.3196,5.3196,5.3196,5.3196,5.3196,5.3196,5.3196,5.3196,5.3196,5.3196,5.3196,5.3196,5.3196,5.3196,5.3196,5.3196,5.3196,5.3196,5.3196,5.3196,5.3618,5.4051,5.4399,5.484,5.528,5.5739,5.528,5.5254,5.5603,5.5603,5.5603,5.5585,5.5236,5.5071,5.5042,5.4693,5.4546,5.4546,5.4546,5.4605,5.4725,5.4894,5.5038,5.5166,5.5332,5.5396,5.5396,5.5396,5.5396,5.5396,5.5396,5.5396,5.5396,5.5396,5.5396,5.5396,5.5396,5.5396,5.5396,5.5396,5.5396,5.5396,5.5396,5.5396,5.5282,5.49,5.483,5.4562,5.3683,5.3531,5.3359,5.2887,5.2811,5.2677,5.2327,5.227,5.2136,5.1735,5.1697,5.1697,5.1697,5.1697,5.1697,5.1697,5.1697,5.1697,5.1697,5.2059,5.227,5.227,5.2614,5.2822,5.29,5.2964,5.302,5.3099,5.3172,5.2818,5.2106,5.2106,5.2106,5.2106,5.2106,5.1818,5.1375,5.1375,5.1106,5.0707,5.0707,5.0707,5.0707,5.0707,5.0707,5.0707]}]]